GFSSGP_sfc_thetae_000.txt.gz
Theta_e
319 314 314 309 299 292 287 290 292 294 293 296 299 300 297 296 297 295 313 313 317 329 340 341 347 348 349 350 349 349 349 349 349 349 349 349 348 348 348 348 349 347 346 345 343 343 344 347 348
314 316 311 302 292 286 287 290 293 295 297 299 300 297 296 294 302 304 305 311 320 332 340 342 345 346 346 348 350 350 349 348 347 349 348 348 349 348 347 348 350 348 346 346 344 343 344 347 348
315 313 303 296 287 287 287 290 291 295 296 297 296 298 296 297 301 302 305 309 311 312 319 325 337 342 342 342 345 349 348 349 348 348 349 348 348 347 347 347 349 349 346 346 346 345 346 346 347
306 306 299 291 287 289 292 292 295 296 296 299 297 294 298 302 302 303 306 307 307 309 312 320 329 329 335 340 342 343 343 344 346 346 346 347 348 347 346 347 347 347 346 345 346 346 349 346 346
304 298 292 289 287 289 291 294 295 294 294 295 295 293 295 300 302 302 302 305 303 304 309 310 321 325 328 329 331 335 336 339 341 343 343 344 346 346 347 346 347 347 345 345 345 348 349 348 347
299 295 290 286 288 291 292 294 295 294 293 294 294 293 293 298 299 299 300 299 302 300 303 305 311 318 321 323 324 327 330 333 336 338 339 341 342 343 344 345 345 345 345 345 346 347 347 347 347
296 292 290 289 289 291 293 295 294 292 292 295 294 291 293 295 297 297 297 297 297 299 299 300 301 306 313 317 319 320 320 323 329 332 334 335 339 340 340 341 343 344 344 345 345 345 346 347 346
297 294 291 290 289 290 294 295 295 295 293 296 295 290 288 292 296 296 295 295 296 296 296 297 298 300 302 303 313 316 314 316 321 326 330 330 331 334 336 335 337 341 342 342 342 342 343 345 345
300 293 290 289 290 291 294 293 295 294 292 292 293 291 293 294 293 293 292 293 294 297 295 295 297 298 300 301 304 308 310 311 315 319 321 324 327 330 331 332 334 338 340 340 340 340 340 338 337
296 291 291 293 292 292 294 293 294 292 289 289 290 292 292 291 291 291 290 290 290 292 294 295 294 295 297 300 300 300 302 302 307 313 313 319 322 325 327 325 327 332 333 336 338 339 337 332 332
294 291 295 295 296 296 295 293 293 291 288 289 288 289 289 289 289 289 289 289 289 290 292 294 293 294 294 296 297 296 299 299 305 307 309 312 312 319 322 326 328 328 325 327 331 332 333 329 329
292 296 296 298 297 296 294 295 291 290 289 292 290 289 288 287 287 288 288 288 288 289 290 292 292 292 293 293 292 292 294 296 299 304 307 307 310 307 308 312 315 325 327 326 327 328 327 327 328
293 295 297 297 297 296 296 293 291 288 290 290 290 289 287 287 287 287 288 288 287 287 288 289 291 291 292 291 291 293 291 292 296 299 303 306 305 303 307 305 306 310 317 325 326 326 325 325 329
295 296 296 297 296 296 293 290 291 290 290 288 289 287 287 287 287 286 286 286 287 287 287 288 289 290 291 290 290 291 292 293 294 294 297 302 303 301 303 302 302 312 312 311 320 325 324 325 327
295 292 294 294 295 294 293 289 290 290 289 288 287 286 287 287 286 286 286 286 285 286 287 287 289 290 289 289 291 291 292 292 292 293 295 299 299 298 302 300 302 306 307 304 305 315 324 324 325
290 289 287 292 294 293 291 286 290 289 288 286 285 284 285 286 285 285 286 285 284 285 286 287 290 289 290 289 291 291 291 291 292 293 294 294 295 296 300 298 300 301 303 302 302 303 316 321 323
287 284 285 288 294 292 290 286 289 288 288 285 282 283 283 282 283 284 285 284 284 284 284 285 287 288 289 290 290 290 290 291 292 291 292 293 293 294 298 297 299 300 300 300 301 302 301 316 320
284 282 284 285 289 290 289 288 288 289 285 284 282 282 281 282 284 285 285 284 284 284 284 285 287 287 288 289 288 289 289 290 290 290 290 291 292 292 294 296 297 297 299 298 299 300 302 301 313
286 284 284 287 291 288 288 289 286 289 284 282 280 280 280 282 284 284 284 283 283 283 284 284 285 286 287 287 286 286 285 286 287 287 288 288 289 291 292 293 294 296 297 297 298 300 300 300 301
287 285 284 288 289 287 287 286 288 288 286 285 282 280 280 281 282 283 283 282 282 282 283 284 285 285 286 286 285 285 284 284 284 285 285 285 286 286 287 288 291 295 296 297 297 298 299 299 300
285 285 283 284 286 285 283 282 286 285 286 283 282 282 281 281 281 281 282 280 281 281 282 284 285 285 285 284 285 284 283 282 282 282 282 283 284 284 284 284 285 290 295 296 295 297 297 296 298
283 286 286 284 281 277 281 276 280 280 282 282 282 280 280 280 282 282 282 280 280 282 282 283 284 284 284 283 282 280 279 278 280 280 281 281 282 281 282 284 287 290 293 295 293 294 294 296 296
285 285 284 283 280 277 279 275 279 279 279 280 281 280 279 280 281 281 281 282 282 282 281 282 283 283 283 282 281 279 278 278 279 279 278 278 279 280 281 283 284 287 287 293 294 293 294 295 296
288 284 282 280 277 272 277 277 275 276 280 281 282 279 279 279 280 281 282 282 282 281 281 281 281 281 282 280 279 278 277 276 276 276 276 276 277 279 280 280 281 283 286 288 294 295 294 294 294
285 280 276 273 271 274 276 274 282 282 281 282 282 279 278 279 279 280 280 280 280 280 280 281 280 280 280 279 278 278 277 276 275 275 275 275 275 276 275 277 279 280 283 285 287 295 293 293 293
283 281 277 270 271 279 275 274 279 280 279 282 283 279 278 278 279 280 280 280 279 280 279 279 279 279 279 278 277 277 276 276 275 275 275 274 274 274 275 277 277 278 280 285 286 293 294 294 293
281 278 281 275 262 266 274 277 280 278 276 277 277 277 277 278 279 279 280 279 279 279 279 278 278 278 278 276 276 275 275 275 274 274 274 274 274 274 276 274 275 277 280 280 285 285 293 293 293
282 283 276 275 269 266 275 276 279 275 275 275 276 276 276 278 278 279 279 279 279 279 278 277 277 276 276 275 274 274 273 274 274 274 273 273 273 273 273 273 273 273 275 276 280 283 292 291 291
277 277 277 278 279 273 271 280 280 278 279 276 277 277 277 277 278 278 278 278 278 277 276 276 274 274 274 274 273 272 272 273 273 273 272 272 273 272 272 272 272 273 274 276 278 281 284 290 290
280 281 281 276 274 276 276 278 283 281 280 279 278 277 277 278 278 278 277 277 277 275 275 273 273 272 273 272 272 271 271 271 271 271 272 272 271 272 271 271 272 271 272 273 276 279 280 290 289

GFSSGP_sfc_thetae_003.txt.gz
Theta_e
316 313 312 307 296 291 286 288 291 293 292 295 298 298 295 294 297 293 305 308 309 323 332 330 342 342 343 345 348 348 345 347 347 348 348 349 348 348 348 348 349 347 346 346 345 344 343 346 347
314 314 309 299 290 285 286 290 291 293 296 297 297 294 294 293 299 301 301 306 308 311 316 324 334 340 341 343 343 345 345 346 346 347 348 349 348 348 348 348 349 349 347 347 346 345 344 346 347
313 310 303 293 286 286 287 289 291 294 296 294 295 296 294 294 298 299 302 305 305 306 310 320 331 332 333 334 336 337 338 342 343 344 345 346 347 347 347 346 347 347 346 346 347 346 347 347 347
306 304 297 289 286 288 289 291 293 295 294 296 294 292 296 298 298 300 302 303 299 301 305 312 323 325 326 327 330 332 334 336 337 338 340 342 343 343 344 345 345 346 345 345 346 345 348 348 348
302 296 291 287 287 291 290 293 293 293 292 292 293 291 292 297 299 298 297 300 298 298 301 304 316 319 319 319 321 322 323 326 330 333 335 335 336 340 341 342 343 344 344 345 345 347 347 347 347
298 294 288 285 286 289 291 293 293 291 292 293 293 291 291 295 295 295 296 295 296 296 300 301 307 313 313 314 315 316 317 319 322 325 328 330 334 335 337 339 341 342 342 343 345 346 346 346 346
295 292 288 286 288 289 292 294 291 291 292 291 294 289 291 291 293 294 293 293 294 295 296 297 298 303 308 309 310 311 312 313 316 319 318 323 328 331 333 334 336 339 342 343 343 343 344 345 345
296 293 290 287 288 289 292 293 293 292 291 293 293 288 286 291 293 293 292 292 293 294 294 294 295 297 298 298 307 307 308 308 311 312 314 316 317 320 326 328 331 335 337 339 340 341 341 342 342
298 292 288 287 290 290 293 292 292 291 290 289 290 290 291 293 292 290 289 289 291 294 294 293 294 294 296 297 300 302 304 305 307 307 309 310 309 313 315 316 318 324 329 335 337 338 339 337 336
294 290 291 292 291 292 293 292 292 290 288 287 287 289 290 290 289 288 287 287 288 289 291 292 292 292 294 297 295 295 297 297 300 303 303 305 307 311 308 310 313 312 315 319 332 335 335 331 331
292 289 294 294 295 295 294 292 292 290 288 288 286 287 288 288 287 287 286 286 286 286 288 290 291 291 291 292 293 292 293 293 296 299 301 302 305 305 302 305 305 305 308 313 316 324 328 329 329
291 294 295 297 297 294 293 294 290 290 291 292 289 288 287 286 286 286 286 285 285 286 287 289 289 290 289 290 290 289 290 292 292 296 299 300 300 299 298 300 303 302 303 313 310 308 309 323 327
292 293 296 296 296 294 295 292 291 289 287 289 288 287 286 285 286 286 287 286 285 286 286 287 287 288 289 289 288 289 289 290 291 292 295 298 296 297 297 297 301 299 305 306 305 304 303 305 314
293 294 295 294 295 295 294 289 289 289 287 286 287 285 285 285 286 284 285 284 284 285 285 286 287 288 288 288 288 288 289 289 290 290 292 295 295 295 293 294 298 299 301 303 301 302 302 301 304
294 291 292 292 294 293 293 289 289 289 287 286 285 284 284 285 285 285 285 285 283 284 285 286 288 288 287 287 288 288 289 289 289 290 292 293 295 292 292 292 295 298 298 300 299 299 301 300 301
290 288 286 290 292 291 291 287 291 289 286 285 284 282 283 284 284 284 284 284 283 284 285 285 288 287 287 287 287 288 288 288 289 289 289 290 291 291 290 290 292 296 297 298 297 297 297 298 298
286 284 284 288 292 290 289 287 289 288 287 285 283 282 283 282 282 283 284 283 283 283 284 285 286 286 287 287 287 287 286 286 287 287 288 288 289 288 288 288 291 293 295 297 295 296 296 296 297
285 283 284 283 287 289 287 288 289 287 286 286 283 281 280 281 282 284 283 283 283 283 284 284 285 286 286 286 285 285 285 285 285 285 286 286 286 286 286 287 286 287 290 292 295 296 296 297 298
284 283 283 286 289 287 287 289 291 287 285 284 281 281 280 281 283 283 283 282 282 282 283 283 284 284 284 283 283 283 281 282 282 283 285 285 285 285 284 284 284 284 284 286 291 296 294 295 296
285 283 283 286 287 287 286 285 290 287 287 286 285 282 281 280 281 282 282 282 281 282 282 283 283 284 284 283 282 281 280 280 281 283 283 283 284 283 283 282 281 282 282 283 286 290 292 294 296
284 283 282 284 285 285 282 279 285 286 287 287 286 284 282 281 281 280 281 281 280 281 281 282 283 283 283 282 282 281 280 279 278 279 280 281 282 282 281 281 281 282 282 284 288 290 292 292 293
282 286 284 284 281 277 281 277 280 282 283 285 285 280 281 280 281 280 280 281 281 281 281 282 282 282 283 281 280 278 276 276 277 278 279 279 280 280 280 280 281 281 282 281 283 287 288 293 290
285 285 282 281 280 277 278 275 278 279 281 284 283 282 281 281 281 280 280 282 282 282 280 280 281 281 282 280 279 278 276 277 277 277 277 277 279 280 279 279 280 278 278 279 280 283 287 291 291
287 283 281 278 276 272 276 277 276 278 281 282 281 283 280 280 279 280 281 282 281 280 280 280 279 280 281 279 278 277 275 275 275 275 275 276 277 278 278 279 277 276 277 278 280 282 284 286 289
284 281 277 274 271 274 275 273 282 285 283 282 282 281 280 280 279 279 279 280 280 279 279 280 279 278 279 278 276 275 275 274 274 274 275 275 275 276 276 276 276 275 276 278 278 278 283 286 285
282 283 278 271 271 277 274 275 280 282 279 279 280 282 280 279 279 279 279 279 279 279 279 278 278 277 277 276 275 274 274 274 274 274 274 274 274 275 276 275 275 276 275 275 277 279 279 284 284
281 279 282 277 262 267 277 278 282 278 278 276 278 278 277 278 278 279 279 279 278 278 278 277 276 276 275 274 273 272 272 272 272 273 274 274 275 275 275 275 274 274 274 274 274 274 275 278 283
281 283 277 276 268 265 275 277 282 280 279 275 275 276 278 278 278 278 278 278 278 278 277 276 275 274 274 273 272 272 272 272 272 272 272 273 274 274 273 273 273 273 273 273 273 274 276 278 280
278 278 277 278 277 271 267 279 283 284 281 276 277 278 278 278 278 278 278 278 278 277 275 274 273 273 272 272 271 271 271 271 271 271 272 272 273 273 272 272 272 272 272 272 272 272 272 273 276
281 281 281 276 273 273 275 280 280 283 282 278 278 278 278 278 278 277 277 277 276 275 274 273 272 271 271 271 270 270 269 269 269 270 271 272 271 272 271 271 271 271 271 271 271 271 272 273 276

GFSSGP_sfc_thetae_006.txt.gz
Theta_e
314 314 310 305 294 290 285 287 292 291 291 293 296 296 294 294 296 292 305 305 306 308 314 324 337 338 340 342 342 343 345 345 346 346 347 347 347 347 347 348 349 347 347 347 347 347 346 347 347
312 313 307 296 289 285 285 288 290 292 294 294 295 293 293 292 297 299 300 304 304 306 310 322 333 332 334 335 337 337 340 342 343 343 344 345 345 346 346 346 346 346 347 347 347 347 347 348 347
311 308 301 291 286 285 286 289 291 291 294 292 293 295 292 293 296 297 299 302 300 300 304 318 325 324 326 326 327 329 331 334 336 338 339 339 340 342 344 344 344 344 345 346 346 346 348 347 348
306 303 295 289 287 289 290 290 292 293 292 295 292 291 293 296 297 298 299 299 296 298 301 312 318 319 320 320 321 322 324 326 329 331 332 333 336 337 338 340 342 343 343 345 345 345 347 347 348
300 296 290 286 287 290 290 291 293 292 291 291 292 290 291 295 296 296 295 296 295 296 299 303 313 313 315 316 317 317 318 320 323 322 324 328 331 332 334 334 336 339 341 343 344 344 346 345 346
297 293 287 285 286 290 291 292 292 290 291 292 291 290 291 294 293 293 294 292 294 294 297 298 305 309 310 311 312 313 314 315 316 316 318 319 319 323 326 326 328 332 336 338 341 343 344 344 344
294 291 286 284 286 289 292 294 292 291 291 291 293 288 289 291 293 293 292 292 293 294 295 294 296 301 305 307 308 309 309 310 311 311 311 312 315 319 314 314 318 321 322 325 330 337 340 342 343
294 293 286 286 287 288 293 292 292 291 291 292 291 288 286 290 293 292 290 291 291 292 293 292 293 295 295 296 304 305 306 306 307 307 307 306 309 309 308 308 312 315 316 316 321 327 333 336 339
297 291 287 287 288 291 293 291 290 290 290 288 289 289 291 292 292 289 287 288 289 291 291 291 291 291 293 294 296 298 301 302 303 303 305 302 303 302 301 304 308 310 311 312 319 320 319 327 330
293 289 290 291 290 290 293 292 291 290 287 286 286 288 290 290 288 287 285 286 285 286 289 290 289 290 291 294 292 291 293 293 295 297 298 301 300 300 300 300 303 307 307 310 314 312 311 309 311
291 288 292 293 294 294 293 290 291 290 287 288 287 287 288 287 286 286 285 285 285 284 287 288 289 289 289 290 290 289 290 290 291 293 295 298 298 297 297 295 296 300 303 305 305 305 304 305 305
292 293 293 296 296 293 291 291 290 290 291 290 289 289 286 286 286 285 285 285 285 285 286 287 287 288 288 289 288 288 289 290 289 291 293 295 293 294 294 293 294 297 299 300 301 301 302 302 303
292 292 295 295 295 294 293 291 291 290 288 288 287 287 286 286 285 285 285 285 285 285 285 286 287 287 287 288 287 287 288 288 289 290 292 293 292 292 291 290 292 294 298 298 298 299 299 299 301
291 293 294 294 294 293 292 289 289 289 285 285 287 285 285 285 285 284 284 284 284 285 285 286 287 287 287 287 286 286 287 288 288 289 290 292 292 289 289 289 290 292 294 296 296 297 297 297 298
292 290 291 290 292 292 292 289 288 288 286 285 284 284 284 284 285 284 284 284 284 284 285 286 287 287 286 286 287 286 287 288 287 288 289 290 289 288 286 287 289 290 292 293 295 295 296 295 297
289 288 286 289 291 290 290 286 291 287 285 284 283 282 283 284 284 284 284 283 283 284 284 286 288 286 286 286 286 286 286 286 286 286 286 287 287 287 285 285 286 289 287 288 291 294 294 293 295
287 285 284 288 291 289 288 287 290 286 285 285 283 283 283 282 282 282 283 282 283 283 284 284 285 285 286 286 285 285 285 284 284 284 284 285 285 286 284 284 284 285 285 286 287 289 292 293 294
285 283 284 283 287 287 286 288 291 287 284 286 285 283 283 282 282 282 282 282 282 282 283 283 285 285 285 285 284 283 283 283 282 282 283 284 284 284 283 283 283 283 283 282 283 284 285 289 293
287 283 283 285 287 286 286 288 291 291 285 285 283 282 283 283 282 283 282 282 281 281 282 283 283 284 283 282 281 280 280 280 280 281 283 283 283 283 282 282 281 281 280 281 282 283 283 285 291
284 283 283 285 286 286 285 285 289 291 288 287 287 284 283 283 281 282 281 280 281 282 282 282 282 283 283 282 281 281 279 279 280 281 280 281 282 282 281 281 280 280 280 280 281 283 284 287 289
283 282 282 283 284 283 281 282 282 286 288 288 287 287 285 283 281 281 281 280 280 280 281 282 282 282 282 282 281 280 279 278 277 277 278 279 281 281 280 280 279 279 280 279 281 279 279 280 284
282 285 283 282 280 277 282 279 280 285 286 285 286 284 284 283 282 282 281 279 279 280 280 281 281 281 282 281 279 277 276 275 276 276 277 278 279 279 280 280 279 279 280 278 277 279 279 279 279
285 283 282 281 279 276 277 275 278 279 282 287 287 286 284 282 282 281 281 281 280 281 280 280 280 280 281 280 278 276 276 276 276 276 276 276 277 279 279 279 278 278 278 277 276 276 277 280 279
285 282 280 277 276 272 278 277 277 278 282 284 284 283 283 280 281 281 281 281 281 280 279 279 279 279 279 279 277 276 274 274 274 274 274 275 276 277 278 278 277 277 277 276 276 276 278 277 277
283 282 277 274 271 276 275 273 282 283 284 285 285 282 281 279 279 279 280 280 280 279 279 279 278 277 278 277 276 275 274 273 273 273 274 273 274 275 275 276 276 276 276 276 276 276 275 275 275
281 282 278 270 270 277 273 275 282 284 284 280 279 279 280 278 279 280 280 280 279 279 278 278 277 276 276 275 274 274 273 273 273 273 273 273 273 274 275 275 275 275 275 275 275 275 275 277 275
281 279 282 276 264 268 278 279 282 284 282 280 279 280 279 278 279 279 280 280 278 278 278 277 276 276 275 274 273 272 272 271 271 271 272 272 273 274 275 275 274 274 274 274 274 273 273 273 273
280 282 277 277 271 265 275 277 280 285 283 284 278 278 278 277 278 279 279 279 278 277 277 276 275 274 274 273 272 272 271 271 271 271 271 271 272 273 273 273 273 273 273 273 273 273 273 272 273
277 278 277 279 276 272 268 280 283 285 286 286 281 280 278 278 278 279 279 278 278 277 276 274 273 273 272 272 271 270 270 270 270 270 270 271 271 272 272 272 272 272 272 272 272 272 272 271 272
280 280 281 278 275 273 273 280 283 285 286 283 281 280 278 278 278 279 278 277 276 275 275 273 272 271 271 271 270 269 269 269 269 269 269 271 270 271 271 271 271 270 270 271 270 270 271 271 270

GFSSGP_sfc_thetae_009.txt.gz
Theta_e
317 317 314 308 299 295 291 294 297 296 297 298 300 299 299 298 300 297 308 306 306 309 315 325 333 335 338 339 339 342 342 343 343 343 344 344 345 346 346 346 346 346 346 347 348 348 348 349 348
314 314 309 300 294 290 291 294 294 297 298 297 298 298 298 297 300 302 304 305 303 307 311 322 328 328 330 330 331 333 335 337 339 341 341 341 341 341 342 343 344 345 345 346 346 346 348 349 348
313 310 305 295 290 290 291 294 295 296 296 298 297 298 298 297 300 301 302 302 301 304 308 317 321 323 324 324 326 327 329 331 330 331 334 336 338 338 338 338 338 340 343 344 345 345 346 348 348
309 306 298 293 292 293 295 295 296 296 297 298 297 295 297 300 301 301 301 300 299 301 306 314 317 318 320 320 321 322 324 324 324 325 327 327 327 332 332 332 334 335 337 340 343 343 344 345 346
302 299 293 291 292 294 294 296 296 296 296 296 296 294 294 298 299 298 298 298 298 298 302 308 313 314 316 316 317 317 318 318 318 319 320 321 325 320 319 321 324 326 328 331 334 337 339 341 344
300 297 292 290 291 294 295 296 296 295 295 295 295 293 294 298 296 297 296 297 297 297 299 301 306 309 311 312 313 313 314 313 313 313 313 316 316 313 313 314 317 319 321 322 326 330 332 336 339
299 294 291 290 290 293 295 295 294 294 294 295 296 293 294 295 297 296 296 296 296 297 297 297 299 301 305 307 308 309 309 310 310 310 309 310 309 309 308 309 312 314 315 317 322 325 324 326 332
296 295 290 289 290 292 295 295 295 296 295 295 296 293 292 295 296 295 295 294 295 295 294 295 296 298 298 299 304 305 305 306 306 306 305 304 304 305 304 305 308 311 311 313 317 317 317 316 316
300 293 290 291 290 294 294 295 294 294 293 293 294 293 294 295 294 292 292 292 293 293 294 294 294 295 296 296 297 298 301 301 301 301 303 302 300 301 300 301 303 306 308 309 312 310 310 310 309
295 291 293 294 293 294 294 295 294 293 291 292 290 291 292 293 291 290 290 290 290 291 292 293 293 293 294 294 294 295 295 295 296 297 299 299 298 299 298 298 299 302 304 305 307 307 306 305 305
294 291 295 295 296 296 295 294 293 293 291 294 292 290 291 291 290 290 289 289 290 290 291 291 292 292 293 294 293 294 295 294 295 296 297 298 296 296 296 296 296 298 299 300 301 302 302 303 303
293 294 295 297 297 295 294 293 292 292 296 294 293 292 291 290 289 288 288 288 289 289 290 290 291 292 292 292 292 293 293 293 293 294 296 296 294 294 293 293 294 295 296 298 299 299 301 301 301
293 294 296 296 296 295 294 293 293 291 294 292 290 290 290 290 289 288 289 289 288 288 289 290 291 291 291 291 291 292 292 292 293 293 294 294 292 292 291 291 292 293 295 294 295 296 298 299 300
293 295 295 295 295 295 294 292 292 293 288 288 288 289 289 289 288 287 287 287 287 288 289 290 290 290 291 291 291 291 291 291 292 292 292 292 291 290 289 290 290 291 293 291 292 293 296 297 299
293 291 292 292 293 293 293 291 290 293 288 288 286 287 287 288 287 287 287 287 288 288 289 289 290 290 290 290 290 290 291 290 290 290 291 291 290 289 288 288 288 289 289 289 290 291 293 295 296
290 289 288 291 292 292 292 289 293 290 287 288 286 285 286 287 287 287 287 287 287 287 288 289 291 290 289 289 289 289 290 289 289 288 289 289 288 287 287 287 287 287 287 288 287 288 288 290 292
289 287 286 289 292 291 290 289 292 288 286 288 286 286 286 286 285 286 286 286 286 287 287 288 289 289 289 289 289 288 288 288 287 287 287 288 287 286 285 285 286 286 286 286 285 286 286 286 287
286 285 286 286 289 289 288 288 293 290 286 288 288 286 285 285 286 286 286 285 285 286 286 287 288 288 288 288 287 287 287 286 286 286 286 286 286 286 284 285 285 284 284 284 284 284 285 286 287
287 286 286 287 288 287 287 288 292 294 288 288 287 285 285 286 288 285 285 284 284 285 285 286 286 287 287 286 285 284 284 284 284 284 285 284 284 285 283 283 284 283 282 282 283 283 284 286 287
286 285 285 286 286 286 285 286 290 292 292 294 291 287 286 286 283 283 284 283 283 284 285 285 285 286 286 285 284 284 283 283 283 284 284 283 283 283 282 282 282 282 281 281 282 282 282 281 283
285 284 284 285 284 284 282 282 283 287 289 290 290 290 288 287 284 283 283 282 283 283 284 284 284 285 285 285 284 283 282 282 281 282 281 282 282 282 282 282 282 281 281 280 281 282 279 278 281
284 286 285 283 282 279 283 280 282 286 288 289 289 287 288 286 286 284 283 282 282 283 284 284 284 284 284 284 282 281 280 279 280 280 280 280 281 281 281 281 281 281 281 280 281 281 279 279 278
286 284 283 282 281 278 279 276 282 281 284 288 290 288 287 286 285 283 283 283 283 284 283 283 283 282 283 283 282 281 279 279 279 279 278 279 279 280 280 280 280 280 280 280 280 279 278 279 278
286 283 282 278 277 273 281 280 280 281 284 287 288 288 287 284 283 283 284 284 282 283 283 282 281 281 282 281 281 279 277 277 276 277 276 277 278 278 279 279 279 279 279 279 279 279 278 278 278
284 283 278 276 273 277 276 275 284 285 285 288 289 288 285 284 281 281 282 281 282 282 282 281 281 280 280 280 279 278 277 276 275 275 275 275 275 276 276 277 277 278 278 278 278 278 277 278 278
282 284 279 273 272 279 273 275 284 285 289 286 284 284 282 282 281 281 282 282 283 282 281 281 280 279 279 278 277 277 276 275 275 275 274 274 274 274 276 276 276 277 277 277 277 277 277 277 277
281 280 283 276 264 271 280 282 284 285 284 283 282 280 281 282 280 281 281 282 282 282 281 281 279 278 277 277 276 275 274 273 273 273 273 273 274 274 275 275 275 275 275 276 276 276 276 276 276
282 283 278 278 273 268 277 280 283 284 286 286 284 283 283 282 280 280 281 281 282 282 280 280 279 277 277 276 274 274 273 273 273 272 272 272 272 273 273 273 274 274 274 274 274 275 275 275 275
279 279 278 280 277 273 273 281 283 285 286 286 288 285 283 282 280 280 280 281 281 280 279 278 276 275 275 274 273 272 272 272 271 271 271 271 272 272 272 272 272 272 272 273 273 273 273 273 273
280 282 283 278 276 274 274 281 286 287 286 286 287 285 283 282 280 279 280 280 279 279 277 276 275 274 273 272 272 271 271 270 270 270 270 271 270 271 271 271 271 271 271 271 270 271 271 271 270

GFSSGP_sfc_thetae_012.txt.gz
Theta_e
328 325 326 320 306 304 299 299 303 301 302 305 306 306 307 306 305 303 311 311 313 320 324 329 331 334 335 337 338 340 341 342 343 342 342 342 342 342 344 343 344 344 345 346 346 346 347 348 347
323 320 322 314 304 299 299 302 301 304 305 306 305 305 305 305 307 308 309 308 314 317 321 324 327 328 329 331 333 335 336 335 336 337 338 339 340 340 340 340 339 340 342 344 344 345 346 348 347
318 318 317 310 304 298 300 302 304 303 305 305 304 304 305 305 306 309 307 307 314 315 318 319 322 323 324 326 328 329 329 330 331 332 333 333 335 334 333 333 335 335 338 340 342 343 344 344 344
317 314 309 303 299 301 301 304 304 303 302 303 305 303 303 306 307 307 306 305 310 312 314 316 319 320 320 322 323 323 322 323 324 325 326 330 325 323 324 327 328 329 330 332 334 336 338 339 341
316 313 304 301 299 301 302 304 305 303 304 304 304 303 302 304 306 305 304 303 304 307 311 312 315 316 317 318 318 318 318 318 318 318 321 319 317 316 317 318 320 322 324 325 329 331 331 332 336
310 309 301 299 299 301 302 304 305 305 304 302 302 302 303 305 303 303 303 302 303 303 305 307 310 311 313 313 314 314 314 314 314 313 313 313 312 312 312 314 316 317 318 319 325 325 324 325 328
308 307 301 300 299 299 302 304 303 304 303 303 304 302 302 301 303 302 302 302 302 301 302 303 303 305 308 308 309 310 310 310 310 309 308 307 308 307 308 309 311 313 314 315 318 316 317 318 318
310 308 299 299 299 299 302 303 302 303 303 302 305 303 302 303 302 302 301 301 300 300 300 301 302 301 303 304 304 305 306 306 306 305 305 303 303 304 303 304 306 309 310 311 313 312 312 312 312
308 303 300 299 298 301 301 301 301 300 301 301 303 302 301 305 301 300 299 299 299 298 299 300 300 301 301 300 300 301 302 302 302 302 302 302 302 302 302 301 303 305 306 307 309 309 309 308 308
306 302 300 303 302 302 302 302 303 300 300 300 300 301 298 301 299 298 298 297 297 297 298 299 299 299 299 297 300 301 300 301 301 301 302 301 301 300 300 301 300 301 301 304 306 306 306 306 306
303 301 302 302 302 302 302 300 303 301 300 304 303 304 299 300 299 299 299 299 298 298 297 297 298 299 299 299 300 301 300 300 300 300 301 300 300 300 299 300 300 301 300 301 302 303 303 304 304
301 301 302 303 303 301 301 301 300 301 305 304 306 304 300 299 298 299 299 298 297 296 296 297 297 298 298 299 299 299 299 299 299 299 299 298 298 298 297 297 298 299 299 299 299 300 301 302 303
301 301 302 303 302 302 299 300 301 300 305 304 300 299 299 299 300 300 299 298 297 295 296 296 297 297 297 297 298 298 298 298 297 297 297 296 296 296 296 296 296 297 297 296 296 297 298 300 301
301 301 302 302 302 301 299 301 298 303 302 302 298 299 300 300 300 299 297 296 295 296 295 296 296 297 296 297 297 297 297 296 296 296 296 294 295 294 294 294 294 295 295 295 295 295 295 297 299
300 299 302 301 300 300 300 298 298 305 297 299 297 299 299 299 300 298 297 296 295 295 296 295 295 296 296 296 296 296 295 295 295 295 295 294 293 292 292 293 293 293 293 293 294 294 294 294 295
298 297 297 299 299 298 299 296 303 305 298 300 300 299 297 298 298 299 298 296 296 295 294 295 294 295 295 295 295 295 295 295 295 294 294 292 291 291 291 291 291 292 292 292 292 292 291 292 293
298 296 296 297 299 297 298 298 301 300 297 299 302 300 297 297 297 298 297 296 295 295 294 294 295 294 294 294 294 294 293 294 294 293 293 292 290 290 290 290 290 291 290 290 290 290 290 290 291
296 295 296 295 297 295 296 296 300 302 297 299 302 302 299 296 297 297 296 295 294 294 294 294 294 294 294 294 293 293 293 293 293 292 291 290 290 289 289 289 289 289 289 289 289 289 290 290 290
297 295 295 299 295 294 295 295 297 301 300 300 300 302 300 297 299 298 296 294 292 293 292 293 293 293 293 293 291 291 291 291 290 291 290 289 288 288 288 288 288 288 287 287 288 288 287 288 288
295 295 296 298 293 292 294 292 296 298 299 300 301 302 302 298 297 296 294 292 291 291 292 292 292 292 292 292 291 291 290 290 290 290 289 288 287 287 286 286 286 287 286 287 287 287 286 286 288
294 294 296 293 292 291 289 291 292 295 296 297 299 300 301 298 296 294 292 291 291 290 291 291 291 292 292 291 290 288 288 288 287 288 288 288 287 286 286 285 286 286 286 285 285 286 285 283 285
293 296 294 291 290 289 290 286 294 295 294 295 300 300 298 297 296 295 292 290 290 291 292 291 291 290 290 290 289 288 287 287 288 287 287 286 286 285 285 285 285 285 285 285 285 284 285 284 282
294 291 291 289 289 286 290 285 291 288 290 295 299 301 299 298 296 294 291 290 290 291 291 291 290 289 289 289 289 288 287 287 287 285 284 285 285 285 284 284 284 284 284 284 284 284 284 284 282
290 290 289 286 287 283 290 287 290 290 292 295 298 299 297 296 296 295 293 291 290 291 290 290 289 288 288 288 288 287 286 285 284 283 283 283 283 283 283 283 283 283 283 283 283 283 283 282 282
290 291 288 287 284 285 286 284 288 293 294 296 299 300 296 296 294 292 290 289 289 289 289 289 288 287 287 287 287 286 285 284 282 282 282 281 281 282 282 282 281 282 282 282 282 282 281 282 281
289 292 289 283 284 286 282 282 290 294 297 297 294 295 293 293 293 291 290 290 289 288 289 288 288 287 286 286 285 284 283 282 282 281 280 280 280 280 281 280 280 280 280 280 280 280 281 281 280
288 287 292 289 278 281 288 292 293 292 292 292 292 293 294 294 293 291 290 290 288 288 288 288 288 287 285 284 284 282 282 280 280 280 279 279 279 279 279 279 278 279 279 279 279 279 279 279 280
288 291 285 287 282 281 286 288 289 291 291 292 291 292 295 294 293 291 289 289 289 289 289 289 288 286 285 284 283 281 280 279 279 278 278 278 278 278 277 277 277 277 278 278 278 278 278 278 279
284 286 285 285 286 283 282 286 291 291 293 292 294 296 297 296 294 292 290 289 289 289 288 288 287 286 283 282 281 279 278 278 277 277 277 277 277 276 276 276 276 276 276 276 276 276 276 275 276
290 290 289 285 284 284 285 286 294 294 294 294 295 294 295 295 295 294 291 289 288 287 287 286 286 283 282 281 279 278 277 276 276 276 276 276 275 275 275 275 274 274 274 275 274 274 274 273 273

GFSSGP_sfc_thetae_015.txt.gz
Theta_e
331 328 328 323 308 306 301 301 306 304 304 309 310 309 307 309 307 303 315 316 321 323 327 329 332 333 336 337 339 341 341 341 342 341 341 341 341 341 342 341 341 342 344 345 345 346 346 346 346
325 323 324 318 304 300 301 305 302 305 308 309 308 308 307 307 311 310 312 313 320 321 324 324 327 328 331 332 335 334 335 336 337 338 337 337 338 336 336 337 337 337 340 341 343 344 344 344 344
323 322 317 310 304 299 301 304 305 307 308 308 307 309 309 308 310 313 312 314 319 319 320 320 323 324 326 328 329 328 329 331 330 331 333 332 329 328 330 330 331 331 333 334 336 337 339 339 340
319 317 312 303 301 304 303 305 307 306 307 308 308 305 307 311 311 313 310 313 316 316 317 318 320 321 322 323 323 323 323 323 324 327 325 323 321 321 321 322 324 325 326 328 332 333 333 332 334
317 315 305 302 302 304 305 307 307 305 306 306 307 305 306 308 310 309 308 310 311 312 314 315 317 318 319 319 319 319 319 318 319 320 318 317 316 316 316 317 318 319 320 322 327 327 326 326 327
311 311 302 300 302 304 306 307 307 307 307 306 305 306 307 310 307 308 307 306 307 309 311 311 312 314 314 315 316 316 316 315 314 314 313 313 312 313 313 314 315 315 316 317 320 318 319 320 321
309 307 303 303 302 303 305 308 306 307 307 306 308 304 307 306 308 307 306 306 305 305 306 306 309 309 310 310 311 312 312 312 311 310 309 308 308 308 308 308 311 313 313 314 314 314 314 315 315
310 307 303 303 301 302 306 306 307 307 306 308 309 304 306 308 308 306 305 304 304 303 303 304 304 305 306 306 307 308 307 307 307 305 304 302 305 304 304 304 307 309 310 311 311 311 312 312 311
312 303 302 302 301 303 306 304 306 306 306 305 307 307 306 309 305 304 303 303 302 301 302 303 303 303 304 304 302 303 303 302 302 303 302 307 304 303 303 303 303 306 306 308 309 309 309 308 312
308 304 304 306 306 304 305 305 306 302 303 304 305 307 303 306 303 301 301 301 301 300 301 302 302 302 302 299 303 303 302 303 303 304 303 303 303 301 301 303 302 303 303 305 306 307 307 308 305
307 303 306 306 306 305 305 304 307 303 303 307 306 307 304 304 302 302 302 303 302 302 301 301 301 302 302 301 303 303 303 303 303 303 302 302 302 302 301 301 302 302 303 301 301 302 302 303 304
303 307 306 306 305 304 303 306 303 304 306 308 310 311 306 303 302 302 303 303 303 302 301 300 300 301 302 302 302 302 301 302 301 301 300 301 301 300 299 299 299 301 300 299 299 300 301 301 302
304 306 305 306 305 304 305 303 304 305 309 310 307 305 306 304 304 304 305 305 304 301 300 299 300 300 300 300 300 300 300 300 300 300 299 298 298 298 298 298 298 297 297 297 296 297 297 299 299
305 304 305 306 305 305 302 303 302 306 309 308 308 304 305 305 305 305 304 304 303 301 300 299 299 300 299 299 300 299 299 299 299 299 298 297 297 296 296 296 296 296 295 295 295 295 295 296 297
304 300 304 305 304 302 303 299 301 306 305 305 306 305 305 305 305 304 305 303 303 301 300 299 298 299 298 299 299 299 299 297 297 297 296 295 295 294 294 294 294 294 294 294 294 294 294 294 295
301 302 297 304 303 302 302 297 305 308 305 303 305 306 304 305 305 305 305 304 302 301 299 299 297 297 297 297 298 298 297 297 297 296 295 294 293 293 293 293 293 293 293 292 292 292 292 292 293
302 296 298 301 303 301 300 298 304 306 304 303 305 306 306 305 304 305 305 304 302 300 299 298 297 296 297 297 297 297 297 296 296 295 294 294 292 292 292 291 292 292 291 291 291 291 291 290 291
297 296 298 298 301 300 298 297 302 305 304 304 304 304 305 306 304 304 304 304 302 300 299 297 297 296 296 297 296 296 295 295 294 294 293 292 291 290 291 291 291 291 290 290 290 289 290 290 291
300 297 296 299 302 298 298 298 301 304 304 303 304 304 305 306 308 305 304 304 301 299 298 297 296 296 296 295 294 293 292 294 293 293 292 291 290 290 290 290 289 290 289 289 289 289 288 289 290
299 296 296 300 302 296 297 296 300 302 302 303 303 303 304 306 306 303 302 302 299 297 297 296 296 295 295 295 295 294 294 293 293 293 291 291 290 289 289 288 288 288 288 288 288 288 286 288 289
296 295 296 296 300 296 294 293 297 300 301 302 302 303 304 304 305 302 300 299 298 296 296 296 296 296 295 295 294 292 291 290 289 290 290 290 290 289 288 288 287 287 287 287 287 287 286 284 286
293 299 298 296 294 290 295 287 296 298 299 299 299 301 304 303 304 302 300 298 297 296 297 296 296 295 295 295 292 291 289 288 290 291 291 289 289 288 288 287 287 286 287 286 287 286 285 285 283
295 295 295 295 293 293 292 289 293 293 293 294 297 302 305 305 302 301 299 298 297 297 296 296 295 294 294 294 292 291 290 291 291 289 288 288 289 288 287 287 286 286 286 286 285 285 285 285 283
295 293 292 292 291 285 292 291 291 294 294 297 300 301 304 302 301 301 300 298 297 297 296 295 294 293 293 292 291 291 290 290 288 287 286 287 287 287 286 286 285 285 284 284 284 285 284 284 283
293 292 288 287 286 285 294 290 293 298 297 298 299 301 302 301 300 300 297 295 295 295 294 294 293 292 292 291 291 290 290 290 288 287 287 285 285 285 285 285 284 283 283 283 283 282 282 283 282
291 293 289 283 284 287 289 286 292 299 300 300 300 300 300 299 300 299 297 296 295 294 293 293 292 291 291 290 290 290 289 288 287 286 285 284 284 284 284 283 282 282 282 282 281 282 282 282 282
292 287 295 290 288 285 289 293 299 298 297 298 297 297 298 298 298 297 297 295 295 294 293 292 292 291 290 289 289 288 287 286 285 285 284 283 283 282 282 281 280 280 280 280 280 280 280 280 281
291 293 287 289 283 281 287 290 291 293 294 296 295 296 298 299 299 298 297 296 295 294 293 292 292 290 290 289 288 286 285 284 284 284 282 282 282 281 280 279 279 279 279 279 279 279 279 279 279
287 287 287 287 289 284 283 287 295 294 296 296 296 297 298 300 299 298 297 296 295 294 293 292 291 290 289 287 287 285 284 283 283 281 281 281 280 279 278 278 278 277 277 278 277 277 277 277 277
294 292 291 285 284 287 286 286 296 296 297 297 297 298 301 301 300 300 299 296 294 293 292 291 290 290 289 287 285 284 283 281 280 280 279 280 278 278 278 277 277 276 276 276 276 275 275 275 275

GFSSGP_sfc_thetae_021.txt.gz
Theta_e
328 326 318 313 299 295 291 295 295 297 296 298 302 301 301 302 301 296 311 318 323 325 327 331 338 339 340 343 343 343 343 343 344 343 342 340 338 338 337 336 336 337 339 340 340 341 341 340 341
319 320 314 306 294 289 292 294 295 297 299 300 302 301 300 299 305 306 306 317 320 322 323 326 336 337 338 337 338 339 338 339 338 338 337 334 334 334 333 332 331 332 334 336 338 337 335 334 336
318 317 306 300 294 290 290 294 296 298 299 299 298 300 299 301 303 306 307 315 316 317 320 325 333 335 335 335 335 336 334 335 335 333 330 328 326 326 326 325 324 325 327 332 331 330 330 329 330
311 307 302 293 291 294 293 294 298 298 298 299 300 296 300 304 306 306 311 314 312 315 318 325 330 331 330 330 331 331 330 333 328 326 324 322 321 321 320 320 320 320 322 324 322 321 321 321 323
307 303 295 291 292 294 294 299 299 298 297 298 299 296 297 302 305 308 311 311 310 311 314 318 326 326 326 326 325 325 326 326 322 320 319 318 318 318 318 318 318 318 319 319 319 318 318 317 317
300 299 291 289 292 295 296 300 299 298 298 297 297 296 298 302 302 303 307 307 309 309 311 314 322 324 323 323 322 321 321 320 319 318 316 316 315 315 315 316 316 316 317 317 317 316 315 315 315
298 297 293 292 294 295 297 299 297 297 297 298 300 296 296 298 301 302 303 304 306 307 307 307 309 315 320 320 319 319 317 316 315 314 312 311 311 310 310 312 313 314 314 314 314 314 314 314 314
300 296 291 291 293 294 297 297 298 298 298 300 301 296 295 299 301 300 298 299 302 303 304 303 305 305 305 308 317 315 313 312 310 309 308 309 308 308 306 307 309 311 311 312 312 312 310 310 310
303 292 289 293 294 295 298 296 298 298 297 298 301 298 299 302 300 297 294 295 297 300 299 301 302 301 302 303 308 311 310 309 307 306 306 304 297 299 300 306 307 308 308 308 308 308 307 306 305
298 292 294 297 295 294 297 297 298 295 295 296 297 297 300 300 298 296 294 294 293 295 296 298 297 299 300 303 301 298 301 299 299 299 298 298 296 298 300 304 304 304 303 303 304 305 302 299 296
298 294 298 299 299 298 297 296 298 296 294 296 298 297 298 296 297 296 296 296 295 294 295 297 296 297 297 297 297 296 296 296 296 296 297 297 296 295 294 294 293 293 297 292 294 294 293 293 294
296 300 301 302 300 298 296 298 297 297 298 301 300 300 299 297 296 296 296 295 294 293 295 296 296 296 294 296 296 295 295 295 295 294 295 294 293 292 292 291 291 290 291 289 290 291 291 291 293
297 298 301 301 300 299 299 298 296 297 299 300 301 299 298 298 297 298 298 297 296 295 294 295 295 295 294 295 295 294 294 294 294 293 293 293 292 290 291 290 290 289 289 289 288 289 290 290 291
298 299 299 299 299 299 298 295 297 298 300 300 300 298 297 298 298 296 295 297 297 297 295 295 295 295 295 294 293 293 293 293 293 292 291 292 291 289 290 289 289 288 288 288 288 288 288 288 289
298 295 296 297 298 297 297 294 295 301 298 298 298 298 297 298 298 298 298 298 299 298 296 294 295 295 295 294 293 293 292 293 292 291 291 291 291 289 289 288 288 287 288 287 287 287 287 287 288
293 291 289 294 296 297 297 291 297 299 297 297 297 296 297 298 299 300 300 299 300 298 295 295 296 295 294 293 292 293 292 291 291 291 290 290 290 289 287 287 287 287 287 286 286 286 286 285 286
289 286 288 292 297 295 294 291 296 298 296 296 295 297 297 297 298 299 300 300 299 298 296 294 294 293 293 292 292 291 290 290 290 290 289 289 289 289 287 286 286 287 286 286 286 285 285 284 284
285 286 289 289 293 292 291 292 296 296 295 295 295 294 296 298 300 300 299 300 300 298 295 294 293 293 292 292 291 290 289 289 288 288 289 289 288 288 286 286 286 286 286 285 285 284 284 284 283
289 288 286 292 295 293 293 294 295 297 295 294 297 298 297 299 302 298 300 300 299 296 294 293 292 292 292 291 290 289 289 288 286 287 288 288 287 287 286 285 285 285 284 284 284 284 283 282 283
291 289 288 292 294 292 291 291 296 295 297 298 297 297 298 299 296 297 296 297 297 294 293 293 292 292 292 292 292 288 288 287 287 287 287 288 287 286 286 285 284 283 283 283 283 283 282 282 282
291 288 289 289 291 290 288 287 290 294 296 297 299 299 300 299 295 295 295 296 295 293 293 292 292 292 292 292 290 287 287 286 285 285 286 286 286 286 285 284 283 283 283 281 282 282 281 280 280
289 292 291 289 286 284 288 283 287 291 292 294 297 297 298 296 295 295 294 295 294 294 293 293 292 291 292 291 290 289 288 287 288 288 286 285 286 285 285 284 283 282 282 282 282 283 281 280 279
291 292 290 287 285 283 285 283 285 291 289 292 295 297 297 296 293 293 294 296 295 294 293 292 291 291 291 290 291 289 288 288 283 283 284 284 284 284 284 283 282 281 281 281 281 281 281 281 280
291 288 287 285 283 280 284 284 284 286 290 291 295 297 297 296 293 294 295 295 293 291 292 291 290 290 290 290 290 289 288 284 282 283 284 284 283 283 282 283 281 281 281 281 281 280 280 280 280
288 285 278 276 275 279 285 282 288 290 291 293 294 295 296 294 293 291 291 292 291 290 290 291 290 289 290 290 289 288 288 285 284 283 284 283 282 281 281 281 280 280 280 280 280 280 279 279 278
286 288 279 273 276 281 281 279 285 293 295 294 295 295 293 293 293 293 293 292 291 291 289 290 289 289 289 289 289 288 287 286 286 284 284 284 283 282 281 281 280 279 279 279 279 278 278 278 279
285 283 289 282 270 274 284 285 289 290 291 291 292 289 291 292 292 292 290 291 290 290 290 290 289 290 289 289 289 288 287 286 285 284 283 283 282 281 280 280 279 278 278 278 277 277 277 278 278
287 288 281 281 274 271 282 282 285 289 291 293 290 290 290 291 291 292 291 291 290 290 290 290 290 289 289 288 288 287 286 286 286 283 282 281 281 280 279 278 277 277 277 277 277 277 277 277 277
283 284 285 284 282 280 278 283 286 288 289 291 291 290 289 290 290 291 292 291 290 289 289 289 289 288 288 287 287 286 285 285 283 283 282 281 280 279 278 277 277 276 276 276 276 276 276 275 276
288 288 288 282 281 281 282 283 295 293 290 291 291 291 291 291 292 291 291 290 288 289 289 288 288 288 288 287 286 285 283 282 282 281 280 279 278 277 277 276 276 276 276 275 275 274 275 274 274

GFSSGP_sfc_thetae_024.txt.gz
Theta_e
322 319 317 311 298 294 290 294 293 295 295 297 301 299 299 300 300 294 310 321 325 327 331 335 341 343 346 346 345 345 345 345 345 343 342 340 339 337 336 335 335 336 338 339 340 339 338 336 338
317 318 312 303 293 288 290 294 295 296 298 299 299 299 297 298 304 306 309 320 324 324 326 331 339 340 341 340 341 342 339 339 341 341 337 335 335 334 332 331 331 332 334 335 336 333 331 331 332
316 315 306 298 291 289 290 293 294 296 297 298 297 299 300 300 303 306 308 318 320 320 323 329 337 339 337 337 339 337 337 337 338 335 333 330 329 328 326 325 325 326 331 330 328 326 325 325 326
309 305 300 293 291 294 293 294 296 296 297 297 297 297 300 303 304 307 310 316 316 316 320 329 336 336 336 335 336 335 335 335 332 329 326 325 323 322 321 321 321 322 322 321 320 319 319 318 319
305 301 294 290 290 293 295 296 297 296 296 297 298 295 296 301 304 307 311 313 313 313 317 323 334 333 332 333 333 332 333 328 326 323 321 321 320 320 320 319 319 320 319 319 318 317 316 316 316
299 297 290 288 290 295 294 298 297 296 296 296 296 294 297 300 304 307 309 309 312 311 313 318 327 329 329 328 328 328 327 324 322 320 319 318 318 318 318 317 317 318 317 317 316 316 316 316 316
297 295 290 290 293 294 296 297 296 296 296 297 297 295 296 297 302 305 306 306 308 310 310 311 315 321 325 326 325 324 322 321 320 318 317 315 314 314 315 314 315 316 315 315 315 314 313 313 313
299 294 289 290 290 293 295 296 296 297 297 298 300 295 296 298 300 302 302 303 304 306 307 306 307 309 311 314 322 321 319 318 317 314 313 312 310 309 310 310 312 314 313 313 312 310 310 309 310
300 290 287 290 292 293 295 294 296 296 296 296 300 296 298 300 299 296 295 299 300 303 304 303 304 304 305 307 312 316 316 314 313 311 311 305 298 299 301 309 309 310 309 309 309 306 305 303 303
297 289 290 295 295 293 295 295 295 294 294 295 297 296 298 299 298 297 294 296 296 299 300 302 301 300 301 306 305 302 303 301 299 299 299 296 295 296 300 304 305 304 304 304 305 303 300 297 293
297 293 296 298 298 297 296 294 297 295 293 296 297 297 297 296 296 296 296 297 299 299 299 300 300 299 299 301 298 296 297 296 297 295 296 295 296 295 293 293 292 292 295 291 293 291 291 291 291
294 298 298 300 299 297 295 296 295 295 300 299 299 298 296 296 296 296 296 295 294 293 296 298 298 298 297 295 297 295 295 294 294 294 295 293 292 291 291 290 290 289 289 288 289 289 290 290 291
296 297 299 300 299 297 297 297 295 295 298 299 299 297 297 297 297 298 298 296 294 293 295 296 295 297 297 294 295 294 294 295 294 293 294 293 291 290 290 289 289 287 288 288 287 288 288 288 289
296 297 298 298 298 297 296 295 296 300 297 298 298 296 296 298 297 297 295 296 295 295 294 295 295 296 295 294 294 295 294 293 293 291 292 293 291 289 289 288 288 287 287 287 287 287 287 287 288
297 294 295 297 297 296 296 293 293 301 296 297 297 296 296 297 298 297 298 297 297 297 295 294 295 295 294 294 294 294 294 294 293 291 291 291 290 289 288 288 287 286 287 287 286 286 286 286 287
292 291 288 293 294 295 295 290 297 298 296 297 296 296 295 297 297 299 299 298 298 297 295 295 296 295 294 294 294 294 293 293 292 291 289 290 290 289 287 287 286 286 286 285 285 285 284 284 284
286 284 285 291 295 294 292 290 297 296 295 295 296 294 297 297 296 299 299 298 298 298 296 294 295 294 294 293 293 293 292 292 291 289 288 288 289 288 287 286 286 286 285 285 285 284 283 283 283
283 283 286 287 291 291 290 291 296 296 294 293 294 294 294 297 300 301 299 299 299 298 297 295 295 294 294 293 291 290 289 289 289 289 288 288 288 288 286 285 285 285 284 284 284 283 283 283 282
286 285 285 289 292 290 290 292 295 298 295 293 294 297 297 294 300 300 297 298 298 297 295 294 293 293 293 291 290 290 290 289 287 287 289 288 287 287 285 285 284 284 283 283 283 283 282 282 282
289 288 288 291 293 289 290 291 294 295 297 298 297 297 297 299 300 301 295 295 297 297 295 294 293 292 293 293 293 291 291 286 289 288 288 288 287 286 285 284 283 283 282 282 282 282 281 281 281
288 287 288 288 289 288 287 288 289 292 296 298 298 299 299 299 299 301 294 294 296 296 294 293 293 292 293 293 291 286 286 285 284 286 287 287 287 286 285 284 283 282 282 281 281 281 281 280 280
287 291 291 289 284 283 286 282 286 289 291 293 295 297 298 299 300 300 293 292 294 296 294 293 293 292 293 292 290 290 289 288 289 289 286 285 286 285 285 284 283 282 282 281 281 282 280 280 279
290 290 288 286 283 282 283 281 285 289 289 291 295 295 297 299 297 297 294 295 295 295 293 293 292 292 292 291 291 290 289 289 285 284 284 284 284 284 284 283 282 281 281 281 281 280 280 280 279
290 287 286 283 282 280 284 283 283 285 289 291 294 296 297 298 300 294 293 293 292 291 292 292 291 291 291 290 290 289 289 285 283 283 284 284 284 283 283 283 281 281 281 281 281 280 280 280 279
288 284 278 276 275 278 284 281 288 288 290 292 293 294 296 297 298 290 291 291 291 290 290 290 290 289 290 289 289 289 289 286 286 285 285 284 283 282 282 282 281 281 280 280 280 279 279 279 279
286 286 279 271 276 281 280 279 285 291 293 293 293 295 295 292 292 292 292 292 290 290 290 290 289 289 289 288 289 289 289 288 287 285 286 285 285 284 283 282 281 280 280 279 279 279 278 278 279
284 282 289 279 268 272 281 285 290 288 290 291 292 292 289 290 291 292 290 290 290 290 290 290 289 290 289 289 289 289 288 288 286 285 285 285 284 284 282 282 280 280 279 279 278 278 277 278 278
286 288 280 280 272 270 279 280 284 289 291 291 290 290 290 290 290 291 290 289 289 289 289 289 289 289 289 289 289 288 287 287 287 284 283 283 283 282 281 280 280 278 278 278 277 277 277 277 277
282 282 283 283 282 279 278 282 293 291 289 288 290 290 290 290 290 291 291 290 289 288 288 288 288 288 288 288 288 288 287 286 286 283 283 282 281 281 280 280 279 278 277 277 276 276 276 276 276
286 286 287 282 281 283 283 283 295 295 295 294 295 291 290 290 291 291 291 291 289 288 288 289 289 288 289 288 287 287 285 284 285 283 282 281 281 280 280 279 278 277 277 276 276 275 276 275 275

GFSSGP_sfc_thetae_027.txt.gz
Theta_e
319 316 314 309 296 293 289 292 292 293 293 296 299 298 298 298 299 293 309 320 325 329 333 338 346 348 347 345 347 347 346 346 345 345 344 342 339 336 335 335 335 337 338 340 340 338 334 334 336
315 316 310 301 292 286 288 293 293 295 296 298 298 297 296 298 304 305 311 320 326 328 330 333 341 347 347 347 346 345 345 344 343 341 339 337 336 334 333 332 332 333 334 334 333 331 329 329 329
313 312 305 296 289 287 289 292 293 295 296 295 296 297 297 299 302 305 311 321 322 323 326 330 339 342 344 340 341 341 340 341 340 337 336 334 332 330 328 326 326 331 330 328 325 323 321 321 322
308 304 298 294 291 294 293 295 294 295 295 297 296 296 300 303 304 307 311 319 318 319 323 331 338 340 339 337 338 337 339 339 337 334 332 330 328 325 323 322 323 324 322 321 320 319 318 318 318
303 299 291 289 289 292 293 295 296 296 294 295 296 294 296 300 303 307 315 317 315 315 319 326 337 339 336 336 337 336 336 335 333 330 327 325 323 323 322 321 321 321 320 319 318 317 318 318 318
298 296 290 287 289 293 295 296 296 294 294 294 295 296 297 298 303 306 311 311 314 314 317 322 331 333 334 335 335 335 334 332 328 325 324 323 322 321 320 320 320 319 319 318 318 318 317 317 315
296 294 289 287 290 293 295 296 294 294 293 296 295 294 297 296 302 306 308 308 310 312 313 316 320 325 329 331 332 333 329 327 324 322 321 320 319 319 318 318 318 318 318 317 315 314 314 313 313
298 294 289 288 289 292 295 294 294 296 296 296 299 295 295 296 302 304 305 305 307 308 310 311 312 316 316 318 325 326 326 324 321 320 319 317 316 316 315 317 317 316 316 314 312 311 310 310 309
297 289 286 289 290 293 294 293 295 295 294 295 299 296 297 298 300 300 299 301 303 306 306 306 308 309 310 311 315 320 322 321 320 317 316 310 300 302 303 311 313 312 312 311 309 307 305 303 303
295 287 289 292 294 292 294 294 294 297 292 294 296 295 297 298 299 299 297 300 300 302 303 304 304 304 305 309 308 307 308 306 304 302 301 297 296 297 301 306 309 308 307 308 306 303 300 295 291
296 292 294 296 298 296 295 293 296 293 293 295 296 297 296 295 296 299 300 301 302 303 302 303 303 301 302 303 302 300 299 298 297 297 294 294 295 297 295 294 292 291 295 290 292 290 290 290 290
293 297 296 298 299 296 294 295 294 294 299 298 298 296 296 295 296 298 298 299 299 298 301 301 301 300 299 299 299 297 296 295 294 294 294 293 293 291 290 290 289 288 288 288 288 288 288 288 289
294 296 298 298 298 297 296 296 295 295 298 298 297 296 296 296 297 298 299 298 297 298 299 299 299 299 299 296 296 295 295 296 294 293 294 293 291 290 289 289 288 287 287 287 286 287 287 287 288
294 296 296 297 297 297 296 295 294 300 297 297 296 296 295 296 297 296 295 296 294 296 297 298 298 299 298 296 296 296 294 294 293 292 293 292 291 289 289 288 287 286 286 286 286 286 285 285 287
296 293 293 294 296 295 295 293 292 299 295 297 296 296 295 296 296 296 298 298 297 296 296 295 297 297 297 295 295 294 294 294 293 292 291 292 290 289 288 287 286 286 286 286 286 285 285 285 286
290 289 286 291 293 293 294 289 295 296 295 296 296 294 294 296 297 299 299 299 298 297 295 295 297 296 296 295 294 294 294 294 293 291 290 291 290 289 287 287 286 286 285 285 284 284 283 283 283
284 282 284 288 294 293 291 289 294 295 293 294 294 295 295 295 295 297 299 299 298 297 296 294 295 295 295 295 294 293 293 293 293 290 289 289 289 288 287 286 285 285 284 284 285 283 283 282 282
282 282 284 284 289 289 288 289 294 296 293 294 294 294 295 296 298 300 298 299 299 297 297 295 294 295 294 294 292 291 291 292 290 291 290 288 289 288 286 285 285 285 284 283 283 282 282 282 281
284 283 284 288 291 288 289 291 293 296 295 292 294 296 298 298 302 301 298 297 297 296 296 295 293 294 294 292 290 290 291 290 289 290 290 288 288 287 286 285 284 284 283 283 282 282 281 281 281
287 286 286 290 292 287 289 289 292 294 295 297 298 298 297 299 299 300 295 294 295 295 296 295 294 294 294 294 294 293 293 289 291 289 289 288 287 286 285 285 284 283 282 282 282 282 280 281 280
285 284 287 286 288 287 285 287 289 292 294 297 298 299 299 298 298 299 297 292 295 295 295 295 294 293 294 294 293 286 286 285 285 286 287 287 287 286 285 284 284 283 282 281 281 281 281 280 280
286 289 289 287 284 282 285 280 285 288 289 291 294 296 296 297 298 298 298 292 292 295 296 295 294 293 294 293 292 291 290 289 288 290 288 287 286 285 285 284 283 283 282 281 281 281 280 280 279
287 288 287 284 282 281 281 279 284 287 286 290 294 295 296 297 296 297 298 295 293 294 294 294 293 292 293 292 292 291 291 291 287 285 284 286 285 285 284 284 282 282 282 281 281 280 280 280 279
289 285 284 282 281 278 283 282 284 284 287 289 291 293 295 296 296 296 295 293 292 291 292 292 291 291 292 291 291 291 290 287 285 285 285 285 285 284 284 283 282 281 281 281 281 280 280 280 279
286 283 277 275 274 279 281 280 287 288 289 291 292 294 294 293 293 294 292 291 292 290 290 290 290 290 291 290 290 290 290 288 288 285 286 284 284 283 283 283 281 281 280 280 280 280 280 279 279
285 285 278 271 277 282 280 279 288 290 291 291 290 291 292 292 293 293 292 292 290 289 288 290 289 289 290 289 290 290 290 289 288 286 287 286 285 285 284 283 282 280 280 280 280 280 279 279 279
282 281 286 280 268 272 282 284 291 290 289 288 290 289 290 290 290 290 290 290 289 288 288 288 288 290 289 289 289 289 289 289 287 286 286 286 285 285 283 283 282 281 280 280 279 279 278 278 279
285 285 280 278 271 270 278 279 283 288 290 291 290 291 290 290 290 289 290 290 289 288 287 287 288 289 288 288 289 289 288 288 287 285 285 285 285 284 282 283 282 281 280 280 279 278 278 278 277
281 282 283 283 282 279 277 281 292 292 292 289 288 289 290 290 290 292 291 291 289 287 287 286 287 288 287 288 288 288 288 288 287 285 285 285 284 283 283 282 281 281 280 279 278 278 277 277 276
285 285 285 281 280 282 282 283 295 295 296 295 295 296 295 292 291 289 290 290 290 288 287 286 286 288 289 289 288 287 288 287 286 286 284 285 283 283 283 282 281 280 280 279 278 277 277 276 276

GFSSGP_sfc_thetae_030.txt.gz
Theta_e
319 315 312 307 294 292 288 291 292 292 294 297 297 297 298 297 298 292 308 321 324 328 333 340 347 348 349 348 347 348 348 347 346 346 345 343 340 337 336 336 337 338 341 341 339 335 333 332 333
313 313 308 300 291 284 285 293 293 294 295 297 298 297 298 298 302 305 309 320 326 329 332 335 345 348 348 348 348 348 347 346 346 344 341 340 338 336 335 334 334 335 335 334 333 331 328 327 329
312 310 303 295 287 284 287 291 292 294 295 295 298 300 299 298 302 305 312 319 324 326 329 332 341 348 348 348 348 347 346 345 343 340 337 336 335 334 331 329 333 334 332 329 325 323 321 321 322
306 303 297 293 289 292 292 294 292 293 297 295 299 296 298 301 303 305 311 320 321 322 325 333 340 343 346 342 344 344 340 342 339 336 335 335 333 329 327 325 329 326 324 323 321 319 319 319 319
302 297 289 287 288 291 293 295 294 294 293 294 296 294 295 299 303 306 315 319 319 318 321 327 339 341 342 340 338 338 338 338 336 334 333 331 328 325 323 323 323 323 322 320 319 319 320 319 318
297 295 289 285 287 292 294 295 294 293 293 293 295 295 296 298 301 306 313 314 316 316 318 323 332 337 338 337 338 338 337 336 334 333 329 326 324 323 322 322 322 321 320 320 320 318 318 317 316
295 293 288 286 288 291 294 293 292 292 293 295 298 295 296 297 301 307 310 310 312 314 316 318 323 328 331 332 336 336 335 334 331 328 326 324 323 322 320 321 320 320 320 318 316 316 315 315 313
297 294 287 287 287 290 293 293 293 294 296 295 297 294 295 298 303 305 306 307 308 310 313 314 316 320 321 325 330 330 332 331 328 326 325 323 322 321 320 320 319 319 318 315 314 312 312 310 309
295 289 285 288 288 291 293 292 294 295 296 295 298 296 297 298 302 302 301 302 304 307 308 310 312 313 314 314 318 325 326 325 324 322 319 313 305 306 306 312 318 317 315 313 311 309 306 305 304
295 287 288 291 291 292 293 293 296 296 295 293 295 297 296 298 300 301 300 303 302 304 305 306 308 309 309 312 311 311 313 311 309 307 304 300 299 300 303 310 315 314 312 310 308 305 301 295 289
294 291 292 294 294 295 294 293 294 292 293 295 296 297 296 296 298 301 301 304 306 306 305 305 305 305 306 307 306 304 304 303 301 300 297 295 296 298 298 297 295 294 298 292 293 290 289 288 288
293 296 295 297 297 295 293 295 293 294 300 299 298 297 295 295 296 300 301 301 301 301 304 304 304 304 303 303 304 302 301 298 297 296 294 292 293 293 293 291 289 288 288 287 287 287 287 288 288
293 295 297 297 297 296 296 296 295 293 298 297 296 296 296 295 296 298 301 301 300 300 302 302 303 304 303 301 301 299 298 298 295 294 293 292 292 290 290 288 287 286 287 286 286 286 286 286 287
293 294 295 295 296 296 295 297 294 297 296 297 296 295 295 295 297 296 295 298 297 300 301 301 302 303 302 302 300 300 298 296 294 292 293 292 292 289 289 287 287 286 286 286 286 285 285 285 286
294 292 292 292 293 293 294 292 291 299 294 296 295 294 295 294 295 296 299 298 299 298 300 299 300 302 300 301 299 299 297 295 294 293 292 292 291 289 288 287 286 285 285 286 285 284 284 284 285
287 288 285 289 292 292 293 287 295 295 293 294 294 293 293 295 296 297 299 299 298 297 295 297 301 300 299 299 298 298 296 295 295 293 292 292 291 289 287 287 286 285 285 284 284 283 283 283 283
283 281 283 286 292 291 290 287 293 294 291 293 294 294 295 296 295 296 298 299 298 298 297 295 297 298 298 298 296 295 294 294 294 292 291 291 291 289 288 287 285 285 284 284 284 282 282 281 282
282 280 283 283 288 287 287 288 292 296 292 295 296 296 295 296 299 302 296 297 298 297 297 295 295 297 297 297 295 292 292 293 292 292 291 290 291 289 287 286 285 285 283 283 283 282 282 281 281
283 282 281 286 290 286 288 289 291 294 294 295 295 296 296 298 301 301 298 295 295 295 295 295 293 295 295 294 292 291 292 291 291 292 291 290 290 288 287 286 285 284 283 283 282 281 281 281 280
286 285 285 288 291 286 287 287 291 293 294 295 296 297 297 297 298 299 296 293 294 296 295 295 294 294 294 295 295 294 294 292 292 291 290 290 289 288 287 286 284 284 282 282 281 282 280 281 279
284 283 285 284 286 286 284 284 286 290 292 295 296 297 298 297 298 299 296 293 292 292 293 295 295 294 294 295 294 286 286 285 286 286 288 289 288 288 287 285 285 284 283 282 281 281 281 280 279
285 288 287 286 282 279 285 279 283 291 291 290 293 294 293 293 295 296 295 294 291 293 293 295 295 294 293 294 293 292 292 290 290 291 290 289 288 287 286 285 285 284 283 281 281 281 280 280 279
286 287 286 283 281 279 279 278 283 285 285 289 291 292 292 294 293 293 294 294 294 293 292 294 294 294 293 293 293 292 292 293 289 291 289 287 287 287 285 285 284 283 283 282 281 280 280 280 279
288 285 284 281 280 277 282 281 282 283 287 287 289 292 293 293 293 292 292 292 292 291 291 291 291 292 292 292 293 291 292 291 287 287 287 286 286 286 285 285 284 283 283 281 281 281 280 280 280
285 282 277 275 274 278 280 279 286 287 290 290 293 293 291 291 291 291 291 292 291 290 290 289 289 290 290 291 292 291 292 290 288 287 287 286 285 285 284 284 283 282 282 282 281 281 280 280 279
283 283 277 271 273 281 279 280 286 289 291 291 289 289 290 291 290 290 290 290 291 290 289 288 288 288 288 289 290 290 291 290 289 287 288 287 287 287 286 284 284 283 282 282 281 281 281 280 280
282 281 285 279 271 272 282 285 291 290 289 287 289 288 290 289 290 290 290 290 291 290 288 287 287 287 287 287 289 289 290 289 288 286 286 286 286 286 284 284 283 282 282 281 281 281 280 280 280
285 285 279 278 274 270 279 279 284 288 289 290 289 289 289 290 294 299 294 292 290 290 288 287 286 287 286 286 288 289 288 289 288 285 285 285 285 285 283 283 283 282 281 281 281 280 280 280 279
281 282 282 282 282 278 277 281 292 289 289 288 292 294 291 292 293 293 290 290 290 289 287 286 285 286 286 286 287 287 287 288 286 285 285 286 285 285 283 284 283 282 281 281 281 280 279 279 278
288 288 288 282 279 280 282 281 294 294 293 292 293 295 295 290 288 288 289 289 290 290 290 287 286 286 286 287 286 286 287 285 285 286 286 285 285 285 284 284 283 282 282 281 281 280 279 278 277

GFSSGP_sfc_thetae_033.txt.gz
Theta_e
319 317 315 311 299 297 293 295 298 298 299 301 301 302 302 303 302 298 313 325 326 331 336 344 347 350 351 350 349 349 349 348 347 347 345 344 341 338 337 338 339 341 342 340 337 335 333 333 333
315 315 311 303 294 289 289 296 298 299 301 301 302 302 302 302 306 310 316 322 328 333 338 343 345 349 350 349 349 350 350 348 347 347 345 342 339 336 335 335 336 338 337 336 334 330 327 327 328
314 311 306 297 290 288 289 296 298 300 300 302 302 303 303 304 307 310 316 325 330 333 337 340 344 348 350 349 348 349 349 348 347 345 341 338 337 335 334 332 335 336 334 330 327 323 322 322 322
309 305 300 296 292 295 295 299 298 299 300 300 302 300 302 307 309 311 316 324 329 332 335 339 344 348 349 348 349 348 348 347 345 340 338 337 335 333 330 332 331 329 327 325 322 321 321 320 320
304 300 292 291 291 294 296 298 299 298 299 300 301 300 300 307 307 310 318 324 328 329 331 336 341 344 347 348 347 346 343 342 339 338 336 335 333 329 325 328 326 325 323 322 321 322 320 320 319
300 298 292 289 290 294 296 298 298 298 299 299 299 300 302 304 306 310 318 322 325 326 327 331 335 338 340 341 341 339 340 340 338 337 335 333 329 326 324 325 323 323 322 322 322 321 319 318 317
298 295 291 290 291 294 297 298 297 298 298 299 301 300 303 303 305 311 317 319 321 323 324 327 333 335 333 335 336 337 338 339 337 335 333 330 326 324 324 323 322 322 322 321 319 318 318 316 314
299 296 292 291 291 292 297 297 298 298 300 300 302 299 301 304 306 311 313 315 316 318 321 324 327 330 331 332 330 333 335 336 334 332 329 326 325 324 324 323 323 321 320 318 317 316 314 312 310
299 292 288 291 290 293 296 296 298 299 299 299 300 301 302 302 306 308 310 310 312 313 316 319 323 325 326 328 327 328 330 331 328 326 323 320 318 318 318 317 322 320 317 315 313 312 309 307 306
297 290 291 293 293 294 296 296 298 297 297 297 299 300 300 302 304 306 307 310 310 311 312 315 318 320 321 321 324 325 323 325 322 319 316 312 311 311 310 314 319 318 315 312 310 307 302 296 296
296 293 294 295 294 296 296 295 298 296 296 298 298 301 299 299 302 304 306 309 311 313 312 311 314 316 317 318 318 318 318 317 315 313 309 308 306 308 309 309 307 306 304 302 300 296 295 295 295
294 296 296 298 297 296 295 297 296 296 302 302 300 302 299 298 299 302 305 307 308 308 310 311 311 313 313 314 314 314 313 312 310 309 305 304 303 304 304 303 302 301 299 296 295 295 294 294 293
294 295 297 298 297 297 296 296 296 295 299 301 298 297 298 298 299 301 305 307 306 306 308 309 310 312 312 310 312 311 311 309 308 305 303 301 301 302 301 299 296 295 294 294 293 293 293 293 292
294 295 295 296 296 296 296 297 296 297 299 298 297 298 297 297 299 299 299 302 303 305 306 307 308 310 310 310 309 310 309 308 305 303 301 299 299 300 299 295 293 293 293 293 293 292 292 292 292
294 292 292 292 294 294 295 293 291 299 296 297 297 297 296 297 297 298 301 301 303 304 305 305 307 309 308 309 308 309 307 304 304 302 300 298 297 297 297 294 292 292 292 292 291 291 291 291 290
289 289 286 290 292 292 294 288 295 295 294 295 295 295 295 297 297 299 300 300 301 302 302 304 305 306 307 308 308 308 306 304 303 301 299 297 297 296 294 293 292 291 291 291 291 290 289 290 290
285 283 283 287 292 291 292 288 294 294 293 294 295 297 298 299 300 298 299 300 300 301 300 301 303 304 305 307 307 306 304 303 302 300 298 297 296 295 294 293 292 291 290 290 290 288 289 289 289
283 281 283 284 290 288 288 289 293 294 293 294 296 297 298 299 300 301 300 299 299 299 300 300 300 303 303 304 304 303 301 302 300 299 297 296 296 294 294 293 291 290 289 289 289 288 288 289 288
284 283 282 285 290 287 289 289 291 294 293 294 296 296 296 297 300 301 300 300 298 298 298 297 296 299 300 301 299 298 297 298 297 298 297 296 296 294 293 292 291 289 289 289 289 288 287 287 287
286 285 284 288 290 286 286 287 292 293 294 295 296 296 295 296 297 298 298 298 297 298 297 297 296 297 298 300 300 301 300 299 298 297 296 296 295 294 293 292 290 289 288 288 288 287 286 287 286
284 283 285 284 286 286 285 285 287 291 292 293 295 296 296 296 296 297 296 297 297 296 296 296 297 296 297 299 299 292 294 293 294 294 293 293 294 293 293 292 291 289 289 288 287 288 288 286 285
284 287 287 285 283 280 285 279 287 293 292 293 292 292 293 293 294 295 295 296 296 296 297 296 296 296 296 297 296 295 296 293 294 295 294 293 293 292 293 291 290 289 289 288 287 287 288 287 285
286 287 285 284 282 281 281 279 283 286 289 290 292 294 294 295 294 294 294 295 295 296 296 295 295 295 296 295 296 295 295 296 294 295 293 293 292 292 291 290 289 289 288 288 287 286 286 287 286
287 285 284 282 281 276 282 281 282 285 287 289 291 293 292 293 293 293 293 293 295 294 294 294 294 294 294 294 295 294 294 295 291 292 291 291 291 290 290 289 289 288 287 287 286 287 287 286 286
286 283 278 277 275 279 281 279 286 288 292 290 291 292 292 292 291 292 295 295 296 295 294 293 292 292 292 292 293 294 293 294 291 291 291 289 289 289 288 288 288 287 287 287 286 285 285 285 285
285 285 281 274 274 282 279 279 285 290 291 290 290 290 291 294 293 293 293 292 293 292 293 291 290 290 290 291 291 293 293 293 292 290 291 290 290 290 290 288 288 287 286 286 286 285 285 285 285
284 282 286 281 271 274 283 287 290 289 289 290 289 290 291 291 290 289 289 290 290 290 290 290 289 289 289 289 290 290 291 292 291 290 290 290 290 290 290 288 288 287 286 285 285 285 284 284 284
286 287 281 280 275 275 281 282 284 288 290 289 290 286 287 288 288 288 288 287 288 288 289 290 290 289 288 288 288 289 290 290 291 288 288 289 289 289 288 287 287 286 285 285 285 284 284 283 283
287 283 283 283 282 278 277 281 288 288 286 285 287 288 286 286 286 286 287 288 288 288 288 288 288 288 288 289 289 288 288 288 289 287 287 288 288 287 286 286 286 285 284 284 284 284 283 282 282
288 287 287 282 280 282 282 281 293 290 287 285 284 284 284 284 284 285 285 286 287 286 287 287 287 288 287 287 288 287 288 287 287 287 287 287 286 286 286 286 285 285 284 284 283 283 282 282 281

GFSSGP_sfc_thetae_036.txt.gz
Theta_e
323 324 327 322 305 304 299 301 305 304 304 306 308 308 307 308 305 302 320 330 331 332 338 346 349 351 351 351 350 349 349 349 349 348 345 343 341 340 339 340 342 343 342 340 338 335 334 333 333
322 321 323 316 301 296 298 303 303 306 306 307 307 307 307 306 312 315 321 330 332 333 338 344 346 350 351 350 350 349 349 349 347 347 345 343 339 337 338 337 338 339 338 337 334 330 328 329 326
319 318 313 307 302 297 298 303 304 305 306 307 307 309 309 309 312 317 323 329 332 334 337 340 344 349 351 350 350 350 350 349 348 347 345 341 339 335 336 334 336 337 335 332 328 324 323 323 323
319 317 312 302 298 301 301 304 305 306 306 307 308 306 310 313 314 317 325 330 332 335 338 341 345 348 350 349 349 349 350 349 349 346 340 339 337 335 332 333 335 333 329 326 323 322 321 321 320
318 313 302 299 298 301 304 305 305 304 305 306 306 306 307 311 314 316 326 329 332 335 339 342 344 347 349 349 348 349 349 348 347 342 339 338 336 333 328 332 328 326 324 323 323 323 321 320 319
310 310 299 297 298 302 304 306 305 305 306 305 305 306 309 312 312 317 325 329 334 335 338 341 338 340 345 346 347 347 346 343 342 341 337 336 334 330 327 328 325 324 322 323 323 320 319 318 316
305 304 299 298 299 301 304 305 304 305 305 306 308 305 310 310 313 317 323 329 333 335 337 339 341 340 335 339 340 340 340 340 340 339 337 334 332 328 326 325 324 323 323 323 320 319 318 316 314
311 307 299 300 299 299 304 304 305 305 305 307 309 305 307 312 312 318 322 327 330 333 335 336 339 341 341 341 331 333 335 336 337 336 333 330 328 327 326 325 325 323 322 320 319 317 315 313 310
307 302 298 299 298 301 304 303 305 306 306 306 308 309 311 310 313 317 320 323 325 327 331 333 335 337 339 339 335 329 331 332 332 331 327 323 326 324 322 322 324 323 320 318 317 314 311 309 306
306 301 300 303 303 302 304 303 305 304 305 306 306 310 309 309 312 314 316 318 321 323 325 329 331 333 336 334 336 335 333 333 332 330 329 326 324 323 320 318 322 321 318 315 313 309 303 300 302
305 300 304 302 303 303 302 303 305 304 302 306 306 309 311 308 310 311 314 317 320 322 324 324 327 330 332 332 332 332 332 331 329 329 327 324 320 319 318 319 319 318 313 312 309 303 302 301 302
301 304 304 304 303 303 302 304 303 304 305 309 310 311 310 308 309 310 312 314 317 319 322 323 324 326 329 331 329 329 328 328 327 327 324 320 318 317 316 316 316 315 312 309 304 302 301 300 300
301 303 304 305 304 303 304 303 303 304 307 309 309 307 307 308 309 311 312 314 316 316 319 321 322 324 326 327 328 327 327 327 326 325 321 319 316 314 313 313 313 312 309 305 301 301 300 299 298
301 301 302 302 302 303 300 302 301 303 307 306 306 306 308 307 308 309 309 309 311 314 316 319 320 321 323 324 325 325 325 325 324 322 319 316 315 312 311 311 309 308 305 302 301 300 299 299 299
301 298 300 301 300 300 301 298 298 304 305 303 305 306 307 307 307 307 309 309 310 312 314 315 317 319 320 321 323 323 323 322 321 319 318 314 312 310 308 308 307 304 301 300 299 298 298 297 297
297 296 293 299 297 299 300 294 301 304 301 302 304 305 306 307 307 308 309 309 310 311 311 313 313 315 318 319 321 320 320 319 318 318 315 313 309 308 306 305 304 301 299 299 298 297 296 297 296
296 292 293 294 298 297 298 295 301 302 301 301 303 304 304 305 307 309 309 309 310 310 310 310 312 313 315 317 318 319 318 317 316 316 314 311 309 306 304 304 303 300 298 297 297 297 297 296 295
293 291 292 291 298 296 294 294 298 301 300 300 302 303 304 304 305 307 308 309 309 309 309 310 310 311 312 314 315 316 315 315 315 314 312 310 307 304 303 302 302 299 297 297 297 296 296 296 295
294 292 292 295 298 294 294 295 297 299 300 300 301 302 303 304 306 306 307 308 308 308 307 307 307 308 309 310 310 311 311 312 311 312 311 309 307 304 302 302 300 298 297 297 296 296 294 294 295
293 291 292 295 296 293 294 293 296 299 299 300 301 303 303 303 305 305 305 306 306 306 306 306 305 306 307 308 309 310 309 310 310 310 309 308 306 304 302 300 299 297 297 296 295 295 293 294 294
293 290 292 292 294 294 292 293 295 299 299 300 302 302 302 301 301 302 304 305 306 305 305 305 305 305 304 306 307 307 307 305 306 306 306 306 305 304 301 301 300 298 297 296 296 295 294 293 292
290 296 293 291 289 287 293 286 295 299 299 299 301 300 300 301 301 302 302 302 302 302 304 303 303 303 303 303 304 304 302 301 302 303 304 304 303 302 301 300 300 298 297 296 296 296 296 296 292
291 293 291 290 289 288 290 286 294 294 295 296 298 299 300 300 300 300 300 300 300 301 300 301 301 301 302 301 302 302 302 303 304 303 302 302 300 301 301 300 299 298 297 297 296 295 295 296 296
293 292 291 289 288 284 291 288 291 293 294 297 297 297 297 297 296 296 296 296 296 297 297 297 297 297 299 300 301 301 300 301 300 301 299 299 299 298 299 299 298 298 296 296 296 295 295 294 295
291 289 285 286 284 285 288 286 290 296 296 294 294 293 294 294 293 292 292 292 293 293 294 294 294 294 296 297 298 299 299 300 299 300 299 299 297 297 297 298 297 297 296 296 295 294 294 294 293
289 290 286 280 283 287 289 285 291 297 295 294 294 294 294 293 293 293 292 292 292 292 292 292 293 292 292 294 294 296 297 297 298 299 299 298 298 298 298 297 297 296 296 295 294 294 293 294 293
289 287 294 286 287 282 287 292 295 294 293 293 293 293 291 291 291 291 292 292 292 291 291 291 291 292 291 291 293 294 294 295 296 297 297 297 298 297 297 297 295 295 295 294 294 292 292 292 292
290 292 284 285 278 278 284 287 288 290 292 292 291 289 289 289 289 289 289 290 291 292 292 292 292 291 291 290 291 292 292 293 294 294 295 295 296 296 295 295 294 295 294 293 293 292 292 291 291
287 286 287 287 285 280 279 285 292 290 288 288 288 287 287 287 287 287 288 289 290 291 291 291 291 290 290 290 290 291 291 291 292 292 293 294 295 295 294 294 293 293 293 292 291 291 291 289 289
294 291 291 284 282 284 283 283 295 290 287 287 285 285 286 286 286 286 287 288 288 289 289 289 289 289 289 289 289 289 290 290 290 290 291 292 292 293 293 292 292 291 291 291 289 289 289 288 287

GFSSGP_sfc_thetae_042.txt.gz
Theta_e
328 324 320 316 303 301 296 299 301 304 302 304 305 303 301 303 301 299 317 326 328 333 342 347 349 352 352 352 351 351 351 349 349 350 350 348 345 344 345 345 346 345 344 341 338 337 336 335 332
320 320 317 310 298 293 294 299 301 303 304 304 304 303 302 301 309 314 316 328 328 332 342 344 347 351 352 351 350 350 351 351 350 349 347 344 342 340 339 341 343 342 341 338 335 332 332 328 328
320 319 309 303 298 293 294 300 300 303 305 302 302 304 303 305 309 313 322 328 327 329 341 344 347 351 351 351 350 350 350 351 351 347 346 344 341 339 336 336 338 339 336 333 330 328 326 325 324
316 313 308 297 296 297 297 300 303 303 304 304 303 301 305 310 311 317 323 328 325 328 337 342 347 351 351 350 350 350 351 350 350 348 346 343 339 335 334 334 338 336 333 329 326 325 323 322 321
314 309 298 296 297 297 298 302 302 302 302 302 303 300 302 309 315 318 323 327 325 327 331 342 345 349 350 350 350 349 350 350 350 349 346 343 341 335 332 334 334 333 329 325 325 323 322 321 319
306 304 296 294 297 299 300 304 302 302 302 302 299 300 302 310 312 313 323 324 326 327 330 340 339 343 346 348 349 348 349 349 349 348 344 341 339 335 332 332 331 328 325 324 324 323 321 319 317
304 301 296 296 297 298 301 304 298 301 301 301 303 299 305 306 311 314 317 323 325 327 330 333 338 339 338 342 344 345 347 347 347 344 343 340 336 334 332 332 328 326 324 325 323 322 319 317 315
306 302 296 295 296 297 301 301 302 300 301 304 304 298 299 304 312 313 317 317 323 326 330 331 334 337 339 340 336 339 342 342 342 340 336 333 331 332 329 328 328 325 325 325 322 320 318 315 312
309 297 294 297 297 298 302 298 302 302 300 302 304 302 306 310 312 312 314 316 320 325 327 330 331 334 335 337 337 334 336 335 334 332 329 327 328 326 322 323 326 326 326 323 321 319 316 312 308
302 297 298 301 300 299 301 299 300 299 299 300 301 306 308 310 308 309 311 313 316 319 324 328 329 330 332 336 334 336 334 331 329 329 325 328 326 323 321 319 324 326 324 322 319 317 313 309 299
303 298 302 301 303 303 301 300 301 299 297 300 300 302 304 306 306 307 308 310 313 318 322 326 327 329 329 330 331 334 332 328 327 328 324 325 326 320 315 314 315 313 315 311 311 307 301 298 297
298 302 303 304 304 302 299 302 300 300 300 304 304 305 304 304 303 306 306 308 308 314 319 323 325 327 327 328 328 330 331 330 326 326 324 322 324 317 313 313 313 312 309 307 304 300 298 298 298
299 301 303 303 302 301 303 300 300 300 304 305 305 305 303 303 304 305 306 307 309 309 313 319 322 323 325 326 326 326 326 327 326 328 326 322 323 314 312 311 311 312 308 306 302 298 297 297 296
301 300 300 301 301 301 299 299 298 300 303 303 303 302 302 303 304 304 305 305 307 309 310 316 320 321 323 323 324 324 324 324 324 322 322 322 321 314 311 309 310 310 307 304 300 297 296 296 295
300 295 298 299 300 299 300 295 296 301 301 300 300 300 302 303 304 303 304 305 306 308 310 312 316 320 320 321 323 323 322 322 321 322 322 322 323 314 311 308 308 307 306 302 298 296 296 295 295
296 295 290 297 298 298 296 289 298 299 300 299 300 300 301 303 304 304 304 304 305 304 308 310 313 316 318 318 320 322 321 320 320 320 320 320 319 314 309 307 306 306 303 298 296 294 293 293 292
292 287 290 294 300 297 294 291 298 301 300 299 299 299 301 301 302 303 305 305 305 305 304 307 310 312 315 316 317 319 319 318 318 317 317 317 316 314 308 305 304 304 299 296 295 293 293 291 291
288 289 292 292 297 297 295 293 297 299 299 299 298 299 299 300 301 302 302 303 303 304 304 304 307 310 311 311 313 314 314 315 315 315 314 315 314 312 308 304 302 302 297 294 294 292 292 292 291
293 291 290 294 298 295 294 295 296 299 298 297 298 296 298 299 300 300 300 300 300 300 301 302 302 304 306 306 307 308 308 311 312 312 313 313 311 310 307 303 300 299 295 294 294 292 291 291 291
293 290 289 294 297 294 292 292 296 298 298 297 296 297 297 297 297 297 296 297 297 297 298 298 300 301 302 303 305 306 306 306 308 310 311 311 310 308 306 302 299 298 295 293 293 292 290 290 290
292 290 291 290 292 293 290 288 292 296 296 297 296 296 295 294 293 293 293 293 294 294 295 296 297 298 300 300 301 301 302 302 301 301 304 307 309 307 305 302 299 297 295 294 292 292 291 289 289
288 293 292 290 287 282 290 279 288 293 292 294 293 292 292 292 293 293 293 292 292 293 294 294 295 296 298 298 298 297 297 297 298 299 301 304 306 305 304 303 300 297 296 293 293 293 293 290 289
290 292 290 289 286 284 286 282 287 292 289 290 291 292 291 292 292 292 292 293 293 293 293 293 292 293 295 296 295 295 294 296 297 298 298 299 301 302 303 301 300 297 296 293 292 291 290 292 289
293 290 290 289 286 279 287 285 286 288 289 289 291 292 292 292 291 292 292 292 292 292 291 291 291 291 292 293 294 293 292 292 293 293 294 295 297 298 299 299 298 297 296 293 292 291 291 292 292
289 286 281 280 278 279 289 286 289 291 292 292 292 291 290 289 289 289 289 290 290 291 290 291 290 290 291 291 291 291 291 291 291 291 291 291 293 294 296 296 295 296 296 295 293 291 290 291 291
289 288 280 274 276 280 286 281 289 292 293 293 291 290 289 288 288 288 288 288 289 289 289 289 290 288 289 289 290 291 290 290 290 290 291 291 291 293 294 293 294 295 295 295 293 291 290 290 291
289 286 291 284 280 280 283 288 291 292 291 291 289 287 286 286 287 287 288 288 288 288 288 288 288 288 287 287 288 288 289 288 288 288 288 289 290 292 291 291 291 292 293 293 293 290 289 289 290
288 289 282 284 276 271 279 281 285 288 289 288 286 285 286 285 285 285 286 286 287 287 286 287 287 286 286 286 286 287 287 287 287 286 285 285 286 288 289 289 289 290 290 291 290 290 289 288 290
285 284 285 286 283 277 276 279 289 288 289 286 286 286 285 284 283 284 284 286 286 286 285 284 285 285 284 284 284 284 285 286 285 284 283 283 284 285 286 287 287 287 288 288 288 288 288 287 288
289 288 288 281 278 282 283 282 290 288 287 287 286 286 286 286 284 283 284 283 284 283 283 283 283 284 284 284 283 283 284 284 284 283 282 282 282 283 284 285 285 286 287 287 286 287 289 288 288

GFSSGP_sfc_thetae_045.txt.gz
Theta_e
323 317 316 309 297 294 290 294 296 299 298 300 302 300 298 300 298 296 316 322 334 338 344 347 350 352 353 353 353 352 352 351 350 349 349 348 347 346 346 346 347 345 342 340 338 337 336 333 332
314 318 310 302 292 288 289 294 297 299 300 301 301 300 299 298 307 311 315 324 334 339 343 346 347 351 353 353 352 351 351 351 350 350 349 347 344 342 343 343 344 344 341 338 334 333 330 328 329
316 316 303 297 291 288 289 294 295 299 300 300 299 301 300 302 307 313 319 325 329 338 341 345 346 351 352 352 351 351 351 351 352 350 348 344 341 340 339 337 340 341 338 334 331 328 326 326 325
310 307 301 292 290 293 292 293 297 298 299 300 299 297 302 307 309 315 323 325 324 336 340 343 347 351 351 350 350 350 350 352 351 350 346 344 341 336 335 335 337 337 334 331 327 325 323 322 321
307 300 292 291 291 293 295 299 298 298 298 299 300 297 299 308 314 319 323 324 321 327 336 343 346 349 350 350 350 350 350 351 350 349 347 343 339 337 333 335 337 335 332 327 326 323 322 321 320
300 297 290 288 291 295 296 300 298 298 299 299 297 296 299 307 308 316 322 322 322 325 337 342 340 343 346 348 349 349 349 350 349 349 347 345 341 337 332 333 333 332 329 326 325 323 320 319 318
299 294 290 291 292 295 297 298 296 295 296 298 299 296 300 303 307 313 319 321 322 325 334 338 341 341 339 342 344 345 347 347 348 347 344 342 338 335 333 332 331 329 326 327 324 322 319 317 316
300 296 290 290 291 293 298 298 299 297 297 301 301 295 298 304 310 311 314 318 320 323 326 332 335 338 339 339 337 339 341 343 344 341 338 334 332 332 331 328 330 326 325 326 323 321 318 315 312
302 291 289 291 292 294 298 297 300 300 297 298 302 300 303 307 310 310 311 312 316 321 325 327 331 334 336 336 336 333 336 337 336 335 330 326 326 328 325 323 327 326 327 325 323 320 317 312 308
297 291 292 296 293 295 297 295 295 295 296 296 297 300 306 306 306 308 309 310 312 316 321 326 327 330 333 338 336 334 335 333 332 330 326 324 324 324 321 319 324 326 326 325 322 319 315 308 296
298 293 297 299 300 299 299 298 298 295 294 297 297 299 301 305 305 305 306 309 311 315 319 324 326 327 329 332 329 333 334 330 326 325 323 323 323 321 320 314 316 315 317 313 313 310 304 301 297
294 299 300 301 301 299 298 299 298 298 299 301 300 301 300 300 301 303 304 305 306 312 318 322 325 326 326 328 328 330 329 327 325 324 322 321 320 318 315 311 311 310 308 307 304 301 298 296 296
294 296 299 300 299 298 299 297 298 297 302 303 303 303 300 300 300 300 304 304 305 305 314 319 322 324 326 325 324 327 328 327 325 325 324 320 319 315 312 310 310 308 306 305 302 299 296 295 295
296 296 297 298 298 298 297 296 296 298 299 300 300 299 298 299 300 300 301 302 302 305 307 316 321 322 323 323 323 323 324 325 324 323 324 323 320 315 311 309 309 309 306 304 301 297 295 294 294
297 293 295 296 296 296 297 293 295 299 298 298 298 297 299 300 301 300 302 302 300 303 305 313 318 319 320 320 322 321 322 321 320 320 320 320 318 314 313 308 307 308 305 303 298 295 294 293 293
292 290 287 294 295 296 294 288 296 297 297 297 298 296 298 299 299 299 300 299 301 302 303 307 316 317 317 318 319 321 320 318 318 319 319 318 318 314 310 307 306 306 303 300 296 294 292 292 291
288 283 286 291 297 294 292 288 296 298 297 296 295 296 297 297 297 297 298 298 298 299 301 303 308 313 315 315 317 318 318 317 316 317 316 318 317 313 309 308 305 304 301 297 295 292 291 290 290
285 284 288 288 294 294 292 291 294 296 296 295 294 294 294 293 293 295 296 296 297 297 298 300 301 304 308 310 311 312 313 313 314 314 315 315 316 315 308 304 303 302 298 295 293 292 291 290 289
288 287 286 290 295 291 291 290 293 297 294 293 294 293 292 292 294 294 294 294 294 295 296 296 298 299 301 304 305 306 307 308 310 311 312 312 311 311 308 303 301 300 297 296 293 291 290 289 289
290 287 286 290 293 291 290 289 293 292 291 293 291 291 291 291 291 292 292 292 292 292 293 294 295 296 298 300 299 301 302 301 302 303 307 309 308 308 306 303 300 298 295 293 292 291 289 289 288
289 288 287 288 289 290 286 286 289 291 292 292 291 291 291 290 290 290 290 290 291 291 290 292 293 295 295 296 298 298 298 298 298 298 299 301 306 305 305 303 300 297 295 293 291 291 290 288 288
287 292 291 289 284 281 286 278 285 288 288 289 289 288 288 289 290 291 290 290 290 290 291 291 292 293 294 294 294 293 292 292 294 295 296 298 300 303 303 302 300 298 295 293 291 292 291 289 287
289 291 289 287 284 282 283 280 283 288 286 286 287 288 289 290 290 289 289 290 290 289 289 289 290 291 292 292 292 291 290 291 292 292 292 293 295 297 300 300 299 297 295 292 291 290 289 289 290
291 288 287 285 283 278 284 282 283 285 287 286 288 289 289 288 288 288 289 290 289 289 288 289 289 289 290 291 291 290 289 290 289 290 289 291 292 293 294 295 297 297 296 293 291 290 289 290 290
288 284 279 277 276 278 285 283 286 288 289 289 288 286 286 286 286 286 287 287 288 287 287 289 288 287 288 288 289 289 289 288 288 288 288 288 288 289 290 291 291 293 295 295 292 290 289 289 290
286 286 278 270 275 277 284 280 284 288 289 288 287 286 286 285 286 286 287 287 287 287 287 287 287 287 287 287 287 287 288 288 287 287 287 286 286 288 290 289 290 290 291 293 293 290 289 289 289
287 284 288 281 277 273 281 284 288 288 286 285 284 285 284 284 285 285 285 286 286 285 286 286 287 286 286 285 286 286 286 286 285 284 283 284 285 286 286 287 287 288 288 289 290 290 289 288 288
287 288 281 280 268 268 278 279 281 284 284 284 284 284 284 284 284 283 284 284 284 284 284 285 285 285 285 285 285 286 286 287 286 284 282 282 282 283 283 284 285 285 286 286 286 286 287 286 288
284 283 283 284 280 274 272 277 286 287 285 284 285 285 284 283 282 283 283 283 284 283 283 283 283 284 284 284 283 284 284 284 285 284 284 283 281 282 282 282 283 283 284 284 284 284 285 285 286
288 285 285 281 275 281 279 280 288 287 287 286 286 285 284 283 282 282 283 283 283 283 282 282 283 282 284 283 284 283 283 282 282 282 282 281 281 281 281 282 282 282 282 282 282 283 283 284 285

GFSSGP_sfc_thetae_048.txt.gz
Theta_e
317 312 313 307 296 293 289 292 295 297 296 298 300 298 296 298 297 294 313 322 333 338 345 348 351 353 354 354 354 353 352 351 350 350 349 349 348 347 347 347 347 344 341 340 338 337 334 332 333
312 315 308 299 291 287 288 292 295 297 299 300 299 299 297 296 306 310 315 322 336 339 344 346 347 352 354 354 353 352 352 352 350 349 349 347 345 344 344 345 345 343 340 337 334 333 329 329 330
313 312 302 294 288 286 288 292 293 297 298 298 297 299 298 300 307 310 314 325 335 338 343 345 346 352 353 353 352 351 351 351 351 350 348 345 342 341 341 339 341 340 336 333 331 328 326 324 325
308 305 298 291 288 293 291 293 296 296 298 299 298 299 300 305 307 314 322 327 334 337 342 343 347 351 352 351 351 351 351 351 351 351 348 342 341 339 336 335 338 338 333 331 327 325 323 321 321
304 297 291 289 289 292 293 297 297 296 296 297 298 297 297 307 314 316 321 322 331 333 337 342 346 349 350 350 350 350 350 351 351 349 347 344 341 336 333 335 338 335 333 328 326 323 322 320 319
299 295 288 287 290 293 295 297 296 295 296 297 296 300 297 306 310 316 320 319 326 332 335 341 340 343 346 348 348 348 349 350 350 348 347 344 340 337 332 333 334 333 331 326 325 322 320 318 318
297 292 288 289 289 293 295 297 294 294 293 296 298 295 299 302 307 315 319 319 320 328 334 338 341 340 339 342 343 345 347 348 347 347 345 343 340 338 333 332 332 331 328 327 324 321 318 317 315
298 294 290 289 289 291 297 298 297 295 296 299 300 295 296 302 308 311 316 317 318 322 331 334 337 339 341 341 337 339 341 343 343 343 339 336 334 333 332 329 331 329 326 326 323 321 318 315 312
299 290 287 289 290 292 296 295 297 297 295 295 299 297 300 304 308 309 309 311 314 319 324 329 334 337 339 337 336 334 336 337 337 335 332 328 328 327 325 324 327 328 327 326 323 321 317 312 308
294 288 290 294 293 293 295 294 295 294 296 294 295 299 303 305 307 307 308 308 310 315 320 325 329 333 334 339 336 335 337 337 333 333 329 327 326 323 323 319 324 327 327 327 323 320 316 305 294
296 291 295 297 297 297 296 295 296 293 294 296 296 296 298 303 303 304 305 307 309 312 317 323 327 328 331 335 334 335 331 329 328 328 325 326 324 320 318 315 316 315 318 315 316 312 304 300 296
293 298 298 300 299 297 295 298 296 296 298 301 299 298 298 299 302 302 302 303 306 309 315 320 325 327 328 330 330 332 334 331 327 324 323 323 321 317 314 313 312 311 310 308 306 303 302 296 295
293 294 297 299 298 296 297 296 294 296 300 300 299 299 297 296 296 297 298 300 301 304 310 315 322 325 327 326 325 328 329 329 327 323 321 323 321 317 312 311 310 309 307 305 303 301 298 294 294
294 295 295 297 297 296 295 293 294 297 296 298 298 296 297 297 297 297 297 298 298 300 302 311 320 324 324 324 323 326 325 324 324 323 324 324 323 319 314 309 309 307 306 304 303 300 296 293 293
295 292 294 295 294 294 295 291 293 298 297 297 296 295 296 296 296 295 296 296 297 299 302 308 316 319 321 321 321 321 323 323 322 321 321 323 322 317 311 308 307 307 306 304 301 298 294 292 292
290 289 286 292 293 294 293 288 295 297 294 295 293 293 294 294 294 294 295 295 296 297 299 304 314 316 317 318 319 320 319 321 323 322 321 322 320 317 311 308 307 308 305 303 299 295 293 292 290
287 283 285 290 295 293 290 288 294 298 294 295 291 291 292 291 292 293 293 294 294 296 297 298 300 303 312 315 316 316 315 316 319 320 320 320 318 315 310 308 307 305 304 300 297 293 293 291 290
284 284 285 287 292 292 290 289 293 295 295 292 290 289 290 290 290 292 292 293 293 294 295 296 298 299 302 308 310 311 311 312 315 316 317 318 319 316 313 311 309 306 303 297 294 293 290 290 290
287 285 285 288 293 289 289 289 289 291 290 289 289 288 289 289 291 292 292 291 291 292 293 294 294 295 298 298 301 304 305 306 303 304 306 311 313 314 311 308 306 304 302 299 295 292 291 289 288
288 286 285 289 292 289 288 287 288 289 288 289 288 287 288 288 289 290 290 290 290 290 291 292 293 293 294 296 296 298 298 298 297 298 298 300 304 307 309 307 304 301 300 297 295 293 289 289 288
288 287 286 288 288 287 284 284 285 288 289 289 288 289 289 288 288 288 288 288 289 288 289 290 291 292 292 294 294 295 294 294 294 294 294 295 298 301 302 302 302 300 298 297 295 293 292 291 288
286 290 290 287 284 281 285 279 283 286 286 287 287 286 286 287 288 288 288 287 288 287 288 289 290 291 291 292 291 290 289 289 289 291 291 293 294 294 295 297 298 297 295 295 294 294 293 291 290
288 290 288 286 283 281 282 279 282 286 284 284 285 286 286 287 287 287 287 288 288 287 286 286 288 289 290 290 290 289 288 289 288 289 288 289 291 291 291 292 292 293 295 293 292 293 291 290 292
290 287 287 284 282 277 282 281 281 283 286 285 286 285 286 285 285 286 287 287 286 286 286 286 286 286 287 288 288 287 286 286 285 285 285 286 287 288 288 289 289 290 291 291 291 290 289 289 289
287 285 279 276 276 277 283 280 283 286 287 287 284 283 284 284 284 284 284 285 285 284 285 286 285 284 285 286 286 285 285 285 284 284 283 283 283 285 286 286 287 287 288 289 289 289 288 288 287
285 285 278 270 274 277 282 279 282 285 286 286 285 284 284 283 284 284 285 284 285 285 285 284 284 284 283 284 285 285 286 285 285 283 283 283 283 283 284 284 285 286 286 287 287 288 287 287 287
286 283 286 280 274 273 280 281 285 284 282 283 282 282 282 282 283 284 285 284 285 286 285 285 284 283 283 283 285 285 286 286 285 285 283 283 283 284 284 284 284 284 284 285 285 284 284 285 285
286 288 281 279 269 270 277 279 280 280 280 282 281 281 281 283 283 283 283 284 284 284 284 284 284 283 283 282 282 283 284 285 285 285 284 284 284 283 282 283 283 283 284 283 283 282 283 283 284
284 282 283 283 277 272 270 276 284 285 283 282 282 283 282 282 283 284 283 284 284 283 282 283 284 283 283 283 282 281 282 282 283 282 282 282 282 282 282 282 281 281 282 282 281 281 281 281 282
286 284 284 277 275 280 278 279 286 287 285 285 285 285 283 282 281 281 282 282 282 282 281 281 281 281 282 282 282 281 281 281 280 280 281 281 281 282 281 281 281 281 281 280 279 279 280 280 280

GFSSGP_sfc_thetae_051.txt.gz
Theta_e
315 310 309 305 296 291 288 290 293 295 295 299 299 296 294 296 296 293 311 324 332 334 343 347 351 354 355 354 354 353 353 351 350 350 350 349 349 349 349 347 345 343 341 340 338 336 333 333 334
312 312 306 297 290 285 287 291 293 295 297 298 298 297 297 295 302 308 314 322 334 338 344 346 348 353 354 354 353 353 352 352 350 349 349 347 347 346 346 346 344 342 340 337 335 332 330 329 331
311 308 300 293 286 285 288 291 292 296 297 297 298 301 300 298 304 308 314 323 334 338 343 345 347 352 354 353 353 352 352 352 350 349 348 345 343 342 341 342 342 338 337 334 332 329 327 324 326
306 303 296 290 289 290 290 292 293 294 297 297 299 299 298 304 304 310 318 330 332 335 341 343 348 351 352 352 352 351 351 351 351 350 348 343 340 340 336 336 338 336 335 332 328 325 323 322 323
301 296 290 288 288 290 291 294 294 294 294 296 298 295 296 304 312 318 320 330 330 333 337 341 346 349 350 351 351 351 351 350 351 351 348 345 341 336 333 334 337 334 332 329 326 323 322 321 320
298 293 287 286 288 292 293 296 295 294 293 296 299 298 297 305 311 315 319 323 329 331 335 339 339 343 346 348 349 349 349 350 350 349 347 345 341 337 332 332 333 333 331 327 325 322 319 319 319
295 290 287 286 288 291 293 296 298 295 292 296 302 298 299 305 307 315 317 317 325 330 333 336 340 340 339 342 343 345 347 348 348 347 345 342 340 339 335 334 331 331 330 326 324 321 318 317 316
296 292 288 286 287 289 294 296 295 294 294 299 299 295 297 304 304 313 313 315 316 325 330 332 335 339 339 340 336 338 341 343 343 342 339 335 335 334 332 329 330 330 328 326 323 321 318 315 313
296 288 285 287 289 290 294 294 296 295 293 295 297 299 298 303 306 308 307 312 313 318 326 330 333 338 341 338 335 333 335 336 337 336 332 329 331 330 325 325 328 329 328 326 323 321 318 313 309
293 286 288 291 294 292 294 292 294 294 294 292 294 297 301 305 305 305 306 308 310 314 317 325 329 336 338 338 340 336 335 336 334 333 331 329 327 326 324 320 325 327 326 328 323 321 316 303 292
293 289 292 295 295 295 294 293 294 292 293 295 294 296 298 300 301 302 302 303 305 308 314 320 326 330 335 336 338 337 334 334 334 330 327 325 325 323 321 317 317 315 317 315 316 310 305 299 295
293 296 295 298 298 295 294 295 294 294 297 298 296 296 295 294 294 295 295 296 296 302 308 316 321 325 328 331 335 335 335 331 327 327 323 324 323 321 319 314 313 312 311 309 307 304 303 298 294
292 293 295 298 297 294 295 295 293 295 298 297 296 297 295 295 295 295 296 296 296 296 299 307 319 322 324 325 327 331 333 332 330 324 325 324 322 320 317 315 312 310 308 307 304 302 301 296 293
292 293 294 295 295 295 294 292 293 295 295 294 296 294 293 293 293 293 294 294 295 297 298 302 313 321 323 323 322 323 324 327 326 324 324 324 322 320 317 315 313 312 309 305 304 302 300 296 292
294 291 292 293 293 293 294 290 292 296 295 293 293 292 292 292 292 291 292 293 294 295 298 300 312 318 320 320 320 321 321 321 324 324 323 324 322 320 317 314 310 309 306 304 302 300 296 294 292
288 288 286 291 292 292 292 288 294 295 294 291 291 289 290 291 291 291 291 292 293 294 296 299 305 314 316 318 318 319 319 323 324 324 323 323 322 320 315 312 311 309 307 303 301 298 296 293 291
286 283 284 289 293 291 289 287 294 294 292 290 288 288 289 289 290 290 291 290 291 293 294 296 298 301 311 314 315 315 315 316 317 319 320 322 321 318 316 312 310 309 307 306 303 298 295 293 291
284 283 284 285 290 291 289 289 291 291 291 288 287 287 287 288 288 290 290 290 291 292 293 294 296 296 300 308 308 306 304 303 303 303 306 311 316 317 314 312 310 308 306 303 300 299 294 291 291
286 284 283 286 291 289 289 288 287 289 288 286 286 287 287 287 289 290 290 289 290 290 291 292 292 293 295 296 298 299 298 299 298 298 298 301 305 308 311 309 307 306 304 303 299 296 295 293 289
286 284 284 288 290 288 288 286 286 287 287 287 286 286 286 287 287 288 288 288 288 288 289 290 291 291 292 294 293 295 294 295 295 295 295 295 296 297 301 302 303 302 301 300 298 295 294 292 291
286 285 285 286 287 286 284 284 285 286 287 288 287 287 287 286 286 286 286 286 286 286 287 289 289 290 291 292 292 292 291 290 290 290 290 291 292 292 293 293 295 296 298 297 296 295 294 293 292
285 290 289 287 283 280 284 279 282 284 284 285 285 284 284 285 286 286 286 285 285 285 286 288 288 289 289 290 290 288 287 285 286 287 287 288 289 288 289 290 290 291 292 291 292 295 293 292 290
288 289 287 285 282 280 281 279 280 283 282 282 283 284 284 285 285 284 284 285 285 284 283 284 286 286 287 287 287 286 284 285 284 284 284 284 286 286 286 287 287 287 289 288 289 289 289 289 291
290 286 286 283 281 277 281 282 281 281 283 283 284 284 284 284 283 284 285 284 284 284 283 282 284 285 285 285 285 284 283 282 282 282 282 282 283 284 284 285 285 285 286 286 286 287 287 287 288
286 285 279 276 275 277 281 279 282 284 285 286 284 283 283 283 282 282 282 282 283 283 283 283 282 282 283 284 284 283 282 282 281 281 281 281 281 282 283 284 284 284 284 285 285 285 285 286 286
284 285 279 271 273 276 281 279 282 283 285 286 284 283 283 283 283 283 283 283 282 283 282 282 282 282 282 283 283 283 284 283 283 283 282 282 281 282 283 283 284 284 284 284 284 284 283 284 284
284 282 286 278 276 272 279 281 282 282 281 281 281 281 281 281 282 283 283 283 283 282 282 283 282 283 283 284 284 283 284 284 283 283 283 282 283 284 284 284 283 283 283 284 284 283 282 283 283
286 288 281 279 270 269 276 278 280 279 279 280 280 281 281 281 282 282 282 282 282 283 283 284 284 284 283 282 282 281 282 283 282 281 280 280 281 281 281 281 281 281 281 282 282 281 282 281 282
284 282 282 282 277 271 269 276 283 283 282 281 282 283 282 281 281 281 282 283 284 283 282 282 282 282 282 282 282 281 282 281 281 281 280 280 281 280 280 280 280 280 280 280 279 279 280 280 280
285 284 284 281 277 278 277 279 284 286 285 284 284 284 282 281 281 281 282 282 281 281 280 280 281 281 281 281 281 280 280 280 279 279 280 280 280 281 280 280 280 280 279 279 278 278 278 277 277

GFSSGP_sfc_thetae_057.txt.gz
Theta_e
316 312 310 306 299 296 293 297 298 300 301 304 302 301 301 302 299 298 314 323 331 335 341 350 351 353 353 353 353 353 353 353 352 351 351 350 350 349 347 346 344 341 340 340 336 335 333 336 337
313 312 307 299 293 289 292 295 298 300 302 303 302 303 303 302 306 311 317 325 334 336 344 349 348 352 353 353 353 353 353 353 352 350 350 350 349 349 347 345 343 340 338 337 335 332 329 330 333
312 307 303 294 289 289 292 296 298 300 301 303 303 305 304 306 309 312 318 327 335 339 345 347 347 352 353 353 353 353 352 352 351 350 348 349 346 345 344 343 340 339 337 334 332 330 327 326 329
308 304 298 293 293 295 296 296 298 298 301 302 303 302 305 310 310 315 319 330 335 339 344 345 347 352 353 352 352 352 352 351 351 351 347 344 343 341 339 340 338 337 336 332 330 328 326 324 327
301 298 293 291 293 295 295 298 298 299 300 301 302 302 303 309 317 321 323 332 334 338 342 345 346 349 352 351 352 350 350 349 349 349 348 345 341 338 336 335 338 335 333 331 329 326 324 323 325
299 294 290 289 292 295 296 297 298 298 298 300 301 301 305 308 314 320 327 330 333 336 340 343 339 343 346 349 350 349 349 348 347 346 347 345 342 338 336 335 335 333 332 329 328 324 322 321 323
296 290 288 289 290 293 296 297 297 297 297 300 303 300 305 305 308 320 320 325 331 334 337 340 343 342 336 341 343 346 347 346 346 346 345 343 340 337 336 334 332 330 329 328 326 323 321 319 318
296 293 290 289 290 293 297 298 298 298 299 300 303 298 301 302 309 318 319 319 324 329 333 336 339 341 344 346 335 338 341 342 342 341 338 335 334 333 331 329 331 329 328 327 326 323 321 317 315
297 288 286 289 290 293 297 297 298 299 298 299 300 300 299 303 308 309 311 311 315 317 322 331 335 339 342 343 338 334 336 337 337 336 331 330 336 332 329 326 329 330 327 326 325 323 318 307 303
293 287 289 291 293 294 296 296 297 297 296 297 298 299 298 298 298 298 298 298 299 300 302 309 326 336 338 340 341 341 341 343 343 341 337 334 333 331 326 324 326 327 325 327 325 322 314 304 301
294 290 291 293 295 296 296 295 297 296 295 297 296 294 296 296 296 295 296 296 297 298 301 303 305 324 335 337 339 338 337 338 339 340 338 335 331 327 325 325 323 322 318 321 320 316 313 308 303
292 295 295 297 297 296 295 297 295 296 295 295 295 295 294 293 293 293 294 295 296 297 300 301 304 308 331 335 337 337 336 334 336 334 332 329 327 325 324 322 321 320 319 317 314 313 312 309 303
294 294 295 296 295 295 295 295 294 291 294 295 294 293 292 291 292 293 293 295 295 296 298 300 303 308 324 332 334 335 334 334 332 330 329 329 327 324 322 321 320 319 317 316 314 311 311 309 305
293 293 294 295 295 294 294 293 294 292 294 293 292 290 290 290 290 291 292 292 293 295 297 300 308 312 324 328 329 329 329 330 329 329 328 327 326 327 322 320 318 317 315 313 311 309 311 309 305
293 291 292 293 293 293 294 291 289 292 293 290 289 289 289 289 290 289 290 291 292 294 296 300 310 321 324 324 322 319 316 314 313 315 316 323 324 323 321 319 317 315 313 310 308 306 306 305 303
290 289 288 293 292 293 293 289 290 292 292 288 287 287 288 288 289 289 290 291 292 293 295 300 311 314 311 308 307 306 305 305 305 307 308 310 316 319 318 315 313 312 310 309 308 306 306 304 301
287 285 286 290 293 292 291 290 288 291 289 286 286 286 287 288 288 289 290 290 291 292 294 298 302 305 305 304 302 301 300 299 299 300 300 302 306 311 310 309 309 311 309 307 307 305 302 302 301
285 284 285 286 290 291 289 290 287 288 287 285 285 286 286 287 287 288 289 290 291 292 293 295 298 300 302 301 300 298 296 295 294 293 294 296 297 301 304 304 303 304 303 302 302 301 301 298 297
287 285 285 287 290 289 289 289 287 287 286 285 285 285 286 286 288 288 288 288 289 290 291 292 294 295 297 297 297 294 291 291 289 289 290 290 291 294 295 295 296 299 297 298 298 299 298 299 298
286 284 284 287 289 289 288 287 286 286 285 285 285 285 285 285 286 286 286 286 286 287 288 289 290 291 293 293 292 292 289 287 288 288 288 288 289 289 289 290 290 292 293 293 293 296 297 298 296
284 284 284 286 287 287 285 285 283 284 285 285 286 286 285 285 284 284 284 284 284 284 285 286 287 288 288 290 289 288 287 287 286 286 286 287 288 288 287 288 288 288 288 288 289 291 292 293 296
283 288 287 286 285 282 285 280 283 283 283 284 284 284 284 284 284 283 283 283 283 283 284 285 285 286 286 287 286 285 283 282 283 284 286 286 287 286 287 287 287 287 287 286 287 287 289 291 289
287 288 287 286 284 282 282 280 282 282 281 282 283 283 283 284 283 282 282 283 283 283 283 284 285 285 285 285 285 284 283 284 284 284 285 285 286 286 286 286 286 286 286 286 286 286 287 287 286
288 287 285 283 281 277 282 282 282 280 283 283 283 283 284 283 283 282 283 282 282 282 283 283 284 284 284 284 284 284 283 283 284 284 284 284 284 285 285 285 285 285 285 285 285 285 285 285 285
286 284 279 277 276 278 280 279 283 285 284 285 284 284 284 283 282 282 281 281 281 281 282 283 283 283 284 284 284 284 283 283 283 283 283 283 283 283 283 284 284 284 284 284 285 284 284 285 283
284 284 279 273 274 277 280 278 284 284 284 286 286 285 284 282 282 281 281 281 281 281 281 282 283 282 283 284 284 284 284 284 284 284 283 283 283 283 283 283 283 283 283 283 283 283 282 283 283
284 282 284 277 276 274 280 282 284 283 282 284 284 283 282 282 282 282 282 281 281 281 281 282 282 282 283 283 283 283 283 283 283 283 283 283 283 283 282 282 281 282 282 282 282 281 281 281 281
285 287 281 279 271 269 277 279 282 280 281 281 282 282 282 283 282 282 282 281 281 281 282 282 282 282 282 282 282 282 282 282 282 282 282 282 282 281 281 281 281 280 281 280 280 280 280 279 280
283 283 282 282 278 274 271 277 283 284 284 281 283 284 283 282 282 282 282 282 282 282 282 282 282 281 281 282 282 282 282 281 281 281 281 281 281 280 280 280 280 279 279 279 279 279 279 278 279
284 284 283 279 276 276 276 279 284 285 284 284 283 284 284 284 283 282 282 281 281 281 281 281 281 281 282 282 282 281 281 281 281 280 280 280 279 279 278 278 278 278 278 278 277 277 277 277 277

GFSSGP_sfc_thetae_060.txt.gz
Theta_e
324 320 323 320 307 307 299 301 305 304 304 308 307 306 306 307 304 302 323 333 334 341 348 352 351 354 354 353 353 353 354 353 352 352 351 350 349 348 346 344 342 340 340 338 336 333 333 336 338
320 318 320 313 303 297 298 303 302 304 306 308 308 308 307 306 311 315 322 331 336 341 348 350 348 353 353 353 353 353 353 353 352 351 351 350 349 347 345 343 341 339 337 336 334 331 329 331 334
317 314 314 309 303 297 298 303 304 305 307 307 307 309 309 308 315 317 324 333 338 340 348 351 348 353 353 353 352 352 352 352 350 350 348 347 346 346 344 342 340 338 336 334 333 329 327 327 332
317 315 310 304 298 300 300 302 304 305 307 308 308 306 310 315 317 324 326 334 338 341 347 347 348 351 352 352 352 352 352 350 349 349 347 346 344 342 341 340 338 336 334 333 330 327 326 327 330
315 312 305 301 299 301 303 304 304 304 305 307 307 305 307 314 322 328 330 336 337 341 346 349 347 349 350 351 351 351 350 349 348 347 346 344 342 338 337 339 336 335 332 331 328 325 324 325 328
311 308 301 298 299 301 303 304 304 304 304 306 306 306 307 313 317 327 333 335 339 340 344 347 342 344 345 346 347 347 348 347 347 347 347 344 340 338 337 336 335 334 331 330 327 324 322 322 324
306 304 299 299 299 299 302 304 304 304 303 305 308 303 308 310 316 326 327 334 337 341 343 345 347 346 336 343 342 344 346 346 346 345 344 342 339 338 335 335 332 330 330 329 326 323 320 319 321
308 306 297 298 298 299 303 303 304 304 303 306 308 303 304 308 314 324 326 327 333 337 340 342 343 343 348 349 337 338 341 342 342 342 338 334 334 333 331 330 332 331 329 328 326 323 319 312 313
305 300 297 296 298 300 303 302 304 305 304 305 305 303 303 306 311 314 316 315 316 314 315 321 336 339 342 347 342 335 335 336 337 336 330 330 340 335 331 328 331 329 327 327 326 322 314 306 305
304 300 296 299 301 302 302 302 303 303 303 303 303 304 304 305 306 307 307 307 308 309 310 311 315 329 339 341 345 346 345 346 344 344 343 342 338 332 329 325 327 327 327 327 325 320 313 313 308
302 299 298 299 302 303 302 302 303 302 300 301 300 301 301 303 303 303 304 305 305 307 310 311 312 315 328 338 342 344 345 345 345 343 343 342 336 328 329 328 326 325 321 324 323 323 320 316 312
299 301 301 302 303 302 301 303 301 301 299 300 300 299 300 300 300 300 302 303 304 307 309 312 313 314 321 337 339 340 341 341 343 342 339 339 337 329 328 327 325 324 324 320 318 319 320 317 314
300 301 301 303 302 301 301 301 300 297 299 299 298 298 298 299 299 300 301 303 304 306 309 311 315 318 319 335 337 337 336 335 334 332 333 333 336 330 327 326 324 322 321 319 317 316 319 319 316
301 300 301 302 301 300 299 299 300 297 299 297 297 296 297 296 297 300 300 302 303 305 304 308 316 317 324 333 327 323 321 320 319 318 322 327 328 330 330 324 322 320 318 316 315 314 317 317 315
300 298 300 301 300 299 300 295 295 297 298 296 295 296 295 295 297 297 298 300 302 301 303 306 317 322 316 312 311 311 310 310 309 310 311 316 320 322 320 318 315 313 312 313 314 313 313 315 311
298 298 296 299 298 298 299 296 295 297 297 295 294 295 295 295 295 297 298 300 300 299 302 307 309 307 306 306 305 304 304 304 303 304 305 308 312 313 313 312 312 315 311 311 310 310 310 312 308
296 294 293 296 298 298 298 296 294 296 296 294 294 294 294 294 295 296 297 299 297 298 301 303 305 304 303 302 300 298 298 297 297 299 300 300 303 308 306 305 306 307 305 306 310 309 308 307 306
294 292 292 294 296 297 296 296 293 293 294 294 293 293 293 293 292 294 295 297 297 297 299 301 303 302 301 300 297 295 293 292 292 293 294 296 299 299 299 303 301 302 301 301 302 305 307 305 305
296 294 294 295 295 295 297 297 294 293 292 292 292 293 292 292 292 293 294 296 297 296 296 296 297 299 301 299 296 293 292 294 293 294 294 294 293 294 296 295 298 298 297 299 302 305 304 304 303
294 293 293 294 294 294 295 294 296 292 292 293 292 292 292 292 292 292 293 294 295 295 296 296 296 297 300 300 298 295 293 292 292 292 292 292 293 293 293 293 293 294 294 293 296 298 301 301 301
292 292 293 293 293 294 293 293 293 289 290 290 291 292 291 292 291 291 291 292 294 294 295 295 295 296 295 294 293 292 292 292 291 290 290 291 292 292 292 292 292 292 292 290 291 292 293 291 296
291 294 293 291 291 289 292 289 291 290 288 288 289 290 291 290 289 289 289 290 290 290 291 292 292 292 292 294 294 293 290 288 289 290 290 290 291 290 290 290 291 290 290 290 290 291 290 291 288
294 293 292 291 291 290 289 288 293 288 286 287 289 290 291 290 289 288 288 288 288 290 290 291 290 290 291 292 292 290 289 289 290 290 289 290 289 290 289 289 289 289 289 289 289 289 289 289 288
293 292 291 290 289 284 290 288 291 288 290 290 290 290 290 289 288 287 287 287 287 289 289 290 289 289 290 290 291 290 289 289 289 289 288 288 288 288 288 288 288 288 287 287 287 288 287 287 287
292 291 285 283 282 283 286 285 291 294 291 292 290 290 290 289 287 286 286 286 286 287 288 288 288 287 289 289 289 289 289 289 288 288 288 288 287 287 287 287 287 286 286 286 286 286 286 285 285
290 292 287 281 281 284 284 283 290 289 291 291 293 292 291 289 288 287 286 286 286 286 287 288 288 287 288 289 288 289 289 289 288 288 288 287 287 287 286 286 286 286 285 285 285 285 285 284 285
289 287 292 282 279 283 288 289 291 287 288 289 290 290 289 288 288 287 286 286 286 286 287 288 287 288 288 288 288 288 289 288 288 288 288 287 287 285 285 285 284 284 284 284 284 284 284 284 284
291 293 285 287 281 280 285 286 289 287 288 289 288 289 290 289 288 287 286 286 286 287 287 288 288 287 288 288 288 288 288 287 287 287 286 286 285 284 284 283 283 283 283 283 283 283 283 283 283
287 287 288 289 288 284 282 286 293 294 293 289 290 291 291 289 288 287 287 287 287 287 287 287 287 287 287 287 287 287 286 286 286 286 285 284 284 283 282 282 282 281 281 281 281 281 281 280 281
292 290 290 287 281 284 283 287 289 291 293 293 292 291 292 290 289 288 288 287 286 286 286 286 287 286 287 287 287 286 286 286 285 285 284 283 282 281 280 280 280 279 279 279 279 278 279 278 278

GFSSGP_sfc_thetae_063.txt.gz
Theta_e
327 324 325 322 309 307 300 301 306 304 306 310 310 308 307 309 305 303 326 334 333 343 349 352 352 354 354 353 353 353 352 352 351 350 349 348 348 346 344 342 340 339 338 337 334 332 335 337 340
322 321 322 316 304 299 300 304 303 306 308 310 310 310 308 306 315 319 324 333 334 343 349 349 348 353 353 352 352 352 352 351 351 349 349 348 346 345 344 342 340 338 337 336 333 330 329 333 336
321 318 315 309 304 299 299 304 305 307 309 309 308 312 310 309 316 319 326 334 336 342 348 348 348 352 353 352 352 351 351 350 349 349 348 348 347 345 343 341 339 337 336 334 331 329 328 332 334
319 318 313 304 300 302 303 304 306 306 309 310 310 307 313 318 321 326 329 336 336 340 346 346 349 351 350 351 351 351 351 349 348 347 346 346 344 343 341 339 337 334 334 331 329 327 328 330 332
318 314 305 302 301 303 305 306 307 306 307 308 309 306 309 316 326 330 334 336 337 340 345 350 347 349 349 349 350 350 349 347 347 346 345 344 341 339 339 338 336 333 332 330 327 325 325 327 331
311 310 301 299 301 303 306 307 307 306 307 307 306 307 308 316 320 327 332 335 338 340 344 347 342 343 347 347 347 346 347 346 346 345 345 342 339 339 338 337 334 332 331 329 326 323 322 324 325
307 304 300 301 301 302 304 307 306 305 305 306 309 305 309 310 317 326 328 335 338 341 342 344 345 345 338 342 341 341 345 345 345 344 344 341 339 338 336 334 332 331 330 328 326 322 318 320 320
310 306 299 300 299 300 305 306 307 306 305 309 309 305 306 308 313 324 326 330 334 337 340 339 342 344 347 348 337 338 341 342 341 341 338 334 334 333 332 331 332 330 329 327 325 321 312 313 314
309 301 298 299 299 302 306 304 307 308 306 307 307 306 306 308 313 317 320 318 320 319 320 325 334 338 341 345 340 336 336 336 336 335 331 329 334 333 331 329 331 329 329 327 325 320 313 307 309
306 301 300 302 303 303 305 305 305 304 305 304 305 307 307 308 309 310 311 311 311 312 314 316 319 327 336 340 343 345 344 345 343 343 339 341 338 333 330 326 327 328 328 327 324 320 315 318 312
305 300 301 301 304 306 304 304 306 303 302 304 303 304 305 306 307 307 308 308 309 311 314 315 316 318 326 337 341 344 343 344 344 342 342 341 337 333 331 327 326 325 322 326 325 324 322 318 315
301 303 303 304 304 304 303 305 303 304 303 303 303 303 303 303 304 304 305 307 309 311 313 316 317 317 320 335 338 340 341 342 341 341 340 340 338 334 331 328 326 325 325 322 321 321 322 320 318
302 303 304 305 305 304 304 303 303 302 303 302 302 302 302 302 302 305 306 308 309 311 312 314 318 320 318 334 338 332 327 324 323 323 330 335 337 333 331 328 326 324 322 320 319 319 321 321 319
304 303 303 304 304 303 301 303 301 302 302 301 300 300 300 300 301 303 304 306 308 309 310 314 320 318 322 321 318 316 316 316 315 314 318 323 328 328 326 323 321 319 318 317 316 316 318 319 319
303 300 303 304 304 302 302 299 298 302 302 300 300 300 299 299 300 301 303 306 306 306 308 312 313 316 313 310 310 310 310 309 308 309 311 314 317 317 316 314 312 312 312 312 312 314 316 317 315
300 301 298 303 302 301 301 298 301 301 300 300 300 300 299 298 299 301 303 306 303 304 306 308 308 307 305 305 305 305 305 305 304 305 307 310 310 311 310 309 308 310 311 312 311 309 314 313 311
300 296 298 300 302 300 299 299 300 300 300 300 300 299 299 299 299 300 302 303 300 302 304 305 305 303 301 300 298 299 299 298 299 301 304 304 304 308 307 305 304 304 303 302 304 305 305 306 308
297 296 297 297 300 299 298 298 298 299 299 299 299 298 298 297 297 298 300 301 299 300 303 303 302 300 299 297 296 295 295 297 297 298 299 300 302 300 299 300 301 303 301 302 303 305 306 304 303
299 298 297 299 300 297 298 299 301 298 297 298 298 298 298 297 296 298 300 301 298 299 298 300 301 300 299 297 296 296 295 296 296 296 297 297 297 298 298 299 298 298 297 297 299 304 302 301 302
298 296 296 299 297 296 297 297 301 300 297 298 298 297 297 296 296 296 299 299 297 297 297 297 298 299 298 298 297 296 295 295 294 294 294 294 295 294 295 295 295 295 294 294 294 295 296 296 297
296 295 296 295 296 296 296 294 297 299 297 296 296 298 297 296 295 295 297 299 298 297 297 298 298 299 299 297 296 295 295 294 292 292 292 293 293 293 293 293 293 293 293 291 292 292 292 291 293
293 299 296 295 293 290 296 289 299 298 292 292 293 294 295 295 295 295 295 296 296 295 296 297 297 297 297 298 297 297 293 290 291 291 291 291 292 291 292 292 292 291 291 291 290 291 290 290 288
295 298 295 295 293 293 294 289 295 295 291 292 293 294 295 294 294 293 294 293 293 295 295 295 295 295 295 296 295 293 291 292 291 291 291 290 291 291 290 290 290 290 290 290 290 289 289 289 288
297 294 293 293 293 286 292 291 293 292 293 295 294 294 294 293 293 292 291 291 291 292 293 293 292 292 293 293 293 292 291 291 290 290 290 290 289 289 289 289 289 288 288 288 289 289 288 287 287
296 292 287 284 283 284 291 291 294 298 296 297 293 293 294 293 292 290 288 289 289 290 291 291 290 290 291 292 292 292 291 291 290 290 289 288 288 287 287 288 287 287 286 287 287 287 287 286 286
292 294 288 282 284 287 286 285 291 295 297 295 296 295 294 292 291 289 289 289 289 289 289 289 290 289 290 290 290 291 290 290 290 289 289 288 287 287 287 287 287 286 286 285 286 286 286 285 286
292 290 296 286 282 285 288 291 295 291 291 292 294 294 293 291 290 289 289 289 288 289 289 289 289 290 289 289 290 289 290 289 289 289 289 288 287 286 286 286 285 285 285 285 284 285 285 285 285
294 296 286 288 282 281 288 289 290 288 289 291 292 293 293 292 290 290 289 289 288 289 289 290 290 289 289 289 289 289 289 289 289 288 287 286 286 285 284 284 284 284 283 283 283 283 284 282 283
289 289 291 291 290 286 284 288 297 296 294 291 292 293 294 292 290 290 289 289 288 289 289 289 289 289 289 289 289 289 288 288 288 287 286 286 285 284 283 282 282 282 281 281 281 281 281 280 280
295 292 292 287 284 287 287 289 293 297 298 296 294 294 295 294 292 290 289 289 288 288 288 288 289 288 289 289 289 288 288 287 287 286 285 285 283 282 281 281 280 280 279 279 279 278 278 278 278

GFSSGP_sfc_thetae_069.txt.gz
Theta_e
322 313 314 311 300 294 290 293 296 298 297 299 302 304 303 303 303 297 319 329 344 346 350 351 351 354 353 353 353 352 353 352 351 350 349 347 345 343 342 341 339 338 336 334 333 337 339 341 342
314 317 312 303 294 288 289 294 296 298 300 302 302 301 303 303 313 315 319 328 345 347 350 350 348 352 353 353 352 351 351 350 349 349 348 347 344 342 340 339 337 336 334 333 333 335 337 339 340
317 314 303 298 291 287 290 293 297 299 300 299 300 304 304 306 313 314 323 329 345 346 349 348 348 351 351 351 350 350 349 350 349 348 347 346 344 342 339 337 336 334 332 331 332 333 336 337 337
308 307 302 294 289 293 293 294 299 299 299 302 301 301 308 317 316 318 328 330 338 345 347 345 348 351 350 349 349 349 349 349 348 346 346 345 343 340 338 336 334 332 330 329 330 331 333 334 335
306 300 294 290 289 293 294 298 299 299 298 298 301 299 302 311 321 325 327 332 334 341 344 346 346 348 349 348 348 348 347 347 347 346 345 343 341 340 337 335 333 331 328 326 327 328 329 330 331
300 295 290 288 290 293 295 297 297 297 297 298 301 299 300 307 315 320 328 329 334 341 343 345 340 344 345 346 347 347 347 346 346 345 343 341 342 338 335 334 332 330 328 323 322 323 323 323 324
299 292 288 290 291 293 296 298 295 295 296 296 300 297 297 301 305 317 326 323 323 335 341 343 342 340 339 341 341 343 344 344 345 344 343 341 339 337 335 334 332 330 327 321 318 317 317 316 317
298 293 292 291 291 292 297 298 298 298 296 300 300 296 294 299 304 316 317 316 314 315 319 331 337 338 340 340 335 337 339 340 341 339 336 333 333 333 332 331 332 331 328 324 319 317 316 316 316
299 290 288 291 290 294 297 296 298 299 298 299 300 297 300 302 304 311 311 310 309 310 310 312 315 332 334 340 337 333 334 335 335 333 329 328 330 328 328 327 331 330 328 326 325 323 318 315 316
295 290 291 292 293 294 297 297 297 295 296 296 297 300 302 302 302 302 302 301 302 304 307 309 310 312 323 336 339 338 336 335 336 334 328 330 329 328 326 323 327 328 327 327 325 323 319 313 307
296 291 293 294 298 299 298 296 298 295 293 295 296 297 299 299 299 300 300 301 302 304 308 310 311 312 311 325 333 338 337 334 334 332 331 332 328 326 323 319 319 319 318 317 318 315 312 310 309
292 297 297 300 299 298 296 298 295 295 295 298 298 298 298 298 298 299 300 301 303 305 307 310 312 312 312 321 329 328 327 327 327 330 334 330 327 326 324 323 321 317 316 316 314 313 313 312 311
294 296 298 300 299 297 299 296 295 295 296 298 299 298 297 297 298 299 301 303 304 304 306 309 312 313 314 328 323 321 320 319 319 321 324 331 330 326 323 321 318 315 316 315 313 313 313 311 311
296 297 297 299 299 299 296 295 296 294 296 296 297 296 295 296 296 297 299 301 302 303 305 308 313 312 317 316 315 314 314 313 314 315 316 320 323 320 316 314 313 312 312 312 312 312 312 312 311
297 293 295 297 298 297 297 294 294 296 296 295 295 294 295 295 296 296 299 299 300 302 303 306 308 310 310 310 310 309 309 309 308 310 311 312 314 312 310 308 307 307 309 309 307 307 306 305 305
293 292 289 296 297 296 296 290 296 295 295 293 293 292 294 295 296 296 298 298 299 301 302 302 304 303 303 304 304 303 304 305 305 304 306 307 307 307 305 304 303 305 305 306 305 303 298 297 298
289 286 288 293 297 295 293 290 293 295 294 293 292 292 293 293 294 296 296 296 298 300 300 299 300 299 299 299 300 300 300 300 301 302 302 302 302 302 301 300 299 299 297 298 300 295 295 290 291
287 287 289 290 294 293 291 291 293 294 294 293 292 292 292 292 293 295 295 296 298 299 298 299 298 298 298 298 297 296 295 295 295 295 295 297 298 297 294 294 294 294 293 292 293 290 289 287 287
291 289 288 292 295 292 291 291 293 294 292 291 292 292 292 292 293 295 295 295 295 297 298 298 298 298 298 297 296 294 291 291 292 292 293 291 292 293 291 291 290 289 289 288 288 289 287 287 287
292 289 289 292 294 292 291 290 293 293 293 294 294 293 292 290 291 294 293 294 294 294 297 299 298 298 298 297 295 293 291 290 290 291 291 291 290 290 289 288 287 287 286 286 285 285 285 285 286
291 290 290 290 291 290 288 288 290 293 294 294 296 294 293 290 290 292 292 292 292 294 297 298 297 296 295 293 292 291 290 289 288 288 287 287 288 288 288 287 287 286 286 284 284 283 283 281 283
289 294 293 292 288 284 288 283 287 291 291 292 294 292 292 290 291 293 292 291 292 296 298 298 296 294 294 293 292 290 288 286 285 285 285 286 286 286 287 286 286 285 285 283 283 283 283 282 281
290 293 292 290 287 284 285 283 284 291 291 291 293 290 290 291 291 292 292 292 292 295 296 296 295 294 294 293 290 288 285 285 285 284 284 284 284 285 285 285 284 284 284 282 282 281 282 282 281
294 291 290 288 286 280 285 284 288 290 294 297 293 290 290 289 290 292 291 290 291 293 293 293 292 291 291 290 288 286 285 284 283 283 283 283 283 283 283 283 282 282 282 282 281 280 280 280 280
291 287 280 278 278 279 286 284 289 292 293 294 291 291 289 290 290 289 288 288 289 291 290 291 290 288 288 287 286 286 285 285 284 283 283 282 282 281 281 281 281 281 281 282 281 280 280 280 279
287 288 281 274 277 279 282 281 287 293 290 293 293 292 290 289 289 288 287 287 288 289 289 289 288 286 287 287 286 286 286 285 285 284 283 282 282 281 281 281 281 281 281 281 280 280 279 278 278
287 285 291 285 273 276 282 285 290 290 288 288 289 290 288 288 287 286 287 286 286 286 286 287 286 286 286 286 286 286 285 285 284 283 283 282 281 282 281 280 280 280 279 279 278 278 277 277 277
289 291 284 287 276 277 281 281 286 287 287 287 288 289 289 288 287 286 286 285 286 285 285 285 286 286 285 285 286 285 284 284 283 283 281 281 281 281 280 279 278 278 277 277 277 276 276 275 275
286 286 288 289 282 276 275 282 289 292 291 289 289 290 289 288 286 285 285 286 286 285 285 285 285 284 284 285 284 284 284 283 283 282 281 280 280 279 279 278 278 277 276 276 275 275 274 274 274
292 290 290 285 279 282 280 285 288 289 292 292 291 291 290 289 286 285 285 285 285 284 284 285 285 285 285 285 284 284 283 282 281 280 279 279 278 278 278 278 277 276 276 275 274 274 274 273 274

GFSSGP_sfc_thetae_072.txt.gz
Theta_e
319 311 311 309 298 293 288 291 293 296 295 297 303 304 302 302 301 294 316 334 343 346 349 349 351 353 353 352 352 352 351 351 350 349 347 345 343 342 341 339 337 335 334 335 338 339 340 341 341
318 314 310 300 292 286 288 291 295 297 299 302 302 301 303 303 311 315 318 339 344 347 349 348 348 352 353 352 351 351 350 351 349 348 346 343 341 340 339 337 335 334 333 334 335 337 339 338 339
314 311 302 295 287 287 288 292 295 297 300 298 299 304 305 307 311 313 321 338 344 345 346 346 347 351 352 351 350 350 350 350 348 347 345 343 341 339 337 335 333 332 331 332 334 335 336 337 338
306 305 300 291 288 289 293 295 297 298 297 301 302 302 309 313 314 317 326 342 341 345 346 343 347 350 350 350 349 349 350 349 347 346 345 342 340 338 336 334 332 329 329 330 331 332 334 335 336
303 298 292 288 287 291 291 296 297 297 296 297 299 298 302 312 317 323 328 337 339 343 346 344 345 347 348 349 349 349 348 348 347 346 344 341 339 337 335 332 330 327 326 327 328 328 328 330 328
298 293 288 287 288 291 293 297 297 295 295 299 299 298 300 306 312 313 328 330 339 340 344 345 340 341 344 346 347 347 347 346 345 345 343 341 339 336 334 332 330 326 323 322 322 321 322 323 323
295 290 287 287 289 291 295 296 294 294 295 294 300 297 298 303 304 322 318 321 326 334 341 343 342 340 338 340 341 343 344 344 344 343 343 341 338 336 334 333 330 326 321 319 319 318 318 319 319
296 292 290 289 289 291 295 295 297 296 294 299 298 294 295 300 306 316 314 311 311 313 317 326 339 340 340 339 334 336 339 340 341 339 337 334 333 333 332 330 332 328 324 322 320 318 318 318 317
296 289 287 288 289 292 295 294 296 296 297 296 297 296 298 302 306 310 308 306 307 309 310 311 316 326 334 341 336 332 334 335 334 333 329 328 330 327 326 327 330 329 328 327 324 320 318 315 315
293 288 290 291 291 293 295 295 297 294 294 294 295 298 300 301 306 306 302 302 302 304 309 310 311 313 320 335 338 335 335 335 334 332 330 329 328 327 327 323 326 325 326 327 324 321 317 312 306
293 289 292 292 296 296 296 294 296 294 291 295 295 297 298 298 299 300 299 300 301 302 307 309 311 312 313 323 335 336 334 334 335 331 330 330 326 323 322 321 321 317 316 315 315 313 311 309 307
290 295 294 297 297 296 295 296 294 294 294 297 297 298 297 297 298 298 299 301 303 303 304 309 311 312 313 326 328 329 330 330 331 331 332 327 325 322 322 321 319 317 317 313 311 311 311 311 310
292 294 296 297 297 296 297 295 295 294 295 296 297 298 296 296 297 298 300 302 302 302 303 307 310 312 315 325 322 321 320 320 321 324 330 328 326 323 321 317 316 314 313 310 309 310 311 309 308
295 295 295 297 297 297 296 294 295 293 294 295 296 295 295 296 297 297 300 300 301 303 302 306 310 315 319 316 316 314 315 315 315 315 318 327 325 319 315 313 312 312 311 309 309 306 307 306 304
296 292 294 295 296 296 296 293 293 294 294 294 294 293 294 295 296 296 299 299 300 301 301 304 308 310 310 310 310 310 310 310 310 311 312 314 313 312 310 309 307 307 308 307 305 301 301 300 300
292 290 287 293 295 295 295 289 295 294 293 292 292 291 293 294 295 296 298 298 299 300 301 301 305 305 305 305 305 306 307 306 306 307 308 308 308 308 306 305 304 304 304 302 297 296 293 294 296
289 285 286 291 295 293 292 290 293 293 293 292 291 291 292 292 293 295 297 297 299 299 299 298 299 300 301 301 302 302 301 303 303 303 303 303 303 303 301 299 298 297 296 294 292 290 289 289 293
285 285 287 288 292 291 290 291 292 293 292 292 291 290 291 292 292 295 295 296 298 298 297 296 297 299 300 299 297 296 295 295 296 297 297 297 296 295 294 293 293 294 292 291 289 287 287 286 290
289 287 287 289 294 291 290 292 294 292 291 290 290 290 291 292 292 295 294 295 296 296 295 295 296 298 298 296 295 294 292 292 292 293 293 293 293 292 290 289 289 288 287 286 287 286 284 284 285
289 287 288 290 293 291 291 290 293 291 292 294 294 292 292 290 291 293 293 293 295 295 297 296 298 298 299 298 294 292 291 290 291 291 291 291 291 290 288 287 286 285 285 284 283 284 283 283 283
289 287 287 289 290 289 287 288 290 292 294 294 295 296 294 292 291 292 292 292 292 294 298 298 298 298 297 293 292 290 290 289 289 288 288 288 289 287 286 285 285 284 284 282 282 282 282 280 282
287 292 292 290 287 284 288 283 287 290 291 292 295 294 293 291 292 293 292 291 292 293 298 298 297 295 293 293 291 291 289 287 287 287 287 286 285 285 285 285 284 283 283 282 282 282 281 281 279
290 292 290 288 285 283 284 282 285 289 289 292 295 292 290 291 291 292 292 293 293 296 298 297 294 293 293 292 292 289 287 286 286 285 283 283 284 284 284 284 283 282 282 280 281 281 280 281 279
293 290 288 286 284 279 285 284 289 289 292 296 297 291 291 290 291 292 292 293 293 297 297 295 293 292 293 291 289 288 286 285 283 283 282 282 282 282 282 282 282 282 281 280 280 280 280 280 279
290 286 280 278 277 279 284 283 289 291 292 294 293 290 289 290 290 290 289 290 291 294 294 294 293 291 290 289 288 287 285 284 283 282 282 281 281 281 280 281 281 281 281 280 280 280 280 279 279
287 287 281 273 275 278 282 280 286 291 293 290 292 291 288 288 290 290 290 290 290 291 291 292 290 289 288 288 286 286 284 284 283 283 282 282 281 281 280 280 280 280 281 280 280 279 278 277 277
286 285 290 283 272 275 282 285 290 291 290 290 289 288 287 288 289 289 289 289 290 289 289 290 289 288 288 287 286 285 284 284 283 282 282 281 281 281 280 280 279 279 279 278 278 277 277 276 276
288 290 282 284 274 274 280 281 285 289 289 289 287 286 286 288 287 288 288 288 288 288 288 289 289 287 287 286 285 285 284 283 283 282 281 281 280 280 279 278 278 278 277 277 277 276 276 275 275
286 285 286 288 283 276 274 282 288 290 291 290 288 288 287 288 286 287 287 287 287 285 286 288 288 286 285 285 285 284 283 283 282 281 281 280 280 279 278 278 277 277 276 276 275 274 274 274 274
290 289 290 285 278 280 279 285 288 289 290 290 289 289 288 288 287 286 286 285 285 284 284 285 286 285 285 285 284 283 282 282 281 280 279 280 279 279 278 278 277 276 276 275 275 274 274 274 274

GFSSGP_sfc_thetae_075.txt.gz
Theta_e
318 311 309 306 296 292 287 290 292 294 294 300 303 301 300 302 299 293 314 327 337 343 347 348 350 351 353 352 352 351 349 349 348 346 344 342 341 340 339 337 335 335 336 338 339 340 340 342 342
315 312 307 298 290 285 287 290 294 295 301 302 301 300 303 302 310 314 317 337 344 346 347 347 347 351 351 351 352 351 350 349 348 345 342 342 340 339 337 335 334 334 334 336 337 338 338 339 340
311 308 301 292 287 286 288 291 292 297 301 296 300 304 304 306 309 312 320 340 343 343 345 345 347 351 351 351 351 350 350 348 347 345 342 341 339 338 335 333 332 332 332 334 335 337 338 337 335
306 303 297 290 287 288 291 294 295 296 295 300 302 302 308 311 313 316 324 340 340 343 345 343 347 351 351 350 350 350 349 348 347 345 342 340 338 336 334 331 329 329 330 331 333 335 335 332 334
300 296 291 287 289 292 290 294 295 295 295 296 298 298 303 310 311 320 329 340 337 340 343 343 345 348 349 349 349 349 349 348 346 344 342 339 337 334 332 330 327 326 327 328 328 329 329 328 331
297 293 288 285 286 290 293 294 295 293 295 297 298 300 305 304 308 319 328 333 336 339 343 343 338 340 344 347 347 347 347 347 346 344 341 339 337 334 332 329 325 323 323 322 322 324 325 324 324
293 289 286 286 287 290 293 295 294 294 294 293 300 297 299 303 308 318 321 323 326 334 342 343 342 339 337 340 341 343 344 344 344 344 342 339 337 334 332 331 325 323 321 321 321 321 321 320 320
293 291 285 287 288 290 295 294 294 295 293 297 297 294 299 303 317 313 311 311 311 314 319 332 340 340 338 338 335 336 339 340 340 340 336 333 333 332 331 329 329 327 326 323 321 319 319 319 317
294 288 285 287 289 292 294 293 294 294 296 294 296 296 297 303 312 310 309 308 308 310 312 314 320 327 333 339 335 332 333 335 335 333 329 327 329 326 325 327 329 329 327 325 323 321 319 316 316
292 286 289 291 290 292 294 293 295 294 293 292 294 296 299 302 309 309 308 307 304 308 310 310 313 315 320 334 338 336 334 336 336 333 330 329 328 327 326 322 324 324 325 324 323 320 316 310 304
290 287 291 291 294 295 294 293 294 293 291 294 295 297 298 300 305 305 303 303 303 304 308 311 311 313 315 321 335 332 335 334 333 330 329 328 325 325 323 321 320 314 314 313 313 311 309 307 306
291 293 292 295 295 295 294 295 293 293 295 296 296 297 297 299 301 300 300 301 303 304 305 308 310 311 312 321 329 332 334 335 332 330 329 326 323 322 321 319 318 316 315 311 310 309 309 308 308
290 292 294 296 295 294 296 294 294 294 293 294 296 297 296 297 297 298 299 301 302 302 302 306 308 311 313 325 323 323 323 326 329 330 328 327 323 321 319 315 312 312 312 310 308 308 307 305 303
293 294 294 295 295 295 294 292 294 293 294 294 295 295 295 296 296 296 299 300 301 302 303 305 308 313 320 319 318 316 317 317 319 319 327 326 324 318 314 313 312 310 311 308 304 303 303 301 302
294 291 293 294 294 294 294 292 292 293 293 293 293 293 294 295 296 297 299 300 300 301 302 304 307 313 313 312 312 312 312 312 313 313 316 320 318 315 312 309 305 307 306 303 299 299 301 300 301
290 289 286 291 293 294 294 289 294 293 292 292 292 291 292 293 294 296 298 299 299 300 301 302 306 307 307 307 308 308 308 308 309 310 312 313 312 311 308 306 304 304 301 296 295 297 296 296 296
288 284 285 290 294 292 291 290 292 292 291 291 290 291 291 291 292 294 297 297 298 299 299 298 299 303 303 303 303 302 303 304 305 307 307 308 305 305 302 300 298 297 294 292 292 292 292 295 294
284 284 285 286 290 290 289 290 292 292 291 292 291 290 290 291 293 293 296 296 297 298 297 297 301 301 301 299 298 297 296 296 297 298 300 301 299 299 297 294 294 293 290 290 289 288 287 289 290
288 286 286 289 292 290 289 290 294 293 290 290 290 290 291 292 293 294 295 295 296 295 295 295 299 299 298 297 297 296 293 294 293 294 294 294 294 293 292 290 289 288 288 286 285 285 287 284 285
288 286 286 289 291 290 290 289 291 291 291 293 294 293 293 292 290 293 293 294 295 297 296 294 299 298 298 299 294 293 293 292 292 292 291 291 291 290 288 286 285 284 284 283 283 283 282 282 281
287 286 286 288 289 288 287 287 288 291 293 294 294 297 296 294 291 291 292 293 293 296 297 297 298 299 298 294 292 290 291 290 289 289 288 289 289 288 287 285 284 283 283 282 281 281 281 279 280
285 290 290 288 286 283 287 283 287 289 290 291 295 296 294 291 292 292 292 292 293 296 299 299 299 299 294 293 292 292 292 288 288 287 287 287 287 286 286 284 283 282 282 282 281 281 280 280 279
288 291 289 287 284 282 281 281 285 288 288 291 296 295 291 291 292 292 292 294 294 295 298 299 299 294 293 293 293 292 290 287 286 286 285 285 285 284 283 283 282 282 282 281 281 280 280 279 279
292 289 287 285 283 279 284 284 289 286 289 291 295 293 291 290 290 292 293 293 293 295 298 297 294 293 293 292 291 290 287 285 284 284 283 283 283 282 282 282 281 281 281 280 280 280 280 280 280
289 287 280 278 276 279 282 281 289 291 292 292 293 292 291 289 289 290 290 292 292 295 297 293 293 291 292 290 289 288 287 286 285 284 283 281 281 280 280 281 281 280 280 281 281 280 280 279 279
286 286 281 274 275 278 282 280 285 290 292 292 291 291 289 287 288 289 290 292 293 295 296 293 292 291 290 289 288 288 287 286 285 284 283 281 281 281 280 280 280 280 280 280 280 279 278 277 277
285 284 289 282 271 274 281 284 289 290 291 293 288 287 287 286 288 289 290 291 293 295 295 293 292 290 289 288 287 286 286 285 283 282 282 281 281 281 280 280 280 279 279 278 278 278 277 276 276
288 290 283 282 273 272 279 280 284 289 291 291 289 288 286 286 287 288 289 289 291 292 294 293 291 288 288 288 287 285 285 284 283 282 281 280 280 280 279 279 279 278 278 277 277 276 276 276 275
286 284 285 287 281 275 273 282 288 290 290 289 290 289 287 286 286 287 288 289 289 289 289 289 289 288 287 287 286 285 284 283 282 281 281 280 280 279 279 278 278 277 277 276 276 275 275 275 274
287 287 289 284 279 280 279 285 289 290 288 289 290 289 286 286 286 286 287 286 285 285 286 287 287 287 287 286 285 284 283 282 281 280 280 280 279 279 278 278 278 277 276 275 275 275 275 274 274

GFSSGP_sfc_thetae_081.txt.gz
Theta_e
318 312 312 307 301 296 293 295 297 297 299 304 302 300 302 304 300 297 318 331 340 342 346 348 348 350 352 350 349 349 349 346 344 342 342 340 339 337 337 337 338 339 340 342 343 341 342 344 342
314 312 307 300 295 290 291 295 296 298 304 305 304 305 306 306 313 319 326 335 342 344 346 348 346 350 352 350 350 348 348 346 343 342 340 339 337 336 336 336 336 337 337 342 339 341 343 342 341
312 307 305 296 290 290 291 295 297 301 302 301 305 309 308 308 313 318 325 338 344 345 346 347 346 350 351 350 349 348 348 345 343 341 339 337 335 334 333 334 335 336 337 338 340 342 342 341 339
308 305 298 294 293 295 296 297 298 301 302 303 306 305 311 315 316 320 334 343 344 345 346 345 347 350 350 348 348 347 347 346 343 341 338 336 333 331 331 332 332 334 335 336 339 340 339 337 336
300 299 293 292 292 294 294 297 300 300 299 302 303 301 309 314 313 322 334 342 342 344 345 346 345 348 349 348 347 347 346 345 342 340 337 335 332 330 329 328 329 331 333 333 335 334 332 330 329
298 297 291 290 291 294 296 297 299 298 299 301 302 304 309 310 314 325 334 340 343 343 344 345 339 342 344 346 346 346 345 345 342 340 337 335 331 328 327 326 326 328 329 330 330 329 327 324 322
296 293 291 289 290 294 296 297 296 297 298 300 305 303 306 308 314 326 335 337 340 342 343 344 344 341 337 340 341 342 343 343 342 340 337 335 333 330 329 329 326 325 325 326 325 324 322 321 319
294 293 289 289 290 292 296 296 297 298 298 301 304 301 303 312 320 321 325 326 329 335 341 341 342 342 343 343 335 337 339 340 339 337 333 331 330 329 330 328 328 325 323 322 321 320 319 318 317
296 290 287 290 290 293 295 295 296 298 298 299 300 301 303 312 315 317 318 318 320 321 329 339 340 341 340 341 336 333 334 335 333 331 327 326 328 327 328 326 328 327 325 322 321 320 317 315 315
292 288 289 291 292 293 295 295 296 297 297 297 298 300 303 313 314 318 320 321 319 319 319 323 327 328 336 337 339 340 340 339 335 332 330 328 327 327 326 323 324 325 324 322 320 317 313 309 308
291 289 291 292 294 295 295 294 296 295 294 297 298 299 302 311 313 317 320 321 319 316 315 316 320 320 326 334 338 340 339 338 333 331 329 328 326 324 322 320 318 318 315 316 314 312 311 309 308
291 292 292 295 296 295 294 295 294 294 297 298 298 300 301 309 313 316 318 316 312 312 313 314 315 318 319 322 334 336 337 335 332 330 329 326 325 322 322 318 317 317 316 314 313 312 310 307 305
292 292 294 295 294 293 295 295 295 294 296 298 297 298 300 306 312 312 314 312 311 311 310 312 313 315 316 320 330 333 335 335 334 329 328 326 324 321 319 318 317 315 315 312 310 310 306 302 299
293 294 294 295 295 295 294 293 294 296 296 296 296 297 298 301 308 307 306 309 307 308 309 310 312 314 317 321 326 327 328 333 332 329 326 326 324 320 317 316 313 313 312 308 308 307 301 298 295
294 291 293 293 293 294 295 293 293 295 295 295 295 296 296 298 300 306 310 307 306 306 306 308 310 314 317 319 321 320 320 323 329 330 327 325 322 318 316 314 311 310 308 305 307 302 299 294 292
291 290 287 291 293 293 294 289 294 294 294 295 295 294 295 297 298 301 302 304 304 304 304 306 310 312 312 315 314 314 314 315 316 322 325 322 320 317 314 311 308 305 303 305 303 301 296 292 291
288 284 285 289 293 292 291 290 293 293 292 293 293 294 294 295 296 297 299 301 302 303 304 305 307 309 309 309 309 309 308 309 310 313 318 318 316 314 312 308 303 299 300 301 301 299 294 291 290
284 284 285 286 290 290 289 290 293 293 292 293 294 294 294 295 297 299 297 299 301 301 303 304 305 306 306 304 303 302 302 301 303 306 309 312 312 310 308 302 298 299 298 298 298 295 294 292 290
286 285 285 287 291 290 289 290 293 294 291 292 294 294 295 295 299 297 296 297 299 300 300 301 302 303 303 303 302 301 299 298 297 298 303 306 305 304 303 297 295 296 298 297 296 294 291 289 290
287 285 285 288 289 290 289 288 291 294 292 295 297 298 296 297 294 294 294 296 298 299 300 299 302 302 302 305 302 300 297 294 294 294 295 298 300 299 298 295 293 294 294 294 295 294 290 289 289
286 285 285 287 288 288 286 286 288 292 294 296 296 298 300 297 295 293 293 295 297 298 300 299 302 302 302 300 296 294 294 293 292 292 292 292 294 294 294 293 291 292 295 294 295 293 291 288 285
284 289 288 287 286 282 286 282 287 291 293 293 295 297 295 295 294 293 293 294 296 299 301 300 302 302 302 298 298 298 298 296 294 292 291 290 291 290 290 289 290 292 293 292 293 290 289 288 285
287 289 287 286 284 283 283 282 286 288 289 293 298 297 295 294 294 293 293 295 296 298 300 299 301 302 299 298 299 299 299 294 292 290 288 288 288 288 287 287 287 288 289 288 289 287 287 287 285
290 288 286 284 283 279 283 284 286 287 290 292 294 295 294 294 292 292 292 293 295 298 298 299 300 300 297 297 298 300 295 291 289 288 288 286 286 286 286 285 285 285 286 286 285 285 285 285 284
288 287 281 278 277 280 281 281 289 291 291 292 294 294 293 293 292 290 290 292 294 296 297 298 299 298 296 296 296 296 294 292 291 289 288 285 284 284 283 284 283 284 284 284 284 284 283 283 283
286 286 281 274 275 279 281 279 286 290 292 292 292 292 292 293 291 289 290 291 293 296 297 298 298 295 295 295 295 293 292 292 291 289 288 287 285 284 283 283 283 283 283 283 283 282 282 282 282
285 284 287 282 270 275 282 284 289 290 290 292 293 291 291 291 290 289 289 291 292 295 298 298 297 295 294 294 292 291 291 289 288 287 286 285 284 283 282 282 282 282 282 282 282 281 280 280 280
288 289 283 281 274 272 280 281 285 289 290 291 290 291 291 290 288 288 289 290 292 295 298 297 296 293 294 293 291 290 289 289 287 285 283 283 283 283 282 282 281 281 281 280 280 280 279 279 279
285 284 283 284 281 276 274 283 287 290 291 291 291 291 291 290 288 288 288 289 291 294 294 293 293 292 292 291 290 289 288 287 285 285 283 283 282 282 281 281 280 280 279 279 279 279 279 278 278
285 286 286 281 277 279 278 285 290 290 291 291 292 291 290 289 288 288 288 289 290 291 291 291 292 291 291 290 289 288 287 285 284 284 283 283 282 282 281 280 279 279 279 279 279 278 278 277 277

GFSSGP_sfc_thetae_084.txt.gz
Theta_e
323 321 325 321 309 307 301 300 303 302 303 307 307 307 307 309 305 304 329 341 343 343 346 346 348 350 350 349 349 349 347 344 343 341 340 339 338 338 339 339 341 341 343 343 342 344 342 341 339
320 318 321 316 305 299 300 302 301 304 308 310 310 310 309 308 319 326 332 340 344 344 346 346 346 350 351 349 349 349 347 344 342 340 338 337 337 337 337 337 338 341 340 341 343 344 342 339 337
316 314 315 311 305 299 299 302 304 307 310 308 309 313 312 312 321 330 334 343 344 344 346 346 346 349 351 350 348 348 346 344 341 339 337 336 335 335 336 336 337 338 339 343 344 342 339 337 337
318 315 310 304 299 302 302 304 305 308 307 307 310 308 316 321 324 328 339 343 343 344 346 345 347 350 350 349 347 347 346 343 340 338 336 334 333 333 333 335 335 336 340 341 341 340 337 335 334
315 313 305 302 300 301 303 304 307 306 306 307 310 307 312 320 324 330 341 342 343 344 346 347 346 348 349 349 346 347 346 343 340 337 335 332 331 331 331 333 334 335 337 337 336 333 331 330 329
310 310 301 299 300 301 303 305 308 307 305 307 307 308 312 322 323 333 342 342 345 344 346 346 340 343 345 346 346 345 345 343 340 337 334 331 329 328 328 330 332 333 333 333 330 327 325 325 325
308 306 301 300 299 300 303 306 306 307 305 306 310 306 312 318 326 334 342 344 344 344 345 345 344 343 337 341 342 342 343 342 340 338 335 332 331 331 329 329 328 329 329 328 326 324 322 322 323
308 307 299 300 298 299 304 305 305 307 305 308 313 306 307 319 328 336 341 342 343 344 344 344 344 345 345 345 335 337 339 339 338 335 332 330 330 330 329 327 326 325 325 324 322 320 320 321 321
304 302 298 299 298 301 302 303 302 305 305 307 310 307 311 322 329 333 336 337 339 341 343 344 344 345 345 345 339 334 334 334 332 330 326 325 330 329 328 326 326 324 323 322 320 320 319 319 318
304 300 299 301 303 302 302 303 304 303 303 305 306 308 308 321 327 330 332 331 334 336 341 343 344 344 344 343 344 344 343 341 336 332 329 330 331 331 328 323 324 324 322 320 318 316 315 317 317
300 299 299 300 301 302 302 301 304 303 302 306 307 309 308 320 325 328 331 332 333 336 338 338 339 343 343 341 344 343 343 342 338 332 331 329 328 329 325 324 323 322 318 318 317 316 315 315 315
299 299 300 300 302 301 301 302 301 303 306 307 309 308 309 316 322 326 329 331 333 334 334 333 333 335 337 336 342 344 341 339 337 331 330 328 326 325 322 321 322 321 321 319 318 314 313 310 310
300 300 300 301 300 301 301 301 302 302 306 305 304 304 307 312 319 325 329 332 333 329 330 327 328 331 333 329 337 342 340 338 337 331 329 328 326 323 321 320 319 320 320 319 315 312 306 304 306
301 300 301 301 301 301 300 301 300 304 306 304 303 305 307 309 316 322 325 327 329 329 327 325 324 327 329 332 336 337 337 339 337 334 330 327 326 322 321 320 319 316 317 316 312 308 302 297 299
300 298 301 302 300 301 301 299 299 305 302 303 304 305 306 307 311 318 322 325 327 327 326 322 322 324 325 327 332 334 332 329 334 336 333 328 324 322 319 318 318 315 315 312 308 301 297 295 295
298 299 295 299 299 299 301 296 302 303 302 303 305 306 305 306 307 311 320 324 326 325 322 320 316 320 322 325 327 327 327 325 326 332 334 329 326 323 321 317 317 309 309 308 303 299 296 294 293
297 293 294 296 300 298 299 298 302 301 301 303 305 305 305 305 306 308 312 318 322 322 319 317 317 318 320 321 321 320 317 320 319 321 329 328 326 319 317 317 311 306 308 305 301 298 294 294 293
293 293 293 294 297 296 297 297 302 303 301 303 306 306 306 305 306 308 308 311 316 318 317 316 315 316 317 317 315 313 313 310 312 313 317 321 320 317 314 310 306 307 304 301 298 294 293 294 292
294 294 293 296 297 296 297 297 300 303 303 302 304 305 306 306 309 309 308 308 310 312 312 312 312 314 314 313 311 310 310 307 304 307 310 314 315 313 310 304 303 302 301 301 297 295 293 293 293
294 293 293 296 296 295 296 296 300 301 302 304 305 306 307 308 308 307 306 306 306 308 310 310 311 312 312 313 314 313 310 305 304 300 304 307 309 310 308 304 301 303 300 297 295 293 292 293 295
293 293 293 292 294 295 294 294 298 301 301 303 305 305 307 307 308 307 304 304 306 306 308 309 310 311 312 313 312 306 302 299 296 297 298 299 302 302 302 302 300 299 299 297 294 294 295 293 295
291 295 294 292 292 290 294 287 296 299 300 302 303 305 306 306 306 305 304 304 304 306 308 308 309 310 311 312 308 307 307 302 301 301 299 295 297 300 298 297 298 300 298 297 295 296 298 296 293
293 294 293 293 292 291 292 288 294 296 297 300 304 307 308 307 306 305 304 304 304 305 307 308 309 309 310 309 310 309 311 310 304 301 296 293 290 292 293 295 296 297 298 298 297 296 297 298 297
294 294 292 292 292 286 292 290 292 296 298 302 305 306 304 303 303 302 301 302 303 304 306 306 307 307 308 307 308 309 310 303 299 299 294 293 289 289 288 288 291 292 293 294 293 295 296 296 295
294 293 286 286 284 285 289 289 293 299 300 301 303 304 302 303 302 303 299 299 300 302 304 304 305 305 306 306 306 307 306 301 302 300 295 290 288 287 286 287 287 290 290 291 292 294 294 293 292
291 293 288 284 283 287 286 285 294 300 303 304 301 301 302 303 303 301 299 299 300 301 302 303 303 304 304 304 304 305 305 304 303 300 297 296 291 289 287 286 286 286 287 288 290 292 291 291 289
290 288 295 289 281 285 290 295 298 299 299 299 300 302 303 302 300 299 298 298 299 300 301 302 303 304 303 303 303 301 299 297 296 295 295 293 292 287 285 285 285 285 286 287 290 289 287 288 287
294 297 288 290 284 283 288 289 292 295 298 299 300 301 301 300 298 297 297 297 298 300 301 302 303 303 302 302 301 298 296 294 294 291 289 286 286 285 284 283 284 284 284 286 287 287 286 286 285
291 290 291 292 290 287 285 291 299 300 300 299 301 300 300 299 298 297 296 297 298 299 301 301 302 302 300 300 298 296 295 292 291 289 286 285 285 283 283 282 283 283 282 284 285 285 285 284 283
296 294 293 289 284 287 287 290 297 299 301 301 301 300 300 297 297 297 296 296 297 298 299 299 300 299 299 299 297 296 294 290 288 287 286 285 284 283 283 282 282 282 281 283 283 283 283 283 282

GFSSGP_sfc_thetae_087.txt.gz
Theta_e
328 324 324 322 309 306 302 302 306 304 305 309 310 309 308 310 307 306 332 342 344 344 345 345 349 350 349 348 348 347 345 343 341 340 339 339 339 340 341 341 343 345 343 344 343 342 339 338 337
323 321 322 316 304 299 300 305 302 306 310 311 310 310 309 310 319 325 334 341 343 344 345 345 347 350 349 348 349 347 345 342 341 339 338 338 338 338 338 339 342 341 342 344 343 342 338 338 336
321 319 316 310 305 300 300 304 306 308 311 310 309 313 313 312 322 329 339 342 343 344 345 346 347 349 349 348 348 347 345 341 340 337 337 336 337 337 337 338 338 342 344 344 342 340 337 335 335
319 317 314 304 301 304 304 305 307 309 308 310 311 308 316 322 326 332 341 343 342 343 345 344 348 350 349 348 347 347 344 341 339 336 335 335 335 336 336 337 339 342 342 342 340 338 335 334 332
318 315 305 303 302 304 306 307 308 307 308 308 311 308 311 322 329 336 341 342 341 342 345 346 346 349 348 348 347 346 344 340 338 335 333 333 333 334 335 336 338 340 339 337 335 333 331 330 329
311 312 302 300 302 304 306 308 308 308 308 309 309 308 312 324 325 334 340 342 341 342 343 345 341 343 346 346 345 345 344 340 337 334 332 331 331 332 334 334 335 336 334 331 329 328 327 327 327
310 306 302 303 301 302 305 309 308 308 307 307 311 306 315 320 325 334 338 340 341 342 342 344 345 342 338 341 342 342 343 340 338 335 334 332 332 332 332 333 333 332 330 328 326 325 325 326 326
310 307 302 303 300 301 307 308 309 309 307 312 314 306 308 318 327 334 336 338 339 340 340 341 342 343 344 344 335 337 339 338 337 333 331 330 330 329 328 328 329 328 327 324 323 323 324 324 324
309 302 299 301 301 302 307 306 307 310 308 309 312 311 317 322 328 332 333 335 337 337 339 340 339 342 342 343 339 333 334 333 332 329 326 325 327 325 325 324 326 325 323 322 322 322 322 321 321
306 302 302 305 305 303 306 306 307 305 306 307 309 312 313 323 326 328 330 330 334 336 339 340 340 340 342 341 342 342 340 337 334 329 327 331 330 329 324 321 323 323 322 320 320 320 321 320 318
304 300 303 302 304 305 305 304 307 305 304 307 307 310 311 321 324 325 328 329 331 336 338 339 342 343 342 342 343 343 342 339 334 329 332 333 329 328 326 322 321 319 317 317 317 318 317 318 316
299 302 302 302 303 303 303 306 304 305 307 310 311 312 312 317 321 323 325 328 330 333 336 339 340 342 342 342 341 341 341 340 335 332 331 328 327 326 324 325 323 323 322 320 318 316 315 313 312
301 302 302 303 302 303 303 303 304 305 309 311 309 309 311 312 319 323 325 329 330 331 334 337 339 339 339 340 340 340 341 338 339 334 330 328 325 323 322 321 323 322 321 319 315 311 311 311 309
304 303 303 304 303 303 301 302 302 305 308 308 308 307 309 310 314 319 323 326 329 332 333 336 335 335 336 336 337 338 340 339 337 332 331 326 326 323 322 320 320 320 321 318 313 308 306 306 303
303 300 302 303 303 302 303 300 300 306 307 306 307 307 309 310 311 314 320 324 329 332 333 333 332 333 334 334 335 337 338 339 335 335 331 329 326 322 322 321 316 318 318 315 308 303 302 300 298
300 300 296 302 302 302 302 296 304 307 307 305 306 307 308 309 310 312 317 323 327 331 331 332 328 329 331 332 334 336 335 331 334 334 333 330 327 324 319 320 319 316 315 307 301 299 299 297 296
300 294 296 298 302 301 300 298 304 305 304 304 307 308 309 309 310 311 313 320 324 328 330 330 326 325 327 330 331 333 332 332 328 331 333 330 328 324 320 319 313 313 311 306 299 297 296 295 294
294 295 296 296 299 299 299 298 303 305 305 305 306 307 308 310 310 312 312 315 322 327 329 328 326 324 326 327 327 327 325 324 327 323 326 330 328 323 321 318 310 311 308 302 296 295 294 293 294
297 296 295 298 300 297 297 298 301 304 304 304 305 306 307 309 312 313 313 313 316 323 325 325 324 323 324 323 321 319 318 317 313 317 317 324 325 322 320 313 308 309 306 299 295 294 292 292 294
297 294 294 298 300 297 297 297 301 303 304 305 305 306 308 309 311 312 312 312 312 315 321 322 322 321 321 321 319 317 316 317 314 308 308 314 316 316 312 307 305 305 303 297 294 293 291 291 293
295 294 294 294 298 299 296 295 298 303 305 306 307 308 309 309 309 311 311 310 311 311 315 317 319 319 318 318 317 315 315 309 305 303 303 304 309 311 308 306 305 303 302 297 294 293 292 289 291
291 298 296 294 293 289 296 288 296 299 301 304 306 307 308 309 310 310 311 309 310 311 313 315 316 316 316 316 315 313 308 305 307 308 303 299 301 304 305 304 305 303 302 297 294 295 294 293 291
294 297 296 295 293 293 293 289 294 299 298 301 304 308 310 312 312 310 310 310 310 311 312 313 313 314 314 314 314 311 308 313 312 308 300 297 296 299 300 300 300 300 300 298 295 294 294 294 293
298 296 295 295 293 286 292 291 292 296 299 302 305 308 309 309 308 307 307 308 307 310 310 312 311 311 313 313 313 311 311 312 306 302 299 295 293 292 294 297 299 299 299 297 296 295 295 295 296
296 293 286 286 285 285 293 292 294 300 302 304 305 308 305 306 306 307 304 303 305 306 307 309 309 308 311 311 311 311 312 313 308 304 299 296 293 291 290 291 294 297 298 298 297 295 294 295 294
293 293 288 284 284 288 289 287 293 302 304 305 306 307 306 306 307 306 306 304 304 304 306 307 307 307 309 309 309 310 311 312 308 307 305 299 297 296 292 290 291 292 294 294 293 293 293 293 294
292 289 296 289 288 285 289 294 299 302 302 303 304 304 305 307 306 305 304 303 303 303 305 305 305 306 307 308 307 308 309 308 307 305 304 304 300 294 290 288 289 290 290 291 291 291 288 291 290
295 298 288 290 284 282 287 291 292 298 299 302 303 304 306 305 303 301 302 302 302 303 304 305 305 305 307 307 306 306 307 306 305 302 300 297 296 290 288 287 286 286 287 289 290 288 288 288 288
292 291 293 293 291 286 284 290 301 301 304 303 304 305 305 304 303 302 301 301 302 303 303 303 304 304 306 305 305 305 303 302 299 295 293 290 288 286 285 285 285 284 285 286 288 286 287 285 286
297 293 293 289 287 290 289 290 302 303 304 305 304 304 304 303 302 302 301 300 300 301 302 303 303 303 305 304 304 302 301 298 296 293 289 288 287 285 284 284 283 283 283 283 284 283 285 284 283

GFSSGP_sfc_thetae_093.txt.gz
Theta_e
323 316 315 311 299 295 290 292 296 297 297 299 303 303 303 306 307 301 326 339 339 341 344 346 348 350 349 348 347 345 344 341 341 341 341 342 342 344 344 346 345 344 339 339 338 338 338 337 339
316 316 312 304 294 289 289 293 295 299 301 303 303 302 303 305 317 320 330 339 340 342 345 347 346 350 349 348 346 345 344 341 340 340 340 340 342 342 342 344 344 343 338 338 337 337 337 336 337
315 314 304 299 292 289 290 293 299 301 302 300 301 304 305 309 317 326 333 339 339 340 345 346 346 349 349 348 346 345 343 340 340 339 339 339 341 340 344 343 343 343 340 337 336 335 336 335 340
310 306 302 294 291 294 294 297 301 299 300 302 302 302 310 315 321 331 336 339 337 339 343 344 347 349 349 347 346 344 341 339 338 338 338 339 339 342 343 343 342 340 338 336 335 334 334 333 337
308 302 295 292 292 293 297 300 302 299 299 299 300 301 307 320 332 334 334 338 336 339 341 345 346 347 347 347 345 344 342 339 337 337 337 337 339 341 342 340 339 338 336 334 332 332 331 332 335
300 299 292 289 291 294 296 300 301 299 299 300 299 301 307 320 328 331 334 334 340 339 342 344 340 342 344 345 344 342 341 339 337 336 336 337 337 339 338 337 336 335 333 332 330 330 330 331 331
298 295 291 290 293 294 297 300 298 298 300 300 303 298 308 315 325 332 332 334 340 341 342 342 343 341 338 340 340 340 339 337 337 336 337 337 337 337 336 334 333 333 332 329 329 329 329 330 330
300 297 293 292 291 292 297 298 299 298 297 302 303 299 304 312 324 331 331 334 337 340 341 341 341 341 340 339 334 335 336 335 335 333 331 330 331 332 331 329 330 331 329 328 328 328 329 328 327
301 292 289 291 292 293 298 297 299 300 301 300 303 306 309 316 325 326 326 329 335 336 339 340 340 340 339 338 333 331 331 330 329 327 325 322 323 322 324 326 328 328 327 326 326 325 326 324 322
296 291 292 294 293 293 297 297 297 296 297 297 301 305 313 319 320 321 321 325 327 330 336 339 339 338 338 339 335 333 331 327 324 321 319 319 318 320 321 321 324 325 325 326 325 323 319 315 312
295 292 294 295 297 298 297 295 299 297 294 298 300 303 313 315 317 319 320 325 326 329 332 337 338 338 338 337 336 335 332 325 325 321 321 320 318 318 316 315 313 314 315 314 313 311 310 308 309
292 296 295 299 299 297 295 298 296 297 298 301 300 304 311 312 316 317 320 321 325 327 330 333 336 336 338 338 337 336 332 328 323 322 324 319 316 315 314 313 311 310 310 309 307 307 306 305 305
293 294 296 297 297 295 298 295 295 296 299 300 301 304 309 313 315 316 319 321 325 327 328 332 335 335 337 337 337 336 334 329 323 321 324 321 318 315 315 312 311 309 310 307 306 305 303 302 303
296 296 296 296 297 296 294 293 294 296 298 298 300 301 303 309 313 313 315 319 320 327 329 332 334 335 336 335 334 334 334 330 326 322 324 321 321 316 315 313 312 312 309 306 305 302 299 295 297
297 292 294 295 296 295 296 291 294 297 297 297 297 298 300 304 309 313 316 317 321 324 328 329 333 335 335 335 335 334 334 331 327 323 324 321 320 317 317 317 314 311 307 304 301 295 293 293 294
291 290 286 292 296 296 294 286 294 297 295 296 296 295 297 299 302 309 311 317 316 321 324 329 331 332 333 334 333 333 333 332 331 327 324 322 320 318 317 317 314 309 305 302 297 294 292 292 292
288 283 286 290 295 295 293 288 296 297 296 296 294 296 297 297 299 301 305 312 316 319 324 327 330 330 328 331 331 331 332 332 332 329 326 323 321 320 319 317 313 307 303 300 296 293 292 290 290
284 284 287 286 293 292 290 290 294 296 296 295 295 296 297 298 299 302 302 304 314 318 323 327 329 329 327 326 325 329 329 330 331 330 326 324 323 320 318 316 311 305 300 298 296 293 293 291 290
288 286 285 289 294 292 290 290 293 295 294 293 294 294 296 298 301 301 302 303 306 314 321 324 325 325 326 322 322 325 327 327 328 330 327 324 323 320 317 314 309 305 301 298 295 293 291 290 289
289 286 285 290 292 290 289 290 292 294 295 297 297 295 296 295 298 300 300 300 303 313 319 323 324 322 325 326 325 320 316 317 322 322 323 326 322 319 317 313 310 306 300 296 294 293 290 289 289
287 286 286 287 289 289 288 285 289 292 294 296 297 298 298 297 297 299 299 299 302 308 315 320 322 321 323 322 317 312 311 310 309 311 317 314 322 320 317 313 310 306 301 296 294 293 291 288 288
286 290 290 288 285 281 287 279 286 291 292 293 295 297 297 296 298 299 300 298 299 305 311 316 321 319 320 318 318 318 317 314 310 317 315 311 311 319 317 313 311 306 302 297 295 294 293 290 288
288 291 289 288 285 284 283 281 284 289 289 292 294 294 295 297 298 299 299 300 299 301 304 312 315 318 319 318 318 315 315 310 301 301 303 308 306 309 315 313 310 307 303 298 296 294 293 291 291
293 291 290 287 285 278 283 282 281 286 289 291 294 294 298 298 297 297 298 299 299 300 301 305 310 314 316 316 314 313 312 303 300 299 301 305 305 303 306 308 309 307 304 297 296 295 294 292 293
291 286 278 278 277 277 283 281 283 290 293 294 294 296 298 298 298 298 297 297 298 300 301 301 305 306 308 311 308 309 307 304 303 300 300 302 301 299 302 305 305 305 304 299 298 295 294 293 293
288 286 279 273 276 278 282 280 287 292 296 297 298 295 297 297 298 297 298 297 297 298 299 301 302 303 304 306 307 305 304 305 303 301 300 301 301 303 302 302 303 304 303 300 298 296 295 294 294
287 285 288 282 273 275 280 284 289 292 294 296 296 296 296 295 297 298 297 297 297 297 299 300 300 301 302 303 303 303 302 302 302 299 299 299 299 299 297 300 300 300 301 299 297 296 295 294 294
290 292 283 283 274 273 278 279 284 289 291 293 294 294 294 295 296 296 295 296 296 297 298 299 300 301 301 301 302 302 302 302 301 299 298 296 296 296 296 297 297 297 298 298 297 296 295 294 294
287 285 287 287 283 276 274 279 288 289 293 293 294 295 296 294 295 294 295 295 295 296 297 298 298 299 299 300 300 300 300 300 299 298 297 296 293 292 291 294 293 293 294 295 295 295 294 293 293
288 288 288 281 278 280 280 283 292 294 294 295 295 296 294 294 295 294 294 294 295 295 296 297 297 297 298 299 299 299 299 298 297 295 294 291 291 288 289 289 291 291 291 291 292 292 292 292 291

GFSSGP_sfc_thetae_096.txt.gz
Theta_e
318 312 311 309 299 294 289 290 294 295 295 297 301 303 303 305 305 296 324 335 338 340 343 346 348 349 348 346 343 342 341 341 341 342 343 344 344 345 344 342 343 340 338 338 338 339 338 339 340
314 314 309 302 293 287 288 292 294 297 299 300 302 302 303 307 315 325 329 338 339 341 343 345 346 349 348 345 344 344 342 341 340 340 341 343 343 343 344 341 341 338 337 337 338 338 337 338 337
313 311 303 297 290 287 289 292 297 298 299 299 300 304 306 309 317 327 333 338 341 341 344 344 346 348 348 346 345 343 342 340 340 339 340 342 341 342 343 342 341 337 336 337 338 338 338 338 337
308 304 299 293 289 291 293 297 299 297 298 300 301 303 310 316 324 330 337 339 339 342 344 343 346 348 347 346 344 342 340 340 339 339 339 341 344 344 342 341 339 337 335 336 336 335 337 336 336
304 300 293 291 291 292 294 299 298 296 297 297 301 300 306 322 326 335 335 336 336 340 343 344 345 346 346 345 344 342 341 339 338 338 338 342 342 342 342 340 337 335 334 334 333 334 334 333 332
299 297 290 288 290 293 295 299 299 296 296 297 300 304 307 320 329 333 335 334 338 338 342 344 339 341 343 344 343 341 341 340 338 338 338 341 342 340 339 338 336 333 332 332 332 332 332 332 331
298 294 289 290 290 292 296 297 298 296 298 298 301 302 307 316 327 330 333 336 337 339 341 343 342 340 337 339 339 339 339 338 338 338 338 339 338 337 337 336 333 332 330 331 331 332 331 331 330
299 295 290 291 290 291 296 297 298 298 299 301 302 302 304 313 324 330 334 337 338 339 341 341 341 340 339 337 333 334 335 335 336 335 333 332 332 332 331 330 331 330 329 329 331 330 330 329 327
298 291 288 291 290 292 296 295 296 298 300 299 301 304 307 317 325 326 327 332 336 337 339 340 339 339 337 336 331 330 330 331 330 329 326 324 323 323 323 326 328 329 329 329 329 328 326 323 322
294 289 291 292 292 293 296 295 297 296 296 296 300 306 311 319 322 324 322 325 328 331 335 339 338 338 337 338 333 330 328 325 323 322 321 321 320 321 322 321 325 327 327 326 325 323 319 314 309
294 292 295 293 295 296 296 294 296 296 292 297 300 306 312 317 320 324 321 325 328 331 334 336 338 337 337 337 335 332 326 321 320 318 317 317 318 318 317 316 316 316 314 311 311 309 308 308 307
291 294 294 297 297 296 294 296 293 295 297 299 300 309 312 316 319 322 322 321 325 327 332 335 337 338 336 336 335 333 328 322 321 318 318 316 315 314 313 313 311 310 309 306 305 305 305 305 304
292 293 294 296 296 294 296 293 294 295 298 297 299 308 310 315 317 319 322 321 325 326 329 333 335 336 337 335 335 333 329 324 321 320 319 316 315 312 311 310 309 308 307 305 303 303 303 303 302
295 295 294 295 295 295 292 290 292 294 294 297 299 300 308 312 314 313 315 319 324 327 328 331 333 334 336 335 335 334 331 327 322 321 320 317 316 313 311 309 308 308 306 304 302 301 299 297 299
296 291 292 293 294 294 294 290 293 293 295 295 294 297 300 308 310 313 317 319 322 327 328 330 331 333 334 334 335 334 333 329 324 322 322 319 316 313 311 311 309 307 304 301 297 295 295 295 296
291 289 285 289 294 294 291 286 291 293 293 294 294 293 295 299 305 312 315 317 318 323 326 328 332 332 332 333 333 334 333 329 326 322 324 320 318 315 312 312 313 308 303 298 295 294 292 292 292
288 282 284 289 294 293 291 287 293 295 293 294 293 294 294 294 297 302 309 314 317 320 323 327 329 330 331 332 333 333 333 331 328 323 324 322 319 317 315 314 311 306 302 297 296 294 294 290 289
283 283 285 284 291 290 289 289 293 294 293 293 293 293 294 295 297 300 301 307 315 316 321 326 328 330 331 332 331 332 332 332 331 326 324 323 321 319 318 316 309 305 302 297 295 292 292 291 289
286 285 285 286 292 291 290 289 291 293 292 293 293 293 294 295 299 299 299 300 305 311 316 322 326 328 329 329 328 329 330 330 330 328 326 323 323 320 318 314 307 304 301 297 294 292 291 289 289
286 285 284 288 290 290 288 288 291 292 293 295 295 294 294 293 294 298 298 297 298 307 315 320 324 327 328 329 329 328 330 329 330 329 326 324 323 320 318 314 307 304 301 297 293 292 290 289 289
286 285 285 286 287 287 286 284 287 290 291 294 295 296 297 295 294 295 296 297 297 301 311 318 323 325 328 328 319 312 314 313 315 322 325 324 323 320 318 315 309 305 301 297 294 292 291 288 288
284 289 289 287 284 280 285 278 283 288 290 291 294 295 292 293 295 296 297 296 296 300 309 317 322 323 326 325 319 320 320 320 321 322 322 320 322 320 318 314 311 307 302 298 295 294 293 290 287
287 290 287 286 283 281 281 280 283 285 286 290 292 293 293 293 294 295 296 297 297 298 304 311 317 318 319 320 322 320 320 321 306 307 314 314 312 317 318 315 313 308 304 300 297 294 293 292 291
292 289 287 285 282 277 281 281 279 284 288 288 292 293 296 298 297 296 297 297 297 298 304 309 314 316 318 318 319 319 320 305 303 302 308 310 309 310 310 314 312 310 305 301 298 296 294 293 292
288 284 277 276 276 276 280 279 282 287 290 291 294 294 296 297 296 296 296 297 298 298 300 305 309 310 311 313 312 312 313 305 306 303 306 307 307 302 306 308 310 309 307 303 300 297 295 293 292
286 284 278 272 274 276 281 279 285 290 293 294 295 296 295 294 296 296 297 297 297 298 298 299 302 305 307 308 307 307 307 307 306 302 301 304 306 308 306 305 307 307 306 304 300 298 296 295 293
287 283 286 280 270 274 279 283 288 290 292 292 292 293 291 295 296 295 296 296 296 297 298 299 299 300 301 303 303 303 303 303 302 300 300 300 300 300 302 303 304 304 304 302 299 298 295 295 294
288 291 283 281 272 271 278 278 282 288 289 292 293 294 294 296 296 296 296 295 296 296 297 298 299 299 299 300 301 302 301 301 300 299 298 297 297 297 298 300 302 301 301 301 299 298 296 295 294
286 285 285 285 281 277 274 279 286 288 293 292 293 293 293 294 294 293 293 294 294 295 296 297 297 298 298 299 299 299 299 300 299 298 297 297 295 294 294 296 299 299 298 298 298 297 296 294 294
287 286 286 280 277 279 279 281 291 293 293 294 293 293 293 293 292 292 293 293 293 294 294 295 296 296 297 298 297 298 298 298 297 296 295 293 294 291 293 292 294 295 296 296 296 296 296 294 293

GFSSGP_sfc_thetae_102.txt.gz
Theta_e
314 309 308 305 297 291 287 288 291 293 293 295 302 299 301 302 297 292 320 331 334 338 343 344 348 347 344 343 342 342 344 344 343 346 346 344 342 339 338 339 342 340 341 343 340 338 337 336 336
310 310 306 298 291 285 286 291 292 294 297 304 301 301 303 302 314 320 324 333 337 340 343 344 345 346 344 342 342 342 343 343 343 344 346 343 341 339 338 337 340 339 339 340 339 338 336 335 334
310 306 302 294 287 286 287 290 292 294 297 297 300 304 304 307 313 322 327 336 338 340 343 342 344 346 344 343 342 343 342 341 342 343 344 344 341 339 337 337 338 337 339 338 338 338 338 337 336
305 301 297 290 286 290 291 292 296 296 298 300 302 300 306 315 321 327 334 336 337 339 342 342 345 346 344 343 342 342 340 340 342 341 342 344 341 339 337 336 337 335 338 340 339 338 337 337 337
301 297 292 289 288 291 291 295 296 295 297 299 300 298 304 317 325 332 334 336 336 338 340 342 344 345 345 343 342 341 341 341 341 341 342 343 341 339 337 335 336 335 336 337 337 336 335 335 335
297 295 289 286 288 291 295 295 295 293 296 298 301 303 307 317 326 329 334 334 337 338 339 341 337 340 342 342 342 342 341 341 340 342 344 343 342 339 337 334 334 334 334 334 334 334 334 333 333
295 292 288 288 287 290 295 297 293 293 294 296 304 300 302 312 325 330 331 334 336 338 340 340 338 337 336 338 338 340 340 340 340 343 343 342 340 339 336 334 334 333 333 333 333 332 333 332 331
297 293 288 289 289 289 293 296 295 295 295 298 304 297 298 315 327 328 329 331 334 337 338 339 338 336 335 334 332 334 336 337 337 337 334 333 333 333 332 329 333 332 332 331 330 331 331 330 329
295 290 287 288 289 290 292 294 293 296 296 298 299 301 305 321 326 326 326 330 332 334 335 337 339 336 333 332 329 329 331 332 331 329 326 324 324 323 323 325 329 331 330 329 328 328 328 326 324
294 290 290 292 290 291 294 293 296 296 296 298 300 304 311 322 326 325 326 326 328 329 332 335 336 337 334 334 328 327 327 327 325 323 322 321 320 321 322 322 325 329 326 329 327 323 319 313 309
292 291 293 291 292 295 295 292 295 294 294 296 298 301 312 317 323 325 323 326 328 330 332 333 335 337 336 333 330 325 323 322 322 321 319 318 318 318 319 321 316 316 317 318 313 308 307 307 308
290 292 293 295 294 294 293 295 293 294 296 295 298 303 312 318 321 324 322 323 325 327 331 333 334 334 336 334 331 328 322 319 318 318 318 317 315 315 314 314 311 311 309 306 305 304 304 304 304
290 290 292 294 293 291 293 291 292 293 296 295 296 306 311 319 321 323 324 322 323 326 329 333 334 333 334 334 332 328 324 319 317 316 316 316 314 313 312 311 309 307 305 305 303 303 303 302 301
293 292 291 292 291 292 290 288 290 292 291 293 296 301 308 315 318 317 319 320 321 326 328 332 332 333 334 333 332 329 326 323 318 316 315 315 314 312 311 309 307 304 304 303 302 301 301 299 299
293 289 289 291 291 291 292 289 291 290 291 291 293 295 303 308 310 316 321 322 323 326 327 329 332 333 332 332 332 331 325 322 320 319 316 314 313 311 309 307 306 303 302 300 299 298 298 296 296
288 287 284 287 291 291 289 285 289 291 290 292 291 290 292 298 307 311 315 318 319 322 325 328 332 332 332 331 331 331 329 322 321 319 318 314 313 312 311 309 305 302 299 298 298 298 297 295 294
286 280 282 287 291 290 288 285 290 291 292 292 292 292 292 292 293 297 308 314 316 320 324 326 329 330 331 332 331 331 330 326 320 317 317 317 315 314 313 311 307 303 299 297 300 299 298 295 293
282 282 283 282 287 289 287 288 291 292 291 291 291 291 291 292 295 295 296 306 313 316 322 326 328 330 330 332 331 331 330 328 324 318 319 318 316 315 313 311 307 305 300 298 298 296 295 294 293
286 283 282 284 288 288 287 287 290 291 290 291 291 292 292 293 295 295 295 295 304 310 316 322 324 327 328 330 328 328 327 328 326 322 320 320 317 315 313 311 308 305 301 298 297 292 294 290 290
285 283 282 285 288 288 285 287 289 290 291 292 293 292 292 291 291 293 294 293 295 305 312 318 323 326 327 329 330 330 329 329 328 326 322 322 319 316 313 311 308 306 302 297 296 294 290 290 291
282 283 282 283 284 285 283 283 284 287 288 290 292 292 292 292 292 293 294 293 292 294 305 313 319 324 327 329 329 324 326 324 326 326 324 322 321 317 315 313 310 307 304 299 297 296 296 288 291
282 287 286 284 283 279 282 276 281 284 287 288 291 290 289 289 290 290 291 291 292 292 294 305 313 319 324 327 327 327 326 324 326 327 326 322 321 320 318 315 311 308 305 301 298 298 298 295 290
284 287 286 283 281 280 279 278 281 282 285 288 288 289 291 294 293 294 295 295 294 294 292 296 306 313 319 324 327 327 325 327 327 326 323 322 321 321 319 317 313 308 307 304 300 298 297 297 296
289 286 284 282 280 276 280 280 279 281 285 285 288 288 291 291 293 293 294 295 295 296 300 301 304 309 315 320 324 326 325 324 318 322 322 320 320 320 319 318 315 312 308 306 302 300 298 299 299
284 283 277 275 274 276 278 278 280 285 286 285 286 290 290 290 292 292 292 293 294 295 296 303 306 307 311 315 315 318 320 315 316 317 320 315 313 310 316 317 316 313 310 309 306 301 299 297 297
283 283 278 271 272 275 280 277 283 286 288 289 291 290 291 291 292 292 292 293 293 294 295 296 301 304 306 309 310 310 311 309 308 313 315 316 316 316 316 314 315 314 312 309 307 302 300 299 297
284 281 284 277 267 272 277 281 286 287 290 290 291 291 290 289 291 291 292 292 293 294 295 296 297 297 300 303 304 305 307 306 307 306 308 310 310 309 310 310 310 309 309 308 306 302 299 299 297
286 288 280 278 269 269 276 277 280 284 288 289 289 289 290 290 291 291 291 292 293 293 294 295 296 296 297 298 300 301 301 301 302 300 300 300 300 300 300 304 305 306 305 305 304 302 300 299 298
284 282 282 283 279 274 271 277 283 286 289 289 289 290 289 289 289 289 290 291 291 292 292 293 294 295 296 297 297 297 297 298 298 297 297 297 296 296 296 297 302 302 301 302 302 302 300 298 298
285 285 284 281 276 276 278 278 287 289 291 291 290 291 290 290 290 290 290 291 292 291 292 292 293 293 293 294 294 295 295 295 294 295 295 294 294 293 293 293 293 297 299 300 300 300 300 298 296

GFSSGP_sfc_thetae_105.txt.gz
Theta_e
316 311 312 309 302 296 292 295 298 298 299 302 310 306 308 308 304 299 326 333 334 341 345 348 347 345 343 342 343 345 347 347 347 346 344 341 340 340 341 341 343 345 341 339 337 338 337 337 338
312 312 309 302 296 290 291 295 296 298 302 305 306 307 307 306 319 324 328 335 338 343 345 347 345 346 343 343 344 345 345 346 346 345 343 341 339 339 341 339 342 342 340 338 337 336 336 336 336
312 308 306 297 291 290 291 295 297 300 304 302 305 309 309 310 319 327 332 337 341 342 345 344 344 346 344 343 344 344 345 346 345 346 343 341 339 338 339 338 338 341 339 338 338 338 337 336 337
307 304 300 294 292 294 295 296 298 299 301 302 306 305 311 319 324 330 336 340 340 342 344 343 345 346 345 344 344 343 344 345 343 345 343 341 340 338 339 338 339 339 340 340 339 339 338 338 337
303 300 294 292 294 295 295 298 298 298 300 302 304 303 309 323 330 334 337 339 339 341 343 344 344 344 344 344 343 343 343 344 343 344 344 343 339 337 337 336 336 340 338 337 337 336 337 336 336
300 298 292 290 293 295 298 299 299 299 300 302 304 306 312 322 330 333 337 337 340 340 343 344 338 340 342 342 343 342 342 343 343 344 344 343 340 337 336 336 335 335 335 335 336 336 335 334 333
298 295 292 291 292 295 298 298 297 297 298 301 306 304 309 319 330 334 336 338 339 340 341 343 343 339 336 338 339 340 341 341 343 344 344 341 339 338 336 336 335 335 333 333 335 335 333 333 331
297 295 291 291 291 293 297 298 299 298 298 304 308 301 303 318 330 332 335 335 337 337 338 341 341 341 340 340 332 334 337 337 339 338 336 333 333 333 331 331 332 334 334 333 332 333 331 331 329
299 292 290 292 292 294 295 297 298 300 300 301 306 304 309 324 329 330 331 331 332 334 336 339 339 339 338 337 332 331 331 332 331 331 327 327 331 329 329 327 329 332 330 330 330 330 328 326 325
296 291 292 295 294 294 295 296 298 298 298 299 302 306 318 326 328 325 325 327 328 330 332 337 338 338 336 334 334 334 334 334 333 331 330 329 328 327 326 324 327 329 329 327 326 324 320 319 320
295 292 294 294 295 296 296 295 297 297 296 299 300 303 317 322 326 325 326 328 328 331 332 335 336 337 336 334 333 332 331 331 330 328 327 326 326 326 326 326 325 326 321 321 319 315 317 317 318
294 294 294 296 297 296 295 296 295 296 299 300 300 305 316 319 323 325 326 327 328 329 331 333 335 336 336 335 332 330 328 328 327 326 325 324 324 324 323 323 322 322 320 316 314 314 314 314 313
292 293 293 295 294 293 295 294 295 295 298 297 299 307 314 321 323 327 328 327 329 328 330 332 334 334 336 334 333 329 327 326 326 324 323 323 323 322 321 320 319 317 315 313 312 312 312 311 310
293 293 292 293 293 294 292 291 293 293 295 294 297 302 309 318 322 322 323 324 326 329 330 332 333 334 334 334 333 329 328 326 324 323 323 322 322 321 320 317 316 313 313 311 311 311 310 309 308
293 291 291 292 292 292 293 291 292 293 293 293 295 297 302 310 317 321 325 325 326 328 331 332 332 333 332 333 333 331 329 325 323 323 322 321 320 320 318 316 313 311 310 308 307 307 306 306 304
290 289 286 289 293 292 291 287 290 293 291 293 293 293 294 298 310 317 321 324 324 327 328 332 332 332 332 332 333 332 327 325 324 322 322 320 319 319 317 315 313 309 307 307 307 306 305 303 303
286 283 284 287 291 292 290 288 291 293 292 293 293 293 293 294 295 300 313 319 323 325 327 329 332 331 331 332 332 332 330 325 324 322 321 320 318 318 316 314 311 307 306 306 305 304 305 302 297
283 283 283 284 288 289 288 289 291 293 292 293 293 293 294 294 296 298 297 307 317 321 326 328 330 332 331 332 331 331 330 328 324 321 321 319 319 317 316 314 308 306 304 302 303 302 301 301 298
286 284 283 285 289 288 288 288 290 292 292 292 293 294 294 295 298 297 298 298 303 313 320 325 327 331 331 330 328 327 327 327 324 322 321 319 319 317 315 313 309 306 304 303 301 297 297 296 296
285 284 283 286 289 289 286 288 290 291 292 293 294 293 294 293 294 295 295 296 296 302 312 319 325 328 330 331 330 330 329 329 327 325 321 321 319 317 315 313 309 307 304 301 300 298 295 292 294
284 284 284 285 285 285 284 284 285 288 289 290 292 292 293 293 293 293 294 295 295 295 303 313 321 326 329 331 330 329 328 326 326 324 322 321 319 317 315 313 311 309 306 302 300 300 300 295 293
283 287 286 285 284 280 283 278 283 285 287 289 291 290 291 294 294 294 296 296 295 296 295 308 315 322 326 329 329 327 326 324 326 327 325 322 321 318 317 314 312 311 308 304 303 301 301 299 296
285 287 286 285 282 281 280 280 282 283 286 288 289 292 292 294 295 295 295 296 297 299 297 297 308 316 322 327 328 327 325 326 327 327 325 322 321 321 319 316 314 310 309 308 304 301 302 300 300
288 285 284 282 280 277 280 281 280 282 286 286 289 289 291 291 293 294 295 296 297 298 304 303 303 309 316 323 326 327 325 324 321 323 324 322 320 320 320 318 316 313 309 308 305 303 301 303 302
285 283 277 276 275 276 278 278 281 286 286 286 289 290 291 292 293 293 294 294 296 297 298 306 308 310 314 318 321 325 325 324 322 320 322 319 317 317 319 318 317 313 311 310 307 304 301 300 300
283 283 278 272 273 276 280 278 282 286 288 291 292 291 292 292 292 292 293 294 295 296 297 298 302 306 311 314 315 317 318 318 317 318 320 320 319 320 318 317 318 316 313 311 308 304 302 301 300
285 282 284 277 268 274 278 281 285 287 290 290 291 291 290 291 291 292 293 293 294 295 296 297 298 298 301 305 309 311 312 312 312 312 313 313 313 311 313 313 312 312 312 310 309 306 302 301 299
286 288 281 279 271 270 276 278 280 286 288 289 289 289 289 290 290 290 291 292 293 293 294 296 297 296 297 299 300 302 303 305 305 305 306 306 306 306 306 306 307 308 307 307 307 305 303 300 299
283 282 282 282 279 274 271 277 283 285 289 289 288 289 289 289 289 290 291 291 292 293 293 293 294 294 295 296 297 298 298 299 300 300 300 301 301 300 300 301 303 304 304 303 303 303 302 300 300
285 284 284 280 276 276 277 278 287 287 291 290 289 290 290 290 290 290 290 291 291 291 291 291 291 292 293 294 295 295 295 296 296 296 297 297 297 297 297 297 297 298 301 302 301 301 301 299 298

GFSSGP_sfc_thetae_111.txt.gz
Theta_e
324 320 323 320 307 306 300 302 309 309 309 315 318 314 313 313 309 308 334 334 337 341 346 346 346 344 345 345 346 348 348 345 342 341 343 341 341 344 342 341 341 339 340 341 342 342 342 341 340
320 319 322 315 304 298 299 305 305 310 314 317 317 313 311 313 323 328 331 335 340 343 346 345 343 345 343 344 346 348 348 346 342 341 342 342 340 342 341 340 341 340 338 338 339 339 339 339 339
319 318 314 308 305 300 299 305 308 310 314 314 313 317 313 315 325 330 336 336 341 342 346 342 343 345 343 344 346 347 348 347 343 341 340 341 338 339 340 340 340 341 338 337 338 338 338 338 338
316 315 313 304 301 303 304 306 310 309 309 313 314 310 318 327 328 335 337 337 340 342 344 342 344 345 344 344 345 346 347 346 345 342 340 339 338 339 341 342 341 341 340 340 340 339 339 338 338
316 313 304 303 303 303 305 308 310 308 309 311 312 308 314 326 336 338 336 338 339 342 344 343 343 344 345 344 344 345 346 346 345 343 339 339 337 338 340 339 339 338 339 339 338 338 338 337 337
308 310 302 300 302 304 306 309 310 309 309 310 309 308 316 332 334 336 337 339 341 342 343 343 338 340 342 343 344 344 344 345 345 343 340 339 337 337 338 337 337 335 338 338 337 337 336 335 334
308 305 303 303 301 302 304 310 308 308 307 307 312 306 318 328 335 337 338 340 341 343 341 341 341 338 337 339 340 341 342 343 344 343 341 339 339 338 337 336 333 334 335 336 335 334 334 333 332
309 307 302 303 300 300 307 307 309 307 306 312 314 306 309 325 336 337 338 339 340 341 339 340 340 339 339 340 334 336 338 340 341 340 336 333 333 333 332 330 333 333 335 335 333 332 332 331 329
310 303 300 301 302 303 307 305 308 309 307 309 313 311 319 332 336 336 336 335 337 337 338 339 338 339 338 338 334 332 333 334 334 333 329 328 333 332 329 328 331 332 333 334 333 331 329 327 326
306 302 303 307 307 305 307 307 307 306 306 306 310 315 326 332 333 332 331 331 332 333 336 337 339 339 338 336 337 337 337 339 340 339 335 335 334 333 330 325 326 328 329 330 329 326 324 325 326
305 302 306 306 307 307 307 307 309 306 304 307 307 312 324 328 330 331 331 331 331 333 335 337 338 338 337 336 337 337 335 337 338 338 337 335 333 332 330 328 327 327 322 325 325 324 326 326 326
301 303 304 305 304 305 305 308 305 307 307 309 312 314 321 326 327 328 330 333 333 333 333 336 338 338 337 337 337 337 336 336 336 337 336 335 333 331 330 327 326 328 325 324 324 324 325 325 325
301 302 301 303 303 304 305 305 305 305 310 309 309 312 318 322 326 328 329 331 335 332 333 335 337 337 337 336 337 335 336 335 335 335 336 334 332 331 329 327 328 327 325 323 323 323 323 323 323
302 302 302 302 301 302 303 303 302 306 308 308 307 309 313 318 323 326 328 329 331 334 333 334 336 337 337 336 336 335 336 335 335 334 334 333 332 331 328 326 326 326 324 322 322 322 322 322 322
301 298 300 300 301 300 302 299 299 307 304 303 304 306 309 313 319 323 327 329 331 333 335 333 334 336 337 337 336 336 335 335 334 333 333 332 332 330 327 326 326 325 324 321 321 321 322 320 321
298 299 294 300 300 300 301 296 304 306 303 303 305 306 306 310 314 321 325 328 331 333 334 336 334 334 335 336 336 336 335 334 332 333 333 331 331 330 327 325 325 325 322 320 319 319 318 319 318
296 292 294 294 300 300 298 297 303 303 301 302 304 305 305 307 310 316 323 326 329 332 333 334 335 333 334 335 335 335 335 333 333 332 332 331 330 329 327 326 325 324 320 318 318 318 318 317 317
292 292 293 294 296 297 297 297 301 302 302 302 304 305 305 305 306 309 314 322 327 330 333 334 336 334 333 334 334 335 334 332 334 332 331 332 330 329 327 326 325 323 320 318 318 317 318 317 316
295 294 292 295 296 296 296 296 299 302 302 302 303 304 306 306 309 310 310 312 318 326 329 331 332 335 333 331 330 330 329 330 330 331 331 331 330 329 328 327 324 321 319 318 316 315 314 312 316
294 293 292 293 295 295 296 295 299 301 302 303 303 304 306 307 308 308 308 310 310 312 321 327 330 333 335 332 332 332 331 331 332 331 329 329 330 329 327 326 323 320 317 314 312 307 306 307 311
293 292 292 291 293 295 293 292 295 300 301 303 304 305 306 307 307 308 308 307 309 310 311 314 324 330 333 332 331 331 331 330 329 329 327 327 327 327 327 326 322 317 314 311 309 308 308 306 303
290 294 293 291 291 287 293 286 295 297 297 298 300 303 304 304 304 305 306 307 308 308 311 310 313 320 329 335 330 329 327 325 327 328 329 326 325 324 323 322 321 318 314 312 311 310 306 306 302
292 295 293 292 291 290 290 287 292 294 294 297 301 302 303 305 305 305 306 306 308 311 311 309 308 313 320 328 331 329 327 328 330 329 326 326 324 324 323 321 319 315 315 312 310 307 306 307 306
295 293 293 292 290 283 289 288 289 293 294 296 299 301 302 303 304 304 305 306 309 314 315 309 307 309 316 322 329 327 327 326 326 327 325 325 324 322 321 320 321 319 317 315 313 310 308 306 306
295 291 284 283 283 282 287 287 290 297 296 296 298 299 301 302 303 304 304 305 307 310 314 312 307 311 316 322 325 328 326 325 325 326 326 323 321 320 321 321 320 321 319 316 313 311 307 305 304
291 291 286 281 281 284 285 283 290 297 297 297 297 300 301 301 302 302 303 304 305 307 312 314 312 313 315 320 323 325 323 324 324 325 327 324 322 322 323 322 322 321 318 316 313 309 306 304 303
290 288 293 284 281 284 287 290 295 296 295 296 296 298 299 301 301 302 302 303 304 305 307 311 312 312 315 318 319 318 319 320 320 320 321 321 319 316 319 319 318 316 315 313 310 308 306 304 303
293 295 285 287 282 280 285 287 289 292 293 295 296 297 299 300 300 301 302 302 303 304 305 306 309 310 309 310 311 312 312 311 311 312 310 310 309 309 310 311 311 311 311 310 310 308 306 304 303
289 289 290 290 288 283 281 286 295 296 297 296 297 298 299 298 299 300 300 300 301 302 303 304 305 306 307 308 307 306 306 307 307 307 307 307 309 309 310 312 313 312 310 309 307 306 305 303 303
294 290 291 286 284 286 285 287 295 295 296 300 299 300 300 300 299 299 299 299 299 299 300 301 302 301 302 303 303 303 304 304 303 303 303 304 304 305 304 304 305 306 306 307 305 304 304 303 301

GFSSGP_sfc_thetae_114.txt.gz
Theta_e
324 319 317 317 303 302 297 300 306 305 306 309 314 309 307 312 310 308 328 332 339 341 344 343 345 347 347 348 348 348 347 344 343 343 342 345 344 341 339 339 339 341 341 343 344 344 343 342 342
316 317 316 312 299 295 294 302 303 307 310 313 311 307 308 310 322 324 324 334 340 343 343 341 343 346 346 347 348 348 346 344 342 343 341 342 342 342 340 339 341 339 339 341 342 342 341 341 340
318 315 310 303 299 296 295 301 305 308 311 310 308 310 309 314 324 326 331 335 340 341 342 341 343 346 346 348 348 348 346 345 342 343 340 340 341 340 339 340 339 338 338 338 338 338 339 339 339
314 310 310 299 298 299 299 302 306 306 306 308 309 307 316 324 325 330 332 337 337 341 340 341 344 345 346 346 348 348 346 345 343 341 339 340 340 340 343 342 342 341 340 339 340 340 338 338 338
312 309 299 297 299 299 300 305 306 304 304 305 306 304 313 326 333 331 331 336 339 340 339 341 343 344 345 346 347 347 346 345 344 342 339 339 340 340 340 340 340 340 339 338 339 338 337 337 336
304 306 297 295 298 300 300 305 306 303 303 305 302 305 315 328 330 330 332 334 341 339 339 339 337 340 342 344 344 345 346 345 343 342 340 338 339 339 339 338 338 339 338 337 337 336 335 335 334
305 301 297 299 297 298 301 303 301 302 301 303 305 301 316 323 330 331 332 335 340 340 339 338 338 337 336 339 339 342 344 344 342 342 341 339 338 338 337 336 333 334 336 336 335 334 334 333 331
306 304 299 298 297 297 302 303 303 302 302 306 308 301 308 322 331 332 333 334 338 338 338 336 335 336 336 335 333 336 338 340 340 338 335 333 332 332 331 328 330 333 334 334 333 333 332 330 329
308 298 296 297 298 298 303 300 302 302 303 302 307 309 318 329 330 329 329 332 335 335 336 336 334 334 334 335 332 331 333 334 333 331 328 327 327 327 327 326 328 330 335 334 332 330 329 327 326
302 298 300 304 300 300 302 302 302 298 300 301 306 312 326 328 328 326 326 328 332 332 335 335 335 332 333 335 333 334 335 336 335 333 327 331 330 328 326 322 325 327 329 331 330 326 325 324 320
302 300 302 302 303 305 303 302 304 299 298 301 303 312 323 324 326 326 327 328 330 333 334 336 336 334 334 332 332 331 332 333 336 334 331 332 328 324 324 321 320 319 320 320 322 319 320 320 319
299 301 301 304 302 303 303 304 299 300 299 304 305 314 321 322 325 326 327 329 329 331 333 335 336 336 333 334 331 331 329 331 333 335 333 331 327 324 323 320 319 319 318 318 319 318 319 319 320
299 300 301 302 301 301 303 301 299 300 303 304 307 314 318 321 321 326 329 331 330 330 332 334 336 335 335 332 332 332 331 330 331 331 333 332 327 324 323 321 320 320 319 317 316 317 317 317 318
299 300 299 300 299 300 300 297 298 301 303 303 304 306 313 317 320 320 323 324 330 331 331 334 335 336 335 334 332 332 332 331 330 330 330 330 327 324 322 321 321 319 317 316 316 316 316 316 316
299 296 296 297 298 296 297 294 295 297 299 301 302 302 305 310 316 319 322 323 325 331 332 332 334 336 335 334 334 332 332 331 330 329 329 328 327 325 322 320 319 319 318 315 315 315 316 314 316
294 294 290 296 297 297 295 290 299 300 298 298 298 298 300 303 308 315 319 324 326 327 331 331 332 334 335 334 334 334 333 331 330 330 330 327 327 325 321 320 319 319 316 314 313 313 313 312 312
291 286 289 292 298 296 294 292 297 297 297 295 297 298 299 300 304 308 315 320 324 327 330 331 331 331 333 334 334 334 333 331 330 330 329 328 326 325 322 320 319 318 315 312 312 312 312 311 310
287 286 289 289 292 293 292 292 295 296 296 295 296 297 297 298 301 305 311 317 322 324 327 331 332 331 331 332 333 333 332 331 330 329 328 329 327 325 322 320 319 317 314 311 311 310 311 310 310
290 290 289 291 293 291 291 292 294 296 295 296 296 297 298 299 301 302 306 310 316 321 324 328 331 331 330 330 329 329 329 330 329 330 329 328 328 326 322 320 318 316 313 311 310 309 309 308 309
290 289 288 290 294 291 290 291 294 296 296 297 297 296 298 298 300 302 302 303 306 312 319 324 326 331 330 329 330 330 330 330 330 330 328 328 327 327 322 320 318 315 312 311 309 307 306 307 308
289 288 287 288 290 290 287 287 290 294 297 297 298 298 299 299 299 301 301 301 302 302 304 315 322 325 331 330 330 329 330 328 328 328 328 328 327 326 325 322 319 315 313 311 309 306 306 302 303
286 291 291 289 287 281 287 279 286 290 292 294 296 296 297 298 298 299 300 299 301 301 303 305 306 315 324 330 327 327 326 325 327 328 328 326 326 325 324 323 321 316 313 311 309 306 307 305 302
289 292 290 289 286 283 283 280 284 289 289 292 294 295 296 297 300 300 301 303 303 305 305 305 304 304 310 325 328 326 325 326 326 327 326 325 323 323 323 321 320 317 314 312 310 308 307 307 306
293 290 289 287 285 278 284 283 283 287 290 290 292 295 298 299 299 300 301 302 304 307 309 308 303 302 305 311 326 326 325 324 323 324 324 324 322 321 321 320 320 318 314 312 311 309 307 306 306
290 286 279 277 277 277 282 281 285 290 291 292 294 295 296 299 299 299 299 300 302 304 309 308 303 302 306 310 314 324 325 325 324 323 324 323 321 319 319 319 318 318 317 315 313 310 307 306 306
287 286 280 274 276 277 281 278 284 292 292 291 293 296 296 297 299 299 299 300 301 303 307 307 307 308 310 313 316 317 321 323 323 323 324 323 322 321 321 319 319 318 318 316 313 311 308 306 305
287 283 287 280 274 276 280 284 290 291 291 292 291 295 295 296 297 298 298 299 300 301 302 307 307 307 310 311 312 312 317 318 319 318 318 320 319 316 319 319 318 317 316 314 311 309 306 304 303
288 290 281 282 272 272 278 279 283 287 289 291 291 292 295 297 298 298 298 298 299 299 301 302 306 306 305 306 307 308 309 311 311 311 310 309 309 309 311 311 311 311 310 310 309 307 306 303 302
285 285 285 285 282 276 274 279 287 289 291 290 290 293 295 296 296 297 297 297 297 298 299 300 301 303 305 305 305 304 305 306 306 305 305 307 306 307 308 308 310 309 308 307 306 305 304 303 302
289 286 286 280 278 280 280 281 291 290 290 292 293 294 295 296 296 296 296 295 296 296 297 297 297 297 298 300 300 300 300 300 299 299 300 301 301 300 300 300 300 300 301 301 300 301 301 301 300

GFSSGP_sfc_thetae_117.txt.gz
Theta_e
318 312 309 309 298 295 292 296 301 303 303 305 308 310 309 310 311 304 325 336 341 341 343 343 347 348 348 348 348 346 346 345 343 346 345 342 341 339 338 339 342 343 345 346 345 344 343 343 344
312 315 311 303 293 289 289 297 301 303 306 308 309 306 309 310 321 321 327 339 342 341 341 342 344 347 348 348 347 346 345 346 342 343 343 342 341 340 339 338 340 340 341 342 343 342 341 341 343
314 313 304 297 292 290 291 297 302 305 308 307 304 308 311 314 321 321 331 341 341 339 340 340 344 347 348 348 347 345 344 345 344 341 341 341 340 339 339 340 338 340 338 338 340 340 340 340 340
309 305 304 295 291 296 295 300 304 302 304 305 305 307 314 324 324 327 336 340 339 337 339 341 344 347 348 348 347 346 344 344 343 340 340 340 340 343 342 342 342 340 340 340 338 338 339 339 337
306 302 296 291 292 294 297 302 303 301 300 301 303 303 311 325 327 328 335 339 336 335 338 340 343 345 346 347 347 346 345 344 343 341 340 341 340 341 340 341 341 338 339 339 338 337 337 336 335
299 299 291 288 292 295 297 302 302 299 300 300 303 309 312 326 325 326 337 338 337 335 338 339 336 339 342 345 346 345 345 343 343 340 339 340 339 340 339 339 340 338 337 337 335 336 335 334 333
299 296 291 291 294 295 298 301 301 298 300 299 302 307 315 323 325 327 337 338 337 337 336 337 337 336 336 338 340 342 343 342 341 341 340 338 338 337 336 335 335 336 336 335 333 334 333 331 331
301 298 292 292 293 294 299 300 301 299 299 304 306 304 310 320 327 328 336 337 335 335 335 334 334 336 335 334 333 336 339 339 339 337 333 331 331 331 330 328 332 335 334 334 333 332 331 329 328
305 295 292 295 295 296 299 297 300 300 302 302 306 308 317 327 328 326 333 334 332 332 333 333 333 333 333 333 330 331 333 333 332 330 327 325 326 324 324 325 329 334 335 333 331 330 328 326 324
297 294 296 300 298 297 299 299 300 297 298 300 309 321 325 326 325 323 327 329 331 328 332 332 332 331 332 335 331 332 332 333 331 328 326 326 324 324 323 321 324 328 329 331 329 327 326 323 318
297 295 297 298 301 302 300 298 299 296 295 301 306 318 322 322 323 323 323 328 329 331 333 333 331 330 331 331 330 330 331 333 331 327 325 328 326 322 320 318 318 317 318 319 321 319 318 318 318
295 299 298 301 301 301 299 300 299 298 299 302 309 321 321 321 322 323 323 325 328 332 333 335 333 331 331 331 330 329 330 330 332 332 329 329 325 320 319 317 317 316 316 315 316 316 317 317 318
296 295 299 299 300 299 302 298 298 298 300 304 309 321 320 321 322 325 326 326 327 329 331 334 334 334 332 331 329 329 327 329 329 333 332 330 325 320 319 318 317 317 316 315 314 315 316 316 316
297 296 297 297 297 298 299 295 296 299 300 304 312 316 318 320 322 324 326 326 326 328 330 333 334 334 333 331 331 331 330 330 329 328 330 331 325 322 320 318 317 318 316 315 314 315 314 314 315
297 294 295 293 296 295 296 293 295 297 300 299 303 307 314 319 320 321 326 327 329 329 330 332 333 334 333 332 331 330 331 331 330 330 328 328 325 323 320 319 317 317 314 314 313 313 313 313 313
293 292 288 293 296 295 295 290 297 298 297 297 297 297 301 309 316 320 321 323 330 330 328 330 333 334 334 333 333 332 331 330 330 330 331 327 325 324 320 318 317 317 314 312 312 311 311 310 311
288 284 287 290 295 294 292 289 295 295 294 293 293 294 295 298 301 309 316 322 325 330 329 329 330 332 333 334 333 333 333 330 329 329 329 329 325 324 320 318 317 316 313 311 311 310 310 308 308
285 284 286 287 291 291 289 291 293 294 293 293 292 293 293 296 299 303 308 316 323 328 330 330 329 329 332 333 333 333 332 331 329 329 328 328 328 324 320 318 317 316 313 311 309 309 309 309 309
289 287 286 287 292 291 290 290 293 293 292 292 292 293 294 295 298 300 305 311 318 322 328 329 328 328 329 330 330 330 329 330 329 328 328 328 328 326 321 318 316 314 312 311 309 308 307 306 307
288 286 285 288 291 288 288 289 291 293 293 294 294 294 294 295 297 297 300 305 312 317 323 328 329 328 328 328 329 330 330 330 330 330 328 328 327 326 324 319 316 314 311 309 308 306 304 305 307
286 286 285 287 288 288 285 284 288 291 293 294 294 295 296 296 297 297 297 300 302 308 314 320 328 329 329 328 328 325 328 328 327 327 327 327 327 326 325 322 320 315 313 311 308 307 307 305 306
285 289 289 288 283 280 284 278 284 288 290 292 294 294 295 296 295 297 297 296 296 298 301 302 307 323 329 328 326 325 324 323 327 327 328 327 326 325 324 323 321 318 316 313 312 309 308 306 304
287 290 289 287 284 281 281 279 282 285 287 291 293 293 293 294 296 297 300 301 302 303 303 304 304 302 307 328 327 326 324 325 323 327 326 326 325 325 323 323 322 318 316 313 310 308 306 308 306
291 288 287 285 282 277 281 280 280 284 288 289 290 293 294 297 297 298 299 301 303 306 306 307 306 303 302 305 325 325 324 323 322 324 324 324 323 323 322 321 321 319 316 313 311 310 308 307 307
289 283 277 276 276 276 280 279 282 287 290 291 292 293 295 296 296 298 298 299 301 301 306 306 304 300 301 301 312 323 323 324 323 323 324 323 321 318 320 320 319 318 317 315 313 310 308 307 306
286 284 279 273 274 276 279 278 283 289 289 290 292 294 294 295 297 297 298 299 300 301 305 305 305 306 308 308 310 317 321 320 322 323 324 323 322 321 321 320 319 318 317 315 313 312 310 307 306
286 283 286 279 270 274 278 281 287 290 290 290 288 292 294 295 296 297 298 299 299 300 301 305 305 306 307 309 310 310 314 316 318 320 321 321 319 317 318 318 317 316 317 316 313 311 307 305 304
287 289 281 280 270 270 276 277 281 285 287 287 289 290 292 294 295 295 296 297 298 299 300 303 304 304 303 304 305 306 308 310 312 312 311 310 310 310 312 312 312 311 310 310 310 307 306 304 303
285 284 284 283 280 274 272 277 284 288 289 289 289 289 291 294 294 294 295 295 296 297 298 299 300 301 302 302 301 303 304 304 303 304 305 304 305 305 305 307 308 307 307 306 305 304 304 302 302
287 285 284 279 276 277 279 280 287 288 289 289 288 290 291 293 294 294 294 294 294 294 295 296 296 296 298 300 298 297 298 299 298 298 299 299 299 299 299 299 299 299 298 298 297 297 299 298 297

GFSSGP_sfc_thetae_123.txt.gz
Theta_e
315 310 307 305 296 293 290 293 298 300 299 302 307 306 306 310 306 297 325 333 339 337 342 344 347 347 343 343 344 345 345 344 342 340 339 339 339 341 344 346 347 347 344 343 343 343 343 341 340
310 312 307 298 292 288 289 293 298 300 306 310 307 309 309 306 317 323 325 338 337 338 341 342 345 346 343 343 345 345 345 345 342 339 338 338 339 339 340 342 345 346 343 343 341 341 340 339 338
312 309 302 295 289 289 289 294 298 301 304 302 305 310 311 311 319 324 331 338 337 337 340 340 345 347 344 343 345 344 344 344 342 339 338 338 338 337 337 338 340 343 343 342 341 340 338 337 336
306 306 302 293 291 294 293 298 301 300 300 305 308 307 313 320 323 328 337 336 335 336 338 341 345 347 345 345 345 344 343 342 341 340 341 339 339 340 340 340 339 338 340 340 339 337 337 337 336
303 301 295 290 292 294 293 302 300 300 298 300 305 304 311 320 329 336 335 335 332 332 336 340 344 346 345 345 344 343 342 341 340 341 340 340 341 338 339 340 339 337 337 337 336 335 336 336 335
299 298 292 291 292 294 297 300 299 297 298 304 309 307 311 323 332 334 335 332 333 332 335 338 337 341 343 343 343 343 342 341 341 340 339 338 339 339 337 338 337 336 336 336 335 334 334 333 333
297 295 292 289 292 294 298 300 297 298 298 299 312 308 310 318 329 333 332 332 332 333 333 335 336 337 337 339 340 341 341 340 341 340 339 337 337 340 338 337 336 333 334 335 333 331 331 331 330
298 295 289 289 291 293 296 299 298 298 296 303 314 308 309 318 331 332 331 330 330 330 331 331 332 334 335 336 333 335 337 338 338 335 332 330 330 330 331 332 335 333 332 333 331 330 329 329 329
300 292 288 292 292 293 296 296 297 298 299 301 305 314 317 325 332 330 329 329 329 329 329 329 330 331 331 333 330 330 332 332 331 328 325 322 321 321 322 328 333 334 333 331 329 328 327 323 324
295 291 292 295 295 295 297 297 298 298 299 303 309 316 321 329 330 328 326 326 326 326 327 328 328 329 329 334 331 331 331 328 326 324 322 321 321 320 320 322 327 330 330 330 328 327 323 320 315
295 294 295 295 297 298 297 296 296 297 294 303 308 315 319 326 328 326 327 328 326 326 327 328 328 328 328 329 328 334 333 326 324 322 321 321 320 318 317 316 316 316 317 317 317 316 316 315 315
292 297 295 297 299 297 296 297 294 296 297 300 312 320 319 322 325 325 326 327 325 325 326 327 327 327 327 328 327 330 332 326 323 322 322 320 318 316 315 315 314 314 314 313 313 313 314 314 315
294 294 295 296 297 296 298 295 295 295 296 307 317 319 318 320 322 325 326 327 326 325 326 327 327 327 327 326 326 327 330 330 325 323 323 321 318 316 315 314 313 312 312 312 312 312 313 312 313
296 294 294 294 295 295 296 293 295 296 299 313 317 317 318 319 321 319 322 325 325 327 327 329 328 328 328 326 326 326 328 330 326 325 324 323 320 316 315 314 313 312 312 312 311 312 311 311 312
295 291 291 292 294 293 294 292 294 295 300 312 314 315 316 318 320 321 324 325 327 328 328 328 329 329 328 327 326 326 326 328 328 327 326 328 324 318 316 314 313 313 313 312 310 310 310 310 310
292 289 286 290 293 293 293 290 294 295 299 306 311 312 314 317 320 322 323 325 327 328 325 327 330 329 330 329 329 328 327 326 328 329 331 328 326 322 317 315 314 314 313 311 309 309 308 308 308
287 283 286 287 291 291 291 290 292 293 296 298 303 307 312 314 316 318 322 325 326 326 326 326 326 327 330 330 330 330 330 329 329 331 330 329 327 324 321 317 316 314 313 310 309 308 308 306 306
283 284 285 286 291 290 289 290 291 291 293 295 297 300 301 304 311 317 319 322 325 326 326 327 327 327 327 330 331 330 329 329 330 330 330 330 329 326 323 320 316 314 311 309 307 308 306 306 306
287 286 286 285 290 290 288 289 290 291 289 291 292 292 293 295 302 300 310 318 320 323 325 326 326 326 327 327 327 329 328 329 328 328 328 329 329 327 324 321 318 315 312 310 309 310 308 304 304
285 284 284 287 290 288 286 288 290 290 291 292 292 290 292 293 294 295 295 301 314 320 325 325 326 327 327 328 328 327 329 329 330 330 327 328 328 327 325 322 319 316 314 311 310 308 303 304 304
283 283 283 286 287 286 284 285 286 290 290 291 292 293 294 295 295 294 294 295 303 314 322 325 326 327 328 328 326 323 327 327 327 327 327 326 327 326 325 323 321 318 316 314 312 309 307 307 305
283 287 287 286 284 280 283 279 283 285 288 289 292 294 294 296 294 294 294 293 297 308 316 324 326 326 327 327 325 324 324 322 325 325 324 325 326 326 325 324 322 320 317 316 314 312 311 308 306
285 288 287 284 282 280 279 278 281 282 286 289 291 292 293 294 293 294 294 293 294 300 305 313 319 322 324 324 325 324 323 324 320 320 321 323 321 323 325 324 322 321 318 317 315 310 310 310 307
288 286 285 283 282 277 279 280 279 282 287 288 287 289 291 291 291 294 298 300 300 301 301 302 303 308 315 322 324 323 323 322 318 319 321 323 325 325 324 324 324 322 320 318 316 314 312 311 310
285 282 276 276 275 276 278 277 282 285 287 287 287 289 289 291 293 296 297 299 300 300 303 303 303 302 302 301 313 325 324 324 320 321 322 323 323 321 323 323 322 322 321 319 316 314 312 310 310
283 283 277 272 272 276 279 278 282 287 288 288 287 288 292 292 294 294 296 297 298 299 302 302 302 302 303 302 299 301 322 325 324 324 323 322 322 322 323 322 322 322 320 317 315 314 313 311 310
284 281 284 278 269 274 278 280 286 287 287 287 287 289 291 292 293 294 294 296 297 298 299 301 301 302 302 303 304 300 303 319 321 320 318 320 319 319 318 317 318 318 317 316 314 313 311 308 307
286 288 282 279 271 271 276 277 280 284 286 287 287 289 289 291 293 294 294 295 295 294 296 300 300 301 301 301 306 308 310 313 315 315 315 315 314 312 315 314 314 313 313 313 312 309 307 306 304
283 282 281 282 280 274 272 277 283 285 285 286 287 288 289 291 292 293 293 294 294 294 295 296 298 299 299 300 304 306 305 306 307 307 306 305 306 307 308 308 307 306 306 306 305 304 303 302 301
285 285 285 282 276 276 277 279 285 286 286 287 287 287 286 290 292 293 293 292 292 292 293 294 294 295 295 295 296 298 300 300 300 300 300 301 301 300 300 301 300 299 299 300 299 298 298 297 296

GFSSGP_sfc_thetae_129.txt.gz
Theta_e
317 312 311 308 300 298 296 298 303 303 303 307 310 310 311 312 308 302 328 334 338 341 343 344 344 344 344 344 346 345 343 341 340 341 344 346 346 346 346 345 347 346 345 343 341 339 340 339 338
311 311 309 302 295 292 294 298 301 303 308 312 311 311 310 311 320 324 328 337 340 341 343 342 342 345 343 346 346 344 343 341 339 341 342 344 346 347 346 345 346 344 343 341 338 339 338 337 336
312 310 305 297 293 292 294 297 302 306 309 307 310 314 313 314 323 326 332 338 341 341 343 342 342 345 344 345 346 344 342 340 340 340 339 339 339 342 344 344 344 343 341 340 337 338 336 335 335
307 310 304 295 294 297 297 300 304 306 306 309 312 311 317 322 325 329 337 338 339 340 342 342 343 345 343 345 344 343 342 341 341 341 339 338 338 338 340 342 343 341 338 337 336 337 336 334 333
306 306 298 294 295 297 297 301 304 303 303 307 308 310 314 323 331 334 336 337 335 338 342 343 342 344 344 344 343 343 342 341 343 341 341 340 341 339 338 339 339 338 335 335 337 336 335 333 332
302 303 296 295 295 297 300 303 303 302 303 308 310 311 315 327 329 332 334 335 336 337 341 343 337 339 342 342 343 342 342 342 342 342 340 338 339 341 337 338 339 336 334 335 335 335 334 333 331
299 300 297 295 295 296 302 302 301 301 304 306 312 308 316 324 330 333 332 334 336 337 339 339 341 338 335 338 339 340 341 341 341 341 341 339 339 339 338 337 335 334 332 333 333 333 332 331 330
299 299 293 293 294 295 300 301 302 303 303 311 315 306 312 321 330 331 331 332 333 333 335 338 339 340 339 339 332 334 337 337 336 334 334 332 332 333 333 330 334 333 332 331 331 331 331 329 328
302 294 292 295 294 296 298 299 300 302 307 306 311 312 316 328 330 329 328 327 328 329 332 336 337 338 337 337 332 331 331 332 329 328 324 324 330 331 331 329 332 333 331 329 328 328 327 327 326
297 293 294 297 297 295 297 299 299 300 303 304 310 317 324 327 327 325 323 323 324 325 328 332 335 337 336 335 333 335 334 334 330 328 326 325 325 328 330 327 327 329 329 329 328 326 322 321 321
298 294 297 297 298 298 297 296 298 299 298 302 306 314 321 324 326 324 324 325 324 326 327 329 332 334 336 334 332 333 332 330 328 326 325 325 324 325 328 328 326 325 319 322 321 321 321 321 321
295 297 297 298 298 297 296 297 296 299 301 302 307 318 322 323 324 325 325 326 325 325 326 328 331 331 333 333 334 333 332 328 327 326 325 324 323 322 322 323 322 322 321 321 321 321 320 320 319
295 295 296 297 297 297 297 296 296 297 299 302 314 320 321 323 324 326 327 328 328 325 325 327 330 330 330 331 332 333 331 330 327 326 325 324 323 322 321 321 321 321 320 319 320 320 319 319 319
297 295 294 295 296 296 296 295 295 298 305 311 315 317 320 322 324 325 325 326 327 327 326 328 329 330 329 330 330 330 330 331 328 326 326 325 324 322 321 320 320 319 319 319 319 319 319 319 318
295 293 292 292 294 294 296 294 295 297 304 309 313 314 317 321 324 324 326 326 327 327 327 327 328 329 328 329 329 329 329 329 329 328 326 326 325 323 322 321 320 320 319 318 318 317 317 317 317
292 292 288 291 293 293 295 291 297 297 300 304 310 312 314 316 321 324 326 327 328 328 327 328 328 328 328 328 329 329 329 328 328 329 329 326 326 325 322 322 321 321 319 318 318 317 316 316 315
289 286 286 289 293 292 293 293 296 296 298 299 306 310 313 314 317 319 322 325 326 328 328 328 328 327 327 328 328 328 329 328 329 329 330 330 328 326 323 320 321 319 318 318 317 317 315 315 315
286 285 285 287 290 290 290 292 292 293 295 297 298 307 309 312 316 320 320 322 325 328 328 329 329 329 328 329 328 328 328 328 329 330 330 331 330 327 324 323 321 319 317 315 313 316 314 314 314
286 287 286 287 289 290 289 291 293 292 291 292 294 296 303 309 315 316 319 321 323 325 327 327 327 328 328 327 326 326 327 328 329 329 330 331 331 328 325 325 322 320 318 318 315 313 312 312 310
286 285 285 286 288 289 287 289 291 291 292 293 293 294 295 298 301 305 311 316 320 323 325 326 326 327 328 329 329 329 328 329 329 330 330 330 330 329 327 325 323 321 319 316 315 312 311 311 309
284 284 283 285 286 286 285 286 289 291 291 292 293 294 295 297 299 299 299 302 310 318 322 324 325 327 328 329 328 325 326 326 327 327 328 328 330 329 327 326 324 322 320 318 316 314 313 314 309
283 286 286 285 284 282 284 280 285 289 289 290 293 293 295 296 295 297 296 295 296 301 314 322 324 326 327 328 326 326 326 324 326 328 328 327 327 328 328 327 326 324 321 320 318 317 315 313 311
286 286 285 284 282 281 280 279 282 283 286 288 291 293 296 298 296 295 294 295 295 296 302 312 320 323 325 326 327 326 325 326 326 324 324 325 325 326 325 326 326 324 321 321 320 315 314 313 314
286 285 283 281 280 277 279 280 280 282 287 289 291 293 293 292 292 293 295 295 297 299 302 310 316 318 321 324 326 324 324 324 321 321 322 322 323 323 324 323 324 324 322 321 319 319 317 317 315
284 283 277 276 275 276 277 277 283 286 286 287 288 290 291 293 291 294 296 298 299 300 302 304 312 313 317 322 323 324 324 324 322 322 322 322 322 322 324 324 324 324 323 322 320 318 317 315 315
283 284 278 273 273 276 278 277 283 287 287 288 288 288 292 293 293 295 296 298 300 301 303 304 304 304 304 305 308 309 312 321 323 324 324 323 324 324 326 324 323 324 323 321 319 317 317 315 314
283 281 284 277 269 274 277 280 285 286 285 285 287 288 290 292 293 294 295 297 298 300 302 303 303 303 305 306 306 306 305 303 303 309 320 323 324 321 321 321 321 321 319 319 318 317 314 312 311
286 287 281 279 271 270 275 277 280 282 284 285 286 287 290 291 293 294 295 296 296 297 299 301 302 302 303 304 309 309 310 309 309 307 311 314 315 317 317 319 317 318 316 316 315 312 310 309 306
283 282 281 282 279 274 271 277 281 283 284 284 286 287 289 291 292 293 294 295 295 295 297 298 300 301 301 303 306 307 306 307 308 309 309 310 309 310 311 311 310 308 307 309 307 306 305 303 301
283 284 283 281 275 276 277 279 284 285 285 284 285 287 287 291 292 293 293 293 293 294 295 296 297 297 297 298 303 302 303 302 302 301 301 302 301 301 301 301 300 299 300 301 301 299 299 297 295

GFSSGP_sfc_thetae_132.txt.gz
Theta_e
322 319 322 319 307 309 302 304 309 309 311 314 318 316 315 317 311 307 334 338 340 341 342 341 345 344 344 344 344 344 344 342 343 346 346 347 346 345 346 346 347 345 342 340 340 339 338 338 337
319 317 321 315 303 300 302 306 306 311 313 316 317 317 315 314 325 328 330 338 340 340 341 338 343 344 343 344 344 343 343 343 342 343 345 346 346 345 345 344 346 344 339 339 339 338 337 335 335
316 317 315 308 304 300 301 306 310 312 314 314 314 318 317 318 327 329 337 339 339 340 341 340 343 345 346 345 343 343 341 342 342 341 340 341 343 345 343 343 343 342 338 337 338 337 335 334 333
317 320 314 305 298 302 303 308 311 312 311 313 317 313 322 327 328 334 340 340 338 340 341 341 344 345 344 344 344 342 341 342 341 339 338 339 339 341 344 343 340 339 338 336 337 336 334 333 331
318 317 308 303 300 303 304 307 313 311 310 313 315 313 317 328 334 338 339 338 337 339 342 340 343 344 345 344 343 342 342 342 342 341 340 339 339 339 340 340 338 336 337 336 336 335 333 332 331
312 314 304 302 300 303 305 309 313 311 311 314 313 314 319 331 333 335 339 337 338 339 341 341 337 340 342 343 342 342 342 343 343 341 340 340 340 339 338 339 336 335 336 335 335 334 332 331 330
310 309 305 304 303 302 306 311 311 310 311 312 317 311 321 328 332 335 338 337 338 340 341 341 340 338 335 338 339 340 341 341 341 341 340 339 339 339 337 336 336 333 334 333 333 332 331 330 330
310 310 303 305 304 303 307 309 309 311 310 316 319 309 316 328 332 335 337 336 336 339 340 342 339 340 340 339 333 335 337 337 336 336 334 332 332 332 332 331 334 332 332 331 331 331 330 329 328
309 304 302 303 302 305 307 307 307 308 312 315 318 316 323 333 332 332 332 332 332 333 335 340 339 339 339 338 334 331 332 331 329 329 326 329 333 332 331 329 332 331 330 329 329 328 327 325 324
305 302 302 305 306 304 306 308 306 307 310 310 315 322 328 330 328 327 326 327 328 328 331 336 338 338 338 336 337 337 337 336 333 333 333 332 332 332 331 327 327 328 328 328 327 325 322 324 327
303 301 302 303 304 304 304 304 306 306 307 312 312 319 325 326 326 327 328 328 328 330 331 333 335 337 338 337 337 336 336 335 333 332 332 331 330 332 332 331 330 330 322 327 327 327 327 326 327
300 302 303 303 304 302 302 305 304 306 310 309 315 322 325 325 326 327 327 329 329 329 330 331 334 335 335 336 335 336 334 333 332 331 331 330 329 329 330 329 329 330 329 328 328 328 327 326 325
301 299 302 303 302 302 302 303 305 304 308 307 315 322 324 326 328 329 330 331 331 328 329 331 333 337 333 333 334 336 335 333 333 331 330 330 329 328 328 328 328 327 327 326 327 327 326 326 325
302 301 299 301 302 302 301 301 302 306 308 310 317 320 323 325 326 328 328 329 329 330 329 330 332 335 336 332 332 333 333 333 334 332 332 330 330 330 328 328 328 327 326 325 325 326 325 324 324
300 296 298 299 301 301 302 298 299 305 308 310 314 318 321 324 327 327 328 329 330 331 332 330 331 334 334 334 332 331 331 331 331 333 333 331 331 330 329 329 329 329 327 324 324 323 323 322 322
298 298 292 299 299 300 299 297 303 305 306 308 312 316 320 322 325 327 328 330 332 332 330 334 331 332 333 333 334 332 331 331 332 332 333 333 331 331 330 329 329 330 328 326 325 325 324 323 322
293 293 293 294 299 298 299 299 302 304 304 306 310 314 317 320 323 326 328 330 331 332 333 333 334 332 332 333 333 333 333 331 332 333 331 334 333 332 331 329 328 327 323 322 324 324 324 324 323
288 292 292 294 296 296 297 299 299 300 303 304 307 311 315 317 319 324 328 330 332 333 335 335 335 335 334 333 332 332 332 333 333 333 334 334 334 332 329 327 325 323 321 320 318 319 319 319 321
297 296 293 295 295 296 297 299 302 299 299 303 304 305 312 315 320 323 325 328 330 332 333 334 334 335 334 332 330 330 329 331 332 334 335 334 334 332 329 328 326 323 321 321 319 318 317 316 315
295 292 293 293 293 294 295 296 301 299 299 301 305 305 305 309 314 317 322 325 326 328 331 333 333 334 334 334 333 333 332 333 334 335 334 334 334 332 329 329 327 324 323 321 319 316 316 316 314
293 294 293 293 292 293 292 293 296 299 299 299 299 302 304 306 307 310 315 321 326 327 329 330 331 332 334 334 335 334 334 333 332 333 332 333 334 333 332 330 328 325 324 322 322 319 317 317 314
289 293 293 291 292 289 292 288 295 299 297 297 301 302 302 304 304 307 308 312 318 324 329 330 331 332 333 334 333 331 329 328 330 332 333 333 334 333 333 332 331 329 327 327 326 324 323 320 318
292 293 293 291 292 289 288 288 293 292 294 298 301 303 304 305 305 305 305 307 309 311 319 326 329 329 331 332 333 331 330 332 333 332 333 333 333 333 332 332 332 330 331 330 329 323 321 320 322
291 291 290 290 289 284 290 288 290 292 294 299 302 303 305 305 303 301 302 303 303 304 305 309 315 322 328 330 331 330 330 330 330 330 329 330 331 331 331 328 327 328 328 326 324 324 322 320 323
292 291 284 283 282 282 284 283 290 295 296 298 300 300 299 300 300 299 300 301 302 304 306 309 314 316 322 324 327 329 330 330 329 328 328 329 328 327 328 329 327 327 329 328 325 322 320 319 319
290 292 285 279 279 283 282 283 290 295 296 296 296 297 299 300 300 300 302 304 305 306 308 309 315 317 319 321 322 324 324 326 327 327 327 326 326 327 328 329 329 329 329 328 327 323 324 319 318
289 287 291 282 277 282 285 287 291 295 293 293 293 294 296 300 300 301 303 306 307 308 309 309 310 310 311 312 312 311 310 309 309 312 314 324 327 327 328 327 324 325 328 326 325 320 319 318 316
290 292 284 285 280 278 282 283 288 291 292 292 293 294 296 299 300 301 303 304 305 307 308 309 310 310 310 311 312 312 313 313 313 313 310 312 320 320 322 323 324 322 323 322 321 315 314 312 309
288 287 287 288 286 283 280 284 291 290 291 292 294 295 297 299 300 301 302 303 304 305 307 308 308 308 308 309 311 312 312 313 313 313 312 313 313 313 315 316 315 311 310 312 311 308 307 304 301
292 290 289 285 280 282 282 286 289 291 292 292 293 293 297 300 301 301 301 302 302 303 304 305 306 306 307 308 309 310 310 310 309 308 306 307 307 305 304 303 304 302 302 303 303 301 301 299 296

GFSSGP_sfc_thetae_135.txt.gz
Theta_e
327 323 324 321 308 308 304 305 310 309 311 317 319 317 315 318 313 312 334 337 339 339 339 342 345 345 344 343 342 343 345 346 347 347 347 346 346 346 345 345 344 343 339 339 339 338 337 337 336
322 321 323 317 303 301 303 309 308 311 315 318 318 318 315 316 325 328 331 338 338 337 336 339 343 346 343 342 342 343 343 345 346 346 347 346 345 345 344 343 343 341 338 338 338 337 336 335 334
320 320 316 311 303 301 303 309 312 314 317 317 315 320 318 319 327 328 336 338 337 337 335 339 343 346 344 343 343 342 343 343 344 343 343 345 344 343 343 341 342 340 338 337 337 336 334 333 335
320 320 317 306 300 304 306 310 314 314 314 317 317 314 323 329 329 335 337 337 336 337 336 341 345 346 344 344 343 342 342 340 340 340 341 341 342 342 341 339 339 338 337 337 336 335 333 333 335
320 318 310 306 302 305 307 312 315 312 313 314 317 313 319 329 335 337 337 335 336 337 337 340 343 344 344 343 343 341 342 341 341 340 339 340 340 340 339 337 337 337 336 334 335 334 332 332 334
313 315 305 304 304 305 307 312 315 314 314 315 314 315 320 333 335 336 337 335 337 338 338 339 337 340 342 342 342 342 342 342 342 341 340 340 339 339 338 336 336 335 335 334 334 332 331 332 332
311 310 307 307 306 302 307 312 314 313 313 313 317 312 322 329 335 337 337 335 336 340 338 338 338 338 336 338 339 340 341 341 342 340 338 338 337 337 337 336 334 334 334 333 333 331 330 331 330
312 311 308 309 306 305 309 311 315 314 312 319 319 310 316 328 334 337 336 334 335 339 336 337 338 337 336 337 333 335 336 337 337 335 333 332 331 332 332 331 333 332 331 331 332 330 328 327 326
311 305 304 307 307 309 310 309 312 314 313 316 318 316 324 333 333 334 333 332 333 335 337 336 337 337 336 335 333 331 331 331 331 330 328 328 331 331 331 328 331 330 329 329 329 328 326 325 324
308 306 306 312 312 310 310 310 310 309 312 312 316 322 330 332 330 330 329 328 329 332 333 337 337 336 336 334 335 336 335 333 333 333 333 332 331 332 330 326 327 329 328 327 326 324 324 324 327
304 305 311 308 310 308 308 309 311 309 308 312 313 318 328 329 329 329 329 329 329 329 333 335 336 337 336 335 336 336 335 334 333 333 332 331 331 330 331 330 328 329 323 326 326 326 326 327 326
301 305 307 309 307 306 306 309 307 310 311 312 317 321 327 327 327 328 327 328 328 329 330 333 335 336 337 336 336 336 334 333 332 332 332 330 330 331 330 329 328 328 327 327 327 327 327 326 325
300 305 307 307 306 306 306 306 307 309 314 311 315 322 324 326 328 329 330 330 330 329 330 332 333 334 334 333 335 335 335 333 332 331 331 330 329 329 329 329 328 327 326 324 325 325 325 325 325
307 305 305 305 305 304 303 305 304 308 313 310 314 319 323 324 327 328 329 329 330 330 330 331 333 336 334 333 333 334 335 334 334 333 332 331 331 330 329 329 328 328 326 324 323 324 324 324 324
303 300 301 302 304 303 304 301 300 308 311 309 313 317 320 322 326 326 329 330 331 332 331 330 331 334 334 334 332 333 334 333 333 333 333 332 331 331 330 330 329 329 328 326 324 323 323 322 322
297 300 297 305 303 303 302 299 305 308 308 308 311 314 318 321 323 326 328 329 332 332 332 331 330 332 333 333 334 332 333 332 332 332 333 333 332 332 331 330 330 331 330 328 326 326 324 324 324
297 295 297 299 302 301 300 298 305 309 307 308 310 312 316 318 322 325 328 329 330 331 333 333 332 331 332 333 333 334 333 332 332 332 332 333 333 332 331 331 331 331 329 326 325 324 325 324 325
293 293 300 300 298 299 298 298 303 304 305 307 309 311 313 316 319 324 326 328 329 331 333 334 336 333 333 334 334 333 333 333 332 332 332 332 333 333 332 332 330 327 324 322 321 321 322 321 322
301 299 298 302 299 297 297 298 301 303 303 305 307 309 311 314 319 322 325 328 328 330 331 333 334 335 335 334 332 331 330 332 332 333 334 334 334 334 333 331 328 326 324 323 322 320 320 319 319
300 298 298 298 296 297 298 297 301 304 302 305 307 307 309 312 315 319 323 326 328 329 330 332 333 334 335 335 335 333 332 332 333 334 334 335 335 334 333 331 329 326 324 323 322 319 318 318 317
294 298 298 297 294 296 295 295 298 302 304 305 305 308 308 309 312 316 320 323 326 328 330 331 332 333 335 335 335 334 335 334 333 332 331 335 335 335 333 332 331 328 326 324 323 320 318 318 317
292 298 300 293 293 292 296 292 299 299 300 302 303 304 305 308 310 312 317 320 325 327 330 330 331 332 334 336 335 333 329 329 331 333 335 335 335 334 334 333 332 331 329 327 327 325 322 321 319
298 296 295 295 294 294 291 289 296 300 297 300 303 305 307 308 308 308 311 315 320 326 329 331 331 331 332 334 334 334 332 332 332 333 334 334 335 335 334 334 333 331 331 330 329 327 325 323 321
296 294 293 293 293 286 293 290 293 294 297 300 304 306 307 309 309 309 310 311 312 317 322 328 328 329 331 332 333 332 332 332 331 332 332 333 332 333 334 333 332 330 330 328 329 328 325 321 321
294 293 285 284 284 285 288 290 292 299 300 300 302 305 308 310 310 308 305 304 306 308 308 311 314 321 327 329 330 331 330 330 329 329 329 327 327 328 331 331 328 328 328 328 328 325 323 320 319
291 295 287 281 282 285 284 284 290 298 301 302 301 300 303 303 304 304 304 305 305 306 307 308 312 311 316 322 325 327 328 327 328 328 327 328 329 330 331 330 330 330 330 329 328 326 325 323 323
290 290 295 285 281 284 286 290 294 298 296 296 297 298 299 301 303 303 305 306 307 308 309 310 312 316 319 320 322 321 320 319 322 323 322 327 328 327 328 329 329 328 328 328 325 324 322 319 319
293 295 286 287 280 279 285 286 289 294 293 294 294 295 298 300 302 304 305 307 309 310 311 312 314 314 315 317 318 318 318 317 317 317 316 316 323 325 325 326 325 325 324 325 323 320 317 315 310
289 289 290 291 288 284 282 285 294 295 295 294 296 298 299 300 302 303 305 306 307 309 310 311 311 311 312 313 313 314 314 314 315 314 314 313 315 317 317 318 317 315 315 315 315 311 309 305 302
293 291 290 286 282 284 284 287 290 293 295 295 295 296 299 301 303 304 304 304 305 307 308 309 310 310 311 311 312 312 313 313 313 312 310 311 309 308 308 308 308 306 305 305 305 302 302 300 296

GFSSGP_sfc_thetae_138.txt.gz
Theta_e
323 320 320 318 303 303 300 302 307 306 308 313 316 312 313 316 315 309 329 337 337 334 340 343 346 346 343 343 345 346 346 348 347 347 347 346 346 344 342 343 343 341 339 339 338 338 337 337 336
317 318 318 314 299 296 299 305 305 308 311 316 313 313 312 313 324 325 327 335 334 333 336 339 344 345 343 343 344 345 345 346 346 346 346 346 345 344 341 340 341 338 338 338 337 336 335 336 337
318 319 312 307 300 295 299 305 308 311 313 313 312 316 316 317 324 326 332 333 333 330 336 340 344 344 344 343 343 344 344 345 345 345 345 344 344 343 341 340 340 337 336 337 336 335 335 337 337
315 315 313 302 299 300 302 306 311 310 310 313 312 311 320 325 325 330 333 332 331 330 336 342 344 344 344 343 343 343 343 343 343 342 343 343 341 340 340 339 340 337 336 336 335 334 335 335 335
314 314 305 303 302 301 302 309 312 309 309 310 312 310 316 328 332 332 331 332 330 331 336 342 343 344 343 342 343 343 343 342 342 342 341 341 339 338 338 339 337 336 335 335 334 332 334 334 333
307 311 302 301 302 302 303 308 310 309 310 311 308 313 317 330 330 330 330 331 332 332 335 340 336 339 341 342 342 342 343 343 343 342 341 340 340 338 337 336 336 335 333 334 333 332 332 332 331
305 306 301 303 305 300 303 309 309 308 308 310 312 310 320 326 331 331 329 329 334 333 334 336 337 335 335 337 338 340 341 341 341 339 338 337 337 337 336 335 334 334 333 333 332 331 330 330 329
306 307 303 305 304 304 305 305 310 309 308 314 313 307 313 325 331 332 329 328 333 332 332 331 334 335 333 334 332 334 336 336 336 334 332 330 331 331 331 330 333 331 331 332 330 329 327 326 325
309 301 300 303 306 305 307 304 306 309 310 310 312 316 322 331 332 329 326 326 332 332 332 332 331 330 331 334 330 329 330 331 330 329 327 325 327 327 327 328 331 330 330 329 329 327 326 326 325
303 301 303 310 309 307 306 305 307 305 307 307 312 324 329 329 328 326 324 323 326 329 333 333 331 330 330 332 332 332 329 329 330 328 327 328 327 326 327 323 327 329 327 328 326 325 326 323 320
302 301 308 310 309 307 307 305 308 304 304 308 310 320 326 326 326 326 325 324 326 327 331 334 332 331 330 329 329 330 329 328 327 327 326 327 326 324 325 323 321 320 319 321 323 321 322 321 320
298 305 307 310 307 305 304 307 304 305 304 310 313 321 325 323 325 325 324 325 326 326 329 333 332 330 330 330 330 330 329 328 326 326 327 324 325 324 323 323 323 321 320 319 319 320 320 320 321
298 303 305 307 305 304 305 303 304 303 306 306 311 321 324 324 324 326 325 325 326 323 328 330 333 331 331 329 330 330 328 327 326 326 327 326 324 323 323 322 321 320 319 318 318 319 319 319 319
303 303 304 305 304 303 301 301 302 304 308 306 312 317 321 323 324 325 325 324 325 325 325 330 331 333 332 329 329 329 329 328 327 326 326 326 325 324 323 322 322 321 319 317 316 317 317 317 317
304 298 302 302 303 301 301 298 298 304 305 305 307 314 318 320 323 324 325 324 325 326 326 328 329 332 331 330 329 328 329 329 328 328 328 326 326 325 324 323 322 322 321 319 317 317 316 316 317
297 297 294 300 302 301 299 295 302 304 302 303 305 308 313 318 321 323 325 326 326 327 325 327 330 330 331 330 330 329 328 327 327 327 328 328 327 327 324 324 323 325 323 321 319 318 317 317 318
295 291 293 300 303 299 297 296 304 306 302 301 302 307 310 313 317 320 322 326 327 328 327 325 326 328 328 330 330 329 327 326 327 327 327 328 328 328 326 324 325 324 323 320 321 321 321 320 320
290 293 295 297 298 298 294 295 299 301 301 301 302 305 308 311 314 318 321 323 324 327 328 328 327 326 327 328 328 329 328 327 327 326 327 328 328 328 326 325 324 323 320 321 319 319 319 319 319
299 296 296 299 299 295 295 294 296 299 298 299 300 303 305 311 314 317 321 322 323 324 327 328 328 327 328 327 326 325 326 326 326 326 327 328 328 328 326 325 323 321 320 320 319 318 317 317 317
296 295 295 301 296 294 293 294 297 297 298 300 301 301 304 306 311 316 317 320 321 324 325 328 329 330 329 329 329 328 325 326 326 328 328 328 329 330 327 325 323 322 320 319 319 317 315 316 316
295 293 296 296 292 292 289 290 294 298 298 299 301 303 304 304 307 311 315 318 320 321 324 326 329 331 331 331 330 327 327 326 325 326 329 329 329 329 327 327 325 323 320 319 318 319 317 316 314
294 300 296 294 290 287 291 285 292 296 296 298 299 300 300 301 306 310 314 318 320 322 324 326 328 328 331 331 328 326 326 323 326 327 327 327 329 329 328 328 327 324 323 320 320 319 317 315 313
297 301 297 293 290 290 286 283 291 296 294 296 299 299 299 301 302 304 313 317 319 320 323 325 326 326 327 330 330 328 325 326 326 326 326 328 328 328 328 328 326 326 326 324 323 321 319 317 317
298 297 293 291 290 284 290 286 287 293 295 297 299 300 301 300 301 302 306 314 316 319 320 322 322 323 324 327 329 329 327 326 325 324 325 325 326 330 330 328 327 326 325 324 325 324 320 319 319
293 288 282 281 281 281 289 285 289 294 295 297 298 300 300 301 301 300 300 302 306 310 316 319 321 321 323 324 325 328 327 326 324 324 324 327 326 326 328 329 327 324 325 324 322 321 319 317 318
288 290 285 279 280 279 280 282 287 298 298 296 297 295 295 300 298 299 299 299 299 302 302 304 307 313 318 321 322 323 325 324 324 325 326 326 325 326 328 328 327 324 326 324 322 324 321 319 315
288 285 294 283 277 278 281 285 291 293 292 292 293 292 293 295 297 297 298 299 299 300 301 302 304 305 307 313 316 316 316 316 318 322 321 324 325 326 326 326 326 325 323 322 321 321 319 318 317
291 294 285 284 276 274 279 280 285 290 290 290 291 291 292 296 297 298 299 300 301 303 304 304 306 309 311 313 314 313 313 313 316 315 315 315 319 323 322 322 322 319 318 317 318 318 317 315 309
287 287 289 287 284 279 275 279 289 290 291 290 290 292 292 295 296 298 300 302 303 304 305 305 307 307 308 310 310 311 310 310 310 310 310 309 309 311 312 313 313 312 311 312 313 311 309 305 302
292 288 289 284 280 280 280 281 286 289 290 290 291 293 293 296 297 298 299 300 302 303 304 304 305 305 306 307 307 308 308 308 307 305 306 308 304 303 305 306 306 305 303 304 305 302 302 300 297

GFSSGP_sfc_thetae_141.txt.gz
Theta_e
320 313 312 310 298 298 295 298 303 304 305 310 312 311 313 315 313 306 330 334 335 338 342 344 345 345 344 345 347 348 347 349 348 347 346 345 343 342 340 340 342 339 338 338 338 338 337 338 339
316 315 312 306 294 289 293 299 302 305 309 312 313 312 313 312 321 324 327 332 335 337 341 342 343 344 343 345 346 347 348 348 346 347 346 344 342 341 339 339 340 338 337 337 337 338 338 339 339
313 314 305 301 294 291 294 299 304 307 310 309 310 315 314 316 322 324 330 331 331 335 339 341 342 343 343 345 345 346 347 347 346 346 345 344 342 340 338 338 339 337 336 336 337 338 338 337 337
309 308 306 297 293 296 297 303 307 307 307 309 311 312 317 324 323 328 330 329 332 334 339 341 343 343 343 344 344 344 345 346 346 345 343 342 341 339 339 337 337 336 336 335 336 336 336 336 335
307 305 299 298 297 295 300 307 308 306 306 307 309 310 315 325 329 328 328 329 331 334 339 340 341 342 342 342 343 344 344 344 344 343 341 339 339 339 339 336 335 335 335 333 335 335 334 333 333
302 304 296 295 299 297 299 307 308 307 307 307 313 313 315 326 326 326 328 329 333 335 338 339 335 338 340 341 342 343 343 343 343 342 341 339 339 338 337 336 333 334 334 333 333 333 332 331 331
301 299 296 296 299 296 299 307 306 305 306 307 313 312 319 323 326 326 327 330 331 336 336 336 335 334 333 336 337 340 341 341 341 340 340 338 337 337 336 335 334 333 333 332 331 330 329 328 328
303 303 296 297 298 301 300 305 307 305 305 310 312 311 313 323 327 326 327 329 331 331 333 332 332 332 332 333 332 334 335 336 335 334 332 331 331 331 331 330 333 332 332 331 329 328 327 326 326
309 298 295 299 301 303 302 301 304 306 308 309 314 313 319 328 327 323 324 327 328 328 329 331 331 330 331 331 328 329 330 330 330 328 326 324 325 326 326 327 330 330 330 330 328 327 326 325 324
306 298 298 306 306 304 303 302 305 304 304 306 318 324 328 328 325 322 321 325 325 325 327 329 329 328 330 334 328 327 328 326 325 325 324 326 325 324 325 322 326 328 327 328 327 326 326 323 319
303 300 305 307 309 305 305 302 306 305 302 308 314 320 325 326 325 322 321 326 326 327 328 329 328 327 326 330 328 327 325 325 325 324 325 324 324 323 322 319 319 318 319 319 321 320 319 319 318
297 303 308 309 311 304 304 305 303 302 304 310 321 324 324 324 324 323 322 322 325 326 327 329 329 327 326 327 328 327 326 324 323 324 324 322 320 320 320 319 319 319 317 318 317 318 318 318 319
300 300 304 308 305 305 304 302 303 302 304 305 321 324 322 323 325 324 324 324 326 325 326 328 329 327 327 326 327 327 326 325 324 324 324 323 322 321 321 320 319 318 317 317 316 317 317 317 317
304 303 304 305 303 303 301 300 301 304 304 304 321 321 322 322 324 324 322 323 324 326 327 328 328 329 328 327 327 326 326 326 324 324 324 324 322 321 320 319 319 317 316 314 314 315 315 315 316
305 301 304 304 303 300 302 296 297 303 302 304 314 320 321 322 323 323 325 322 325 324 328 328 329 329 328 327 326 326 326 326 324 324 324 324 323 322 321 320 319 319 318 315 315 315 314 314 315
300 299 296 305 300 301 300 296 300 303 300 300 305 311 318 320 322 324 325 324 324 324 325 328 330 329 327 327 327 327 326 325 325 325 325 324 325 324 321 321 320 321 319 318 316 315 314 314 315
296 294 294 299 304 299 295 293 302 305 300 299 300 306 313 317 318 323 324 324 323 324 324 326 328 328 328 329 328 326 326 325 325 325 325 325 325 325 323 322 321 322 320 318 317 317 318 320 319
291 292 295 297 301 299 294 293 299 302 300 300 298 301 305 312 316 320 322 325 325 325 325 326 327 328 328 329 328 327 325 324 324 324 325 326 326 325 324 322 322 321 319 317 316 318 319 319 318
298 297 298 299 303 300 298 295 297 300 296 296 298 299 303 309 316 317 320 323 324 325 324 324 324 325 326 325 325 324 323 324 323 324 325 326 326 326 324 322 321 319 319 318 317 318 317 317 317
297 296 296 302 301 296 296 293 296 297 295 297 299 298 301 307 309 314 317 318 322 324 326 325 324 324 325 326 326 325 325 324 325 326 325 325 326 326 325 324 321 319 317 316 316 316 315 316 316
295 294 295 297 294 297 290 288 292 295 296 297 298 299 302 306 310 312 313 316 318 320 323 326 326 325 325 326 325 324 324 322 323 324 325 326 326 327 326 325 323 320 318 316 315 314 314 313 314
293 298 297 296 290 287 291 284 290 294 295 296 298 299 302 301 310 312 314 315 318 321 323 326 327 328 327 327 327 326 325 323 325 325 326 326 327 326 326 326 325 323 321 318 317 317 315 313 312
295 302 298 295 291 291 288 286 290 293 293 295 297 299 301 299 304 309 314 317 319 319 320 323 326 327 329 328 328 326 325 325 323 323 324 325 324 326 326 326 325 324 322 321 319 318 317 318 316
300 297 290 292 288 283 289 286 284 293 294 296 298 299 299 299 298 305 314 317 318 318 320 322 323 325 326 329 328 327 326 323 323 321 323 322 323 324 327 327 326 325 323 321 320 320 320 318 318
296 290 283 281 281 281 287 284 290 293 296 298 298 298 299 300 299 299 306 312 315 315 319 321 322 323 324 326 328 327 326 324 323 323 320 320 324 327 328 328 327 326 326 326 324 322 321 319 318
293 292 284 278 278 280 282 282 290 297 298 295 297 298 298 299 300 299 302 311 312 315 317 319 319 321 319 322 324 327 326 326 325 322 322 325 326 326 327 328 328 327 326 326 324 322 322 320 319
288 287 292 283 278 278 283 283 289 292 293 292 292 291 293 296 296 297 296 302 305 306 310 315 313 313 317 318 318 319 320 319 319 322 323 324 325 325 326 326 326 325 325 324 323 322 320 318 317
292 294 285 285 277 276 280 279 288 289 291 290 290 290 291 293 294 294 295 296 297 299 300 301 303 306 306 312 315 314 314 315 315 318 317 315 320 321 323 322 322 321 321 320 320 319 317 316 311
287 287 288 287 284 279 275 279 287 291 294 292 290 290 291 293 294 295 297 299 299 300 300 300 303 305 307 310 311 311 311 310 310 311 311 311 311 314 315 314 313 312 311 311 313 312 311 308 305
291 290 290 286 281 281 280 281 286 287 291 291 290 291 290 294 294 296 298 300 300 301 302 303 304 306 307 307 308 308 307 307 305 304 305 304 302 302 303 307 307 306 306 306 308 306 305 303 301

GFSSGP_sfc_thetae_144.txt.gz
Theta_e
323 313 310 309 298 296 293 297 300 303 304 308 311 314 312 314 310 302 328 334 337 338 341 343 345 346 346 346 347 348 349 349 347 346 344 341 340 340 340 339 338 338 338 338 338 340 341 339 339
317 314 310 304 294 288 293 298 301 303 308 311 314 312 313 310 320 324 324 334 337 339 340 340 342 345 345 346 348 348 348 349 346 345 343 341 340 339 338 338 337 337 337 338 339 340 339 338 339
311 312 305 299 292 290 294 299 303 305 307 307 310 316 315 314 323 324 329 333 335 336 340 339 341 343 344 346 347 348 347 347 347 345 343 341 339 338 337 337 337 336 337 338 339 339 338 337 337
307 308 305 297 293 296 297 302 305 306 306 310 313 311 317 323 323 327 329 332 333 336 338 339 342 343 344 345 346 346 346 346 346 343 342 340 339 337 336 336 336 335 335 337 337 337 336 336 335
307 304 298 297 297 295 300 305 306 305 305 306 310 308 313 323 327 326 329 332 332 334 337 338 341 342 343 344 344 345 345 345 344 342 340 340 338 337 336 336 335 334 334 335 335 334 334 334 333
302 302 295 293 298 296 300 306 306 304 305 310 312 312 314 323 325 325 329 329 334 335 336 336 334 337 339 342 343 343 344 344 343 341 339 339 338 336 335 335 335 334 333 334 333 332 332 332 331
299 298 294 294 297 296 300 306 304 304 305 305 315 311 315 320 323 325 328 331 334 336 334 333 333 333 333 336 339 340 341 341 342 341 339 338 337 337 336 335 334 333 332 331 330 329 328 328 328
301 302 295 295 296 299 299 304 306 306 305 309 318 311 315 322 323 325 328 329 332 332 332 330 330 331 331 332 332 334 336 337 337 336 333 331 331 332 332 330 333 332 331 330 328 327 327 327 328
311 298 294 296 299 301 301 301 302 305 307 310 314 317 320 325 323 324 324 326 328 330 330 329 328 328 329 330 327 328 330 330 329 328 326 323 324 325 325 326 330 331 331 329 328 327 326 325 323
310 297 298 302 304 301 302 301 303 304 305 307 313 320 325 324 322 322 322 322 323 325 326 328 327 327 328 332 327 327 326 325 324 323 323 324 323 323 324 322 326 328 327 329 327 326 326 322 317
303 302 305 306 308 307 302 300 303 303 301 308 312 318 323 322 321 322 323 324 323 325 327 328 327 326 327 328 325 324 324 322 322 322 323 323 322 320 319 318 318 316 318 318 319 319 318 317 317
299 301 305 309 311 306 301 303 301 303 304 309 319 323 323 321 320 320 323 324 323 324 326 327 327 326 325 327 326 324 323 322 321 321 323 321 319 318 318 317 316 315 316 316 316 316 317 317 317
302 303 304 306 305 309 303 301 301 301 304 308 323 324 323 323 322 322 323 327 326 325 326 327 326 325 325 325 326 325 323 323 322 322 322 321 319 318 318 317 317 317 315 315 315 315 316 315 316
305 304 304 306 306 305 301 301 301 303 303 314 321 320 323 323 323 322 322 325 325 326 326 327 327 326 325 324 325 326 325 325 322 322 322 322 321 319 319 318 317 316 315 314 314 315 314 314 314
305 303 305 308 308 303 301 297 296 302 301 310 319 319 320 323 324 323 323 323 326 326 327 327 327 328 326 325 325 326 325 325 322 322 323 322 322 320 319 318 317 317 315 313 312 313 312 312 313
299 301 299 308 309 306 301 294 301 303 299 301 315 318 319 320 322 325 325 324 326 326 326 328 329 328 327 326 326 325 325 324 323 322 322 322 322 321 319 318 318 319 317 314 313 313 313 313 313
297 292 295 301 308 305 297 294 301 307 299 299 301 311 317 318 320 323 325 324 324 324 326 326 328 327 327 326 325 325 324 323 323 323 323 323 323 323 320 319 319 319 317 316 315 314 314 315 319
292 293 296 298 302 303 297 294 298 302 302 301 300 302 311 316 319 322 324 325 322 323 324 326 327 327 327 327 325 324 323 323 323 323 324 324 324 323 321 320 319 319 316 316 314 314 318 319 317
297 296 297 299 304 301 301 298 297 299 296 296 297 298 304 312 318 321 323 324 322 322 322 324 325 326 327 326 324 323 322 323 321 323 325 325 325 324 322 321 319 318 317 317 316 315 317 316 317
297 295 294 298 303 300 300 298 302 302 299 300 298 298 300 306 312 316 319 321 322 322 322 323 325 325 326 327 326 326 325 323 325 325 325 325 324 325 324 322 319 317 316 315 315 314 314 316 316
295 294 295 295 295 299 296 296 299 301 299 300 301 299 301 304 307 311 316 318 322 322 322 322 324 325 326 326 327 321 322 320 320 322 324 324 325 324 324 322 321 319 318 317 314 313 312 310 312
291 296 297 296 294 288 297 289 297 301 301 297 299 298 299 302 305 310 314 316 319 322 324 324 323 323 325 325 324 324 322 321 323 324 324 323 323 323 324 323 322 321 319 317 315 314 314 314 314
293 298 297 297 291 289 291 285 288 297 295 298 298 299 301 300 302 308 312 316 318 321 323 325 324 323 324 324 324 324 323 324 322 321 321 322 322 324 324 324 322 322 320 319 317 314 315 317 317
299 294 292 291 289 282 288 289 288 293 295 299 299 299 301 300 300 306 312 316 317 320 321 323 323 324 324 324 324 324 323 323 320 319 321 321 322 322 323 324 325 325 324 322 319 320 319 317 316
298 292 284 281 280 282 288 286 291 295 294 297 299 299 301 301 300 302 307 312 314 315 317 320 322 323 325 325 325 325 325 324 321 321 321 318 320 320 323 326 325 325 325 324 323 322 321 319 318
294 293 285 279 277 279 283 283 290 298 302 301 298 298 299 299 300 299 306 311 313 315 317 319 320 322 323 325 326 326 326 326 324 323 322 323 323 324 326 327 327 327 326 325 324 323 322 321 318
292 289 294 285 276 277 279 284 289 291 291 294 296 293 295 297 298 299 302 309 313 314 316 318 319 321 321 323 325 325 325 325 324 322 324 324 326 325 326 327 326 326 325 325 324 322 321 319 317
292 294 286 287 279 278 280 280 286 287 293 294 292 294 293 295 296 295 298 307 310 312 315 317 319 319 319 321 322 322 324 324 323 323 324 322 323 323 322 322 323 323 322 321 320 319 317 316 313
289 288 289 288 285 283 276 282 286 292 293 294 297 296 295 294 294 295 294 296 300 301 305 311 311 311 309 314 314 314 314 314 314 315 317 318 316 317 317 316 317 315 314 313 314 313 313 312 309
294 291 290 285 280 281 280 284 287 286 287 288 291 291 291 293 293 293 294 295 297 298 299 302 302 305 306 308 310 311 310 309 308 307 307 308 304 305 306 310 310 308 307 308 309 308 307 307 305

GFSSGP_sfc_thetae_147.txt.gz
Theta_e
322 313 309 309 298 297 292 295 299 301 303 306 311 309 308 312 307 300 327 332 336 337 341 342 346 347 346 346 347 348 348 347 345 343 340 339 338 338 338 337 338 338 338 339 341 340 340 339 338
313 312 310 303 294 289 293 297 300 302 308 314 312 311 312 307 320 324 326 334 336 338 339 339 342 346 346 346 347 348 348 347 344 343 340 338 337 337 337 337 337 338 338 340 340 339 340 339 338
310 310 306 298 291 290 292 298 303 305 308 307 311 315 314 312 320 324 327 334 336 336 337 337 341 345 345 346 347 348 347 347 344 342 340 337 337 337 337 336 336 338 338 339 338 339 338 338 336
307 308 305 297 294 294 295 300 304 305 305 311 312 309 316 322 325 326 332 333 333 334 335 338 342 344 346 346 346 346 346 346 344 342 339 337 337 337 336 335 335 337 337 338 338 337 336 336 335
306 304 298 295 297 296 299 303 304 304 304 306 310 308 311 321 326 328 330 331 332 332 334 336 341 343 345 345 345 345 345 344 344 341 339 338 336 336 335 335 334 335 336 336 335 335 334 334 335
302 301 294 293 297 297 301 304 304 303 303 309 312 310 312 322 324 326 329 328 332 332 333 335 334 338 341 343 344 344 344 343 341 340 339 337 336 335 335 334 333 334 333 333 333 333 332 332 334
299 298 294 294 296 296 300 305 302 303 304 306 316 310 311 317 322 327 327 328 331 332 331 330 331 333 334 337 339 341 342 341 340 340 339 338 337 336 335 335 333 332 331 330 330 330 330 330 331
303 301 296 296 295 297 300 304 304 304 303 311 316 309 310 319 322 325 327 330 333 329 329 327 328 329 330 333 332 335 337 338 338 336 334 332 332 332 331 330 333 331 330 328 328 328 328 328 328
309 298 293 298 298 299 300 300 302 304 305 309 312 316 319 322 323 323 324 327 328 329 326 326 326 327 328 330 327 329 331 331 331 329 326 323 324 324 324 326 331 331 330 329 328 327 326 325 324
306 298 299 302 304 300 301 299 301 303 305 306 310 316 321 321 322 320 321 322 324 326 326 325 325 326 327 331 326 326 326 324 324 323 321 322 321 321 323 320 326 328 328 329 327 326 325 320 316
303 302 304 305 308 307 303 300 302 302 300 307 310 315 318 319 320 320 321 322 323 326 328 326 324 325 326 326 324 323 322 321 321 320 320 321 320 318 318 317 316 315 317 316 318 317 317 316 315
297 302 302 307 308 307 306 302 300 302 304 307 314 320 319 318 319 320 321 322 322 323 326 327 325 325 325 325 323 322 321 319 319 319 321 319 317 316 315 315 314 313 314 314 314 315 315 315 316
299 299 302 305 305 306 306 303 299 300 304 307 319 321 319 319 320 322 324 324 324 322 324 326 325 324 325 324 323 321 320 320 319 320 321 320 318 316 315 314 314 314 314 314 313 314 314 314 315
303 304 304 306 305 308 303 301 301 301 304 315 319 319 320 319 320 321 323 324 323 324 324 326 325 324 324 324 323 323 321 321 320 319 320 320 319 317 316 315 315 315 315 313 313 313 313 313 313
304 301 304 306 307 303 303 299 297 302 301 313 316 318 320 321 320 320 321 324 325 325 326 325 325 325 324 324 324 324 323 323 321 320 320 320 320 318 318 317 316 315 315 313 311 312 312 311 312
298 298 294 304 308 309 303 296 300 301 299 301 313 314 318 320 322 323 323 322 327 326 325 326 328 325 324 324 323 324 324 323 322 321 321 321 320 320 318 317 316 316 314 313 311 311 311 311 311
298 294 295 298 307 306 303 298 304 304 299 298 303 313 316 318 319 323 325 323 324 327 325 325 327 326 325 324 324 324 324 322 322 321 321 321 321 321 319 318 317 317 315 313 312 312 312 312 315
294 294 294 294 302 305 297 295 300 299 301 301 299 304 312 316 318 323 325 325 323 326 326 326 326 327 326 326 324 323 322 323 322 323 322 322 322 321 320 318 317 316 314 313 312 312 313 318 317
297 294 296 298 303 300 299 299 302 303 296 296 297 297 303 311 319 321 322 325 322 323 323 325 325 326 326 324 323 323 322 322 321 323 323 322 323 321 320 318 317 316 315 315 314 316 317 316 317
295 295 295 299 301 299 297 298 301 303 303 298 299 298 297 301 309 316 320 321 322 321 322 324 325 326 326 327 327 326 325 323 325 323 323 324 323 323 321 319 317 316 315 314 314 317 315 315 316
292 294 295 296 298 297 296 294 297 303 304 306 303 302 302 300 301 309 316 319 322 321 321 322 324 325 326 326 327 321 322 318 319 321 323 323 323 322 322 320 319 318 317 316 314 314 315 310 311
290 295 295 295 294 290 296 288 294 299 302 304 304 304 304 301 302 304 311 316 320 321 323 323 323 324 325 326 324 323 323 321 322 323 323 324 323 323 322 322 321 320 318 317 316 315 314 313 315
293 296 295 296 293 290 291 288 289 298 297 301 304 304 304 303 304 302 307 314 319 321 322 322 322 324 324 325 325 323 322 323 322 320 320 321 321 322 322 322 321 320 319 319 317 312 314 317 317
297 295 293 292 290 283 290 289 290 293 296 298 302 305 305 303 302 302 306 311 315 319 321 322 321 322 323 324 324 323 322 322 320 319 320 320 321 321 321 322 322 321 322 322 321 319 317 318 318
296 292 284 281 281 282 285 288 291 295 295 296 300 301 301 302 302 300 302 306 312 315 318 321 321 320 321 322 322 323 323 322 321 319 320 319 319 317 320 321 321 322 324 324 323 321 319 319 318
292 292 285 278 278 280 283 284 290 296 300 301 298 298 299 298 300 299 301 305 310 314 317 320 320 321 320 321 321 322 323 323 322 322 321 321 321 321 321 322 323 323 325 325 324 323 320 320 319
289 287 293 286 280 279 280 283 290 292 292 294 297 299 299 299 297 298 299 304 309 313 316 318 320 321 322 321 322 322 322 322 322 322 322 322 322 321 322 323 324 325 325 325 324 323 321 319 319
292 293 286 287 278 278 282 280 286 288 290 293 293 295 298 297 295 297 298 302 308 312 315 317 319 320 321 323 323 323 323 323 323 321 320 321 321 322 324 324 325 324 323 322 321 319 318 317 315
289 288 290 290 286 281 278 283 290 293 295 296 294 294 295 297 294 296 297 300 306 310 313 315 316 318 319 320 321 322 322 322 323 320 321 322 322 323 322 321 320 319 316 316 317 316 315 315 312
293 290 290 284 281 284 279 285 290 288 288 290 290 290 291 294 295 293 293 294 301 306 309 312 315 316 317 318 319 319 318 317 318 319 315 317 318 315 316 315 314 311 308 310 311 310 309 310 308